[[{"header":{"parameterUnit":"m.s-1","parameterCategory":1,"la1":30.6,"la2":28.766,"lo1":-90.7593,"lo2":-88.6598,"dy":0.0162,"dx":0.0183,"nx":116,"ny":114,"refTime":"2023-06-17T12:00:00:Z","depth":0,"parameterNumber":2,"parameterNumberName":"U-component_of_WINDS"},"data":[0.0,0.0,0.0,0.0,0.0,0.0,0.0,0.0,0.0,0.0,0.0,0.0,0.0,0.0,0.0,0.0,0.0,0.0,0.0,0.0,0.0,0.0,0.0,0.0,0.0,0.0,0.0,0.0,0.0,0.0,0.0,0.0,0.0,0.0,0.0,0.0,0.0,0.0,0.0,0.0,0.0,0.0,0.0,0.0,0.0,0.0,0.0,0.0,0.0,0.0,0.0,0.0,0.0,0.0,0.0,0.0,0.0,0.0,0.0,0.0,0.0,0.0,0.0,0.0,0.0,0.0,0.0,0.0,0.0,0.0,0.0,0.0,0.0,0.0,0.0,0.0,0.0,0.0,0.0,0.0,0.0,0.0,0.0,0.0,0.0,0.0,0.0,0.0,0.0,0.0,0.0,0.0,0.0,0.0,0.0,0.0,0.0,0.0,0.0,0.0,0.0,0.0,0.0,0.0,0.0,0.0,0.0,0.0,0.0,0.0,0.0,0.0,0.0,0.0,0.0,0.0,0.0,0.0,0.0,0.0,0.0,0.0,0.0,0.0,0.0,0.0,0.0,0.0,0.0,0.0,0.0,0.0,0.0,0.0,0.0,0.0,0.0,0.0,0.0,0.0,0.0,0.0,0.0,0.0,0.0,0.0,0.0,0.0,0.0,0.0,0.0,0.0,0.0,0.0,0.0,0.0,0.0,0.0,0.0,0.0,0.0,0.0,0.0,0.0,0.0,0.0,0.0,0.0,0.0,0.0,0.0,0.0,0.0,0.0,0.0,0.0,0.0,0.0,0.0,0.0,0.0,0.0,0.0,0.0,0.0,0.0,0.0,0.0,0.0,0.0,0.0,0.0,0.0,0.0,0.0,0.0,0.0,0.0,0.0,0.0,0.0,0.0,0.0,0.0,0.0,0.0,0.0,0.0,0.0,0.0,0.0,0.0,0.0,0.0,0.0,0.0,0.0,0.0,0.0,0.0,0.0,0.0,0.0,0.0,0.0,0.0,0.0,0.0,0.0,0.0,0.0,0.0,0.0,0.0,0.0,0.0,0.0,0.0,0.0,0.0,0.0,0.0,0.0,0.0,0.0,0.0,0.0,0.0,0.0,0.0,0.0,0.0,0.0,0.0,0.0,0.0,0.0,0.0,0.0,0.0,0.0,0.0,0.0,0.0,0.0,0.0,0.0,0.0,0.0,0.0,0.0,0.0,0.0,0.0,0.0,0.0,0.0,0.0,0.0,0.0,0.0,0.0,0.0,0.0,0.0,0.0,0.0,0.0,0.0,0.0,0.0,0.0,0.0,0.0,0.0,0.0,0.0,0.0,0.0,0.0,0.0,0.0,0.0,0.0,0.0,0.0,0.0,0.0,0.0,0.0,0.0,0.0,0.0,0.0,0.0,0.0,0.0,0.0,0.0,0.0,0.0,0.0,0.0,0.0,0.0,0.0,0.0,0.0,0.0,0.0,0.0,0.0,0.0,0.0,0.0,0.0,0.0,0.0,0.0,0.0,0.0,0.0,0.0,0.0,0.0,0.0,0.0,0.0,0.0,0.0,0.0,0.0,0.0,0.0,0.0,0.0,0.0,0.0,0.0,0.0,0.0,0.0,0.0,0.0,0.0,0.0,0.0,0.0,0.0,0.0,0.0,0.0,0.0,0.0,0.0,0.0,0.0,0.0,0.0,0.0,0.0,0.0,0.0,0.0,0.0,0.0,0.0,0.0,0.0,0.0,0.0,0.0,0.0,0.0,0.0,0.0,0.0,0.0,0.0,0.0,0.0,0.0,0.0,0.0,0.0,0.0,0.0,0.0,0.0,0.0,0.0,0.0,0.0,0.0,0.0,0.0,0.0,0.0,0.0,0.0,0.0,0.0,0.0,0.0,0.0,0.0,0.0,0.0,0.0,0.0,0.0,0.0,0.0,0.0,0.0,0.0,0.0,0.0,0.0,0.0,0.0,0.0,0.0,0.0,0.0,0.0,0.0,0.0,0.0,0.0,0.0,0.0,0.0,0.0,0.0,0.0,0.0,0.0,0.0,0.0,0.0,0.0,0.0,0.0,0.0,0.0,0.0,0.0,0.0,0.0,0.0,0.0,0.0,0.0,0.0,0.0,0.0,0.0,0.0,0.0,0.0,0.0,0.0,0.0,0.0,0.0,0.0,0.0,0.0,0.0,0.0,0.0,0.0,0.0,0.0,0.0,0.0,0.0,0.0,0.0,0.0,0.0,0.0,0.0,0.0,0.0,0.0,0.0,0.0,0.0,0.0,0.0,0.0,0.0,0.0,0.0,0.0,0.0,0.0,0.0,0.0,0.0,0.0,0.0,0.0,0.0,0.0,0.0,0.0,0.0,0.0,0.0,0.0,0.0,0.0,0.0,0.0,0.0,0.0,0.0,0.0,0.0,0.0,0.0,0.0,0.0,0.0,0.0,0.0,0.0,0.0,0.0,0.0,0.0,0.0,0.0,0.0,0.0,0.0,0.0,0.0,0.0,0.0,0.0,0.0,0.0,0.0,0.0,0.0,0.0,0.0,0.0,0.0,0.0,0.0,0.0,0.0,0.0,0.0,0.0,0.0,0.0,0.0,0.0,0.0,0.0,0.0,0.0,0.0,0.0,0.0,0.0,0.0,0.0,0.0,0.0,0.0,0.0,0.0,0.0,0.0,0.0,0.0,0.0,0.0,0.0,0.0,0.0,0.0,0.0,0.0,0.0,0.0,0.0,0.0,0.0,0.0,0.0,0.0,0.0,0.0,0.0,0.0,0.0,0.0,0.0,0.0,0.0,0.0,0.0,0.0,0.0,0.0,0.0,0.0,0.0,0.0,0.0,0.0,0.0,0.0,0.0,0.0,0.0,0.0,0.0,0.0,0.0,0.0,0.0,0.0,0.0,0.0,0.0,0.0,0.0,0.0,0.0,0.0,0.0,0.0,0.0,0.0,0.0,0.0,0.0,0.0,0.0,0.0,0.0,0.0,0.0,0.0,0.0,0.0,0.0,0.0,0.0,0.0,0.0,0.0,0.0,0.0,0.0,0.0,0.0,0.0,0.0,0.0,0.0,0.0,0.0,0.0,0.0,0.0,0.0,0.0,0.0,0.0,0.0,0.0,0.0,0.0,0.0,0.0,0.0,0.0,0.0,0.0,0.0,0.0,0.0,0.0,0.0,0.0,0.0,0.0,0.0,0.0,0.0,0.0,0.0,0.0,0.0,0.0,0.0,0.0,0.0,0.0,0.0,0.0,0.0,0.0,0.0,0.0,0.0,0.0,0.0,0.0,0.0,0.0,0.0,0.0,0.0,0.0,0.0,0.0,0.0,0.0,0.0,0.0,0.0,0.0,0.0,0.0,0.0,0.0,0.0,0.0,0.0,0.0,0.0,0.0,0.0,0.0,0.0,0.0,0.0,0.0,0.0,0.0,0.0,0.0,0.0,0.0,0.0,0.0,0.0,0.0,0.0,0.0,0.0,0.0,0.0,0.0,0.0,0.0,0.0,0.0,0.0,0.0,0.0,0.0,0.0,0.0,0.0,0.0,0.0,0.0,0.0,0.0,0.0,0.0,0.0,0.0,0.0,0.0,0.0,0.0,0.0,0.0,0.0,0.0,0.0,0.0,0.0,0.0,0.0,0.0,0.0,0.0,0.0,0.0,0.0,0.0,0.0,0.0,0.0,0.0,0.0,0.0,0.0,0.0,0.0,0.0,0.0,0.0,0.0,0.0,0.0,0.0,0.0,0.0,0.0,0.0,0.0,0.0,0.0,0.0,0.0,0.0,0.0,0.0,0.0,0.0,0.0,0.0,0.0,0.0,0.0,0.0,0.0,0.0,0.0,0.0,0.0,0.0,0.0,0.0,0.0,0.0,0.0,0.0,0.0,0.0,0.0,0.0,0.0,0.0,0.0,0.0,0.0,0.0,0.0,0.0,0.0,0.0,0.0,0.0,0.0,0.0,0.0,0.0,0.0,0.0,0.0,0.0,0.0,0.0,0.0,0.0,0.0,0.0,0.0,0.0,0.0,0.0,0.0,0.0,0.0,0.0,0.0,0.0,0.0,0.0,0.0,0.0,0.0,0.0,0.0,0.0,0.0,0.0,0.0,0.0,0.0,0.0,0.0,0.0,0.0,0.0,0.0,0.0,0.0,0.0,0.0,0.0,0.0,0.0,0.0,0.0,0.0,0.0,0.0,0.0,0.0,0.0,0.0,0.0,0.0,0.0,0.0,0.0,0.0,0.0,0.0,0.0,0.0,0.0,0.0,0.0,0.0,0.0,0.0,0.0,0.0,0.0,0.0,0.0,0.0,0.0,0.0,0.0,0.0,0.0,0.0,0.0,0.0,0.0,0.0,0.0,0.0,0.0,0.0,0.0,0.0,0.0,0.0,0.0,0.0,0.0,0.0,0.0,0.0,0.0,0.0,0.0,0.0,0.0,0.0,0.0,0.0,0.0,0.0,0.0,0.0,0.0,0.0,0.0,0.0,0.0,0.0,0.0,0.0,0.0,0.0,0.0,0.0,0.0,0.0,0.0,0.0,0.0,0.0,0.0,0.0,0.0,0.0,0.0,0.0,0.0,0.0,0.0,0.0,0.0,0.0,0.0,0.0,0.0,0.0,0.0,0.0,0.0,0.0,0.0,0.0,0.0,0.0,0.0,0.0,0.0,0.0,0.0,0.0,0.0,0.0,0.0,0.0,0.0,0.0,0.0,0.0,0.0,0.0,0.0,0.0,0.0,0.0,0.0,0.0,0.0,0.0,0.0,0.0,0.0,0.0,0.0,0.0,0.0,0.0,0.0,0.0,0.0,0.0,0.0,0.0,0.0,0.0,0.0,0.0,0.0,0.0,0.0,0.0,0.0,0.0,0.0,0.0,0.0,0.0,0.0,0.0,0.0,0.0,0.0,0.0,0.0,0.0,0.0,0.0,0.0,0.0,0.0,0.0,0.0,0.0,0.0,0.0,0.0,0.0,0.0,0.0,0.0,0.0,0.0,0.0,0.0,0.0,0.0,0.0,0.0,0.0,0.0,0.0,0.0,0.0,0.0,0.0,0.0,0.0,0.0,0.0,0.0,0.0,0.0,0.0,0.0,0.0,0.0,0.0,0.0,0.0,0.0,0.0,0.0,0.0,0.0,0.0,0.0,0.0,0.0,0.0,0.0,0.0,0.0,0.0,0.0,0.0,0.0,0.0,0.0,0.0,0.0,0.0,0.0,0.0,0.0,0.0,0.0,0.0,0.0,0.0,0.0,0.0,0.0,0.0,0.0,0.0,0.0,0.0,0.0,0.0,0.0,0.0,0.0,0.0,0.0,0.0,0.0,0.0,0.0,0.0,0.0,0.0,0.0,0.0,0.0,0.0,0.0,0.0,0.0,0.0,0.0,0.0,0.0,0.0,0.0,0.0,0.0,0.0,0.0,0.0,0.0,0.0,0.0,0.0,0.0,0.0,0.0,0.0,0.0,0.0,0.0,0.0,0.0,0.0,0.0,0.0,0.0,0.0,0.0,0.0,0.0,0.0,0.0,0.0,0.0,0.0,0.0,0.0,0.0,0.0,0.0,0.0,0.0,0.0,0.0,0.0,0.0,0.0,0.0,0.0,0.0,0.0,0.0,0.0,0.0,0.0,0.0,0.0,0.0,0.0,0.0,0.0,0.0,0.0,0.0,0.0,0.0,0.0,0.0,0.0,0.0,0.0,0.0,0.0,0.0,0.0,0.0,0.0,0.0,0.0,0.0,0.0,0.0,0.0,0.0,0.0,0.0,0.0,0.0,0.0,0.0,0.0,0.0,0.0,0.0,0.0,0.0,0.0,0.0,0.0,0.0,0.0,0.0,0.0,0.0,0.0,0.0,0.0,0.0,0.0,0.0,0.0,0.0,0.0,0.0,0.0,0.0,0.0,0.0,0.0,0.0,0.0,0.0,0.0,0.0,0.0,0.0,0.0,0.0,0.0,0.0,0.0,0.0,0.0,0.0,0.0,0.0,0.0,0.0,0.0,0.0,0.0,0.0,0.0,0.0,0.0,0.0,0.0,0.0,0.0,0.0,0.0,0.0,0.0,0.0,0.0,0.0,0.0,0.0,0.0,0.0,0.0,0.0,0.0,0.0,0.0,0.0,0.0,0.269,0.0,0.0,0.0,0.0,0.0,0.0,0.0,0.0,0.0,0.0,0.0,0.0,0.0,0.0,0.0,0.0,0.0,0.0,0.0,0.0,0.0,0.0,0.0,0.0,0.0,0.0,0.0,0.0,0.0,0.0,0.0,0.0,0.0,0.0,0.0,0.0,0.0,0.0,0.0,0.0,0.0,0.0,0.0,0.0,0.0,0.0,0.0,0.0,0.0,0.0,0.0,0.0,0.0,0.0,0.0,0.0,0.0,0.0,0.0,0.0,0.0,0.0,0.0,0.0,0.0,0.0,0.0,0.0,0.0,0.0,0.0,0.0,0.0,0.0,0.0,0.0,0.0,0.0,0.0,0.0,0.0,0.0,0.0,0.0,0.0,0.0,0.0,0.0,0.0,0.0,0.0,0.0,0.0,0.0,0.0,0.0,0.0,0.0,0.0,0.0,0.0,0.0,0.0,0.0,0.0,0.0,0.0,0.0,0.0,0.0,0.0,0.0,0.0,0.0,0.0,0.0,0.2672,0.0,0.0,0.0,0.0,0.0,0.0,0.0,0.0,0.0,0.0,0.0,0.0,0.0,0.0,0.0,0.0,0.0,0.0,0.0,0.0,0.0,0.0,0.0,0.0,0.0,0.0,0.0,0.0,0.0,0.0,0.0,0.0,0.0,0.0,0.0,0.0,0.0,0.0,0.0,0.0,0.0,0.0,0.0,0.0,0.0,0.0,0.0,0.0,0.0,0.0,0.0,0.0,0.0,0.0,0.0,0.0,0.0,0.0,0.0,0.0,0.0,0.0,0.0,0.0,0.0,0.0,0.0,0.0,0.0,0.0,0.0,0.0,0.0,0.0,0.0,0.0,0.0,0.0,0.0,0.0,0.0,0.0,0.0,0.0,0.0,0.0,0.0,0.0,0.0,0.0,0.0,0.0,0.0,0.0,0.0,0.0,0.0,0.0,0.0,0.0,0.0,0.0,0.0,0.0,0.0,0.0,0.0,0.0,-0.154,-0.11,-0.0713,-0.0119,0.0422,0.0922,0.1652,0.2241,0.2637,0.2641,0.0,0.0,0.0,0.0,0.0,0.0,0.0,0.0,0.0,0.0,0.0,0.0,0.0,0.0,0.0,0.0,0.0,0.0,0.0,0.0,0.0,0.0,0.0,0.0,0.0,0.0,0.0,0.0,0.0,0.0,0.0,0.0,0.0,0.0,0.0,0.0,0.0,0.0,-1.3588,-1.3855,-1.3937,-1.3873,0.0,0.0,0.0,0.0,0.0,0.0,0.0,0.0,0.0,0.0,0.0,0.0,0.0,0.0,0.0,0.0,0.0,0.0,0.0,0.0,0.0,0.0,0.0,0.0,0.0,0.0,0.0,0.0,0.0,0.0,0.0,0.0,0.0,0.0,0.0,0.0,0.0,0.0,0.0,0.0,0.0,0.0,0.0,0.0,-1.0651,-1.0575,0.0,0.0,0.0,0.0,0.0,0.0,0.0,0.0,0.0,0.0,0.0,0.0,0.0,-0.4551,-0.4108,-0.3447,-0.2788,-0.2193,-0.195,-0.1588,-0.0982,-0.0737,-0.0246,0.0494,0.0667,0.0,0.2246,0.2338,0.0,0.0,0.0,0.0,0.0,0.0,0.0,0.0,0.0,0.0,0.0,0.0,0.0,0.0,0.0,0.0,0.0,0.0,0.0,0.0,0.0,0.0,0.0,0.0,0.0,0.0,0.0,0.0,0.0,0.0,0.0,0.0,0.0,0.0,0.0,0.0,-1.3959,-1.4492,-1.4811,-1.5211,-1.5278,-1.5043,-1.4473,-1.3816,-1.3144,-1.2916,0.0,0.0,0.0,0.0,0.0,0.0,0.0,0.0,0.0,0.0,0.0,0.0,0.0,0.0,0.0,0.0,0.0,0.0,0.0,0.0,0.0,0.0,0.0,0.0,0.0,0.0,0.0,0.0,0.0,0.0,0.0,0.0,0.0,0.0,0.0,0.0,0.0,0.0,0.0,-1.1015,-1.0924,-1.0889,-1.0813,-1.0641,0.0,0.0,0.0,0.0,0.0,0.0,0.0,0.0,0.0,-0.6082,-0.5323,-0.475,-0.4504,-0.3774,-0.3272,-0.2918,-0.2444,-0.2037,-0.1698,-0.1224,-0.0748,-0.034,-0.0,0.0607,0.1393,0.1776,0.2031,0.2186,0.0,0.0,0.0,0.0,0.197,0.197,0.0,0.0,0.0,0.0,0.0,0.0,0.0,0.0,0.0,0.0,0.0,0.0,0.0,0.0,0.0,-0.9158,0.0,0.0,0.0,0.0,0.0,0.0,0.0,0.0,0.0,0.0,0.0,0.0,-1.4713,-1.5171,-1.5624,-1.6014,-1.6042,-1.5759,-1.5459,-1.4856,-1.4021,-1.357,-1.3047,0.0,0.0,0.0,0.0,0.0,0.0,0.0,0.0,0.0,0.0,0.0,0.0,0.0,0.0,0.0,0.0,0.0,0.0,0.0,0.0,0.0,0.0,0.0,0.0,0.0,0.0,0.0,0.0,0.0,0.0,0.0,0.0,0.0,0.0,0.0,0.0,0.0,0.0,-1.1297,-1.1145,-1.0848,-1.0839,-1.0772,0.0,0.0,0.0,0.0,0.0,0.0,-0.7921,-0.732,-0.6809,-0.6252,-0.5511,-0.4999,-0.4801,-0.4164,-0.3708,-0.3489,-0.2909,-0.2546,-0.2328,-0.1675,-0.1311,-0.1021,-0.0583,-0.0146,0.0362,0.1183,0.168,0.1822,0.1867,0.1903,0.1938,0.1922,0.1904,0.1868,0.0,0.0,0.0,0.0,0.0,0.0,0.0,0.0,0.0,0.0,0.0,0.0,0.0,0.0,-1.0115,-1.0627,-1.1159,-1.1565,0.0,0.0,0.0,0.0,0.0,0.0,0.0,0.0,0.0,-1.5114,-1.5408,-1.5556,-1.5577,-1.5609,-1.565,-1.5628,-1.5647,-1.5207,-1.4363,-1.4099,-1.34,-1.2496,0.0,0.0,0.0,0.0,0.0,0.0,0.0,0.0,0.0,0.0,0.0,0.0,0.0,0.0,0.0,0.0,0.0,0.0,0.0,0.0,0.0,0.0,0.0,0.0,0.0,0.0,0.0,0.0,0.0,0.0,0.0,0.0,0.0,0.0,0.0,0.0,0.0,0.0,0.0,-1.0695,-1.1064,0.0,0.0,0.0,0.0,-1.014,-0.9582,-0.9022,-0.8414,-0.7562,-0.6912,-0.6611,-0.5838,-0.5298,-0.5012,-0.4571,-0.4063,-0.3489,-0.3489,-0.3054,-0.2401,-0.2328,-0.2039,-0.1531,-0.1239,-0.1021,-0.0726,0.0617,0.1271,0.1462,0.1631,0.1656,0.1567,0.1673,0.1658,0.1526,0.0,0.0,0.0,0.0,0.0,0.0,0.0,0.0,0.0,0.0,0.0,0.0,0.0,-1.0374,-1.0704,-1.117,-1.1431,-1.165,-1.1747,0.0,0.0,0.0,0.0,0.0,0.0,0.0,-1.545,-1.6224,-1.6342,-1.6682,-1.728,-1.728,-1.728,-1.7259,-1.6695,-1.6245,-1.5869,-1.4821,-1.4264,-1.4032,-1.2961,-1.2157,0.0,0.0,0.0,0.0,0.0,0.0,0.0,0.0,0.0,0.0,0.0,0.0,0.0,0.0,0.0,0.0,0.0,0.0,0.0,0.0,0.0,0.0,0.0,0.0,0.0,0.0,0.0,0.0,0.0,0.0,0.0,0.0,0.0,0.0,0.0,0.0,0.0,-1.067,-1.0916,0.0,-1.0594,-1.0789,-1.0686,-1.0019,-0.9392,-0.8826,-0.8393,-0.7699,-0.7122,-0.6814,-0.6388,-0.5992,-0.5566,-0.5031,-0.4649,-0.4422,-0.3969,-0.3591,-0.3284,-0.2751,-0.2371,-0.2141,-0.1913,-0.1531,-0.1145,-0.0664,0.0071,0.0963,0.1192,0.1401,0.1533,0.1443,0.1166,0.085,0.0,0.0,0.0,0.0,0.0,0.0,0.0,0.0,0.0,0.0,0.0,-1.0107,-1.0654,-1.1064,-1.1388,-1.1669,-1.2051,-1.2319,-1.2375,0.0,0.0,0.0,0.0,0.0,0.0,-1.5394,-1.6001,-1.6822,-1.6921,-1.7249,-1.7853,-1.7853,-1.7925,-1.7955,-1.7326,-1.7027,-1.6899,-1.5687,-1.5011,-1.4619,-1.3496,-1.2671,-1.1993,0.0,0.0,0.0,0.0,0.0,0.0,0.0,0.0,0.0,0.0,0.0,0.0,0.0,0.0,0.0,0.0,0.0,0.0,0.0,0.0,0.0,0.0,0.0,0.0,0.0,0.0,0.0,0.0,0.0,0.0,0.0,0.0,0.0,0.0,0.0,-1.0108,-1.0286,-1.0505,-1.0528,-1.0236,-1.0529,-1.0484,-1.001,-0.9394,-0.8862,-0.8562,-0.7928,-0.7484,-0.7172,-0.6757,-0.6421,-0.6165,-0.5596,-0.526,-0.5064,-0.4479,-0.4075,-0.3763,-0.3215,-0.2824,-0.2589,-0.2357,-0.1963,-0.1568,-0.1467,-0.0898,-0.0072,0.0415,0.0737,0.0912,0.0823,0.0496,0.0122,0.0,0.0,0.0,0.0,0.0,0.0,0.0,0.0,0.0,0.0,-1.0391,-1.0918,-1.0947,-1.1674,-1.219,-1.2219,-1.3135,-1.3719,-1.3688,-1.4178,0.0,0.0,0.0,0.0,-1.5636,-1.5883,-1.6272,-1.6838,-1.7102,-1.7199,-1.7209,-1.7209,-1.7335,-1.7512,-1.7502,-1.7441,-1.7284,-1.657,-1.5446,-1.4131,-1.4089,-1.3456,-1.2394,0.0,0.0,0.0,0.0,0.0,0.0,0.0,0.0,0.0,0.0,0.0,0.0,0.0,0.0,0.0,0.0,0.0,0.0,0.0,0.0,0.0,0.0,0.0,0.0,0.0,0.0,0.0,0.0,0.0,0.0,0.0,0.0,0.0,-0.942,-0.9646,-0.9728,-0.9603,-0.9849,-1.0055,-0.9892,-1.0016,-1.0121,-1.0056,-0.9589,-0.9209,-0.8997,-0.8373,-0.7914,-0.7712,-0.7094,-0.6705,-0.6705,-0.6172,-0.5707,-0.5192,-0.5072,-0.4626,-0.3845,-0.3845,-0.3452,-0.2826,-0.2589,-0.2431,-0.2196,-0.1885,-0.1705,-0.166,-0.0788,-0.0483,-0.047,-0.0392,-0.0514,-0.0705,0.0,0.0,0.0,0.0,0.0,0.0,0.0,0.0,0.0,0.0,-1.0762,-1.1152,-1.1752,-1.2044,-1.2433,-1.3105,-1.3429,-1.3694,-1.3945,0.0,0.0,0.0,0.0,0.0,-1.6244,-1.6638,-1.7009,-1.7376,-1.758,-1.781,-1.7989,-1.8121,-1.8187,-1.8233,-1.792,-1.7772,-1.7673,-1.683,-1.5961,-1.5124,-1.4307,-1.3573,-1.2909,0.0,0.0,0.0,0.0,0.0,0.0,0.0,0.0,0.0,0.0,0.0,0.0,0.0,0.0,0.0,0.0,0.0,0.0,0.0,0.0,0.0,0.0,0.0,0.0,0.0,0.0,0.0,0.0,0.0,0.0,0.0,0.0,-0.8159,-0.9058,-0.9137,-0.9105,-0.9245,-0.9466,-0.9614,-0.9392,-0.9761,-0.9869,-0.9549,-0.9378,-0.9169,-0.8906,-0.8624,-0.8295,-0.7926,-0.7703,-0.744,-0.6975,-0.6654,-0.627,-0.5812,-0.5448,-0.5062,-0.4583,-0.4103,-0.3746,-0.3528,-0.3139,-0.2826,-0.2589,-0.2512,-0.2425,-0.2246,-0.2028,-0.1899,-0.1854,-0.2192,-0.2394,-0.2603,0.0,0.0,0.0,0.0,0.0,0.0,0.0,0.0,0.0,0.0,-1.1023,-1.1402,-1.2112,-1.2393,-1.2705,-1.3203,-1.3513,-1.3762,-1.4005,0.0,0.0,0.0,0.0,-1.5968,-1.6348,-1.6841,-1.7109,-1.7288,-1.7549,-1.7831,-1.794,-1.8134,-1.8202,-1.8269,-1.8155,-1.8011,-1.7875,-1.7216,-1.6505,-1.5723,-1.4733,-1.388,-1.3086,-1.2214,-1.1612,-1.104,-1.0098,-0.9698,-0.9536,-0.8829,0.0,0.0,0.0,0.0,0.0,0.0,0.0,0.0,0.0,0.0,0.0,0.0,0.0,0.0,0.0,0.0,0.0,0.0,0.0,0.0,0.0,0.0,0.0,0.0,-0.7316,-0.7412,-0.8077,-0.8249,-0.8377,-0.8631,-0.8949,-0.9097,-0.8966,-0.9361,-0.9607,-0.9467,-0.9255,-0.9126,-0.9073,-0.8742,-0.8537,-0.8285,-0.8107,-0.7868,-0.7397,-0.7088,-0.6635,-0.6111,-0.5835,-0.5416,-0.4938,-0.4608,-0.425,-0.4036,-0.3796,-0.3553,-0.3311,-0.3311,-0.331,0.0,0.0,0.0,0.0,0.0,-0.3568,-0.3783,0.0,0.0,0.0,0.0,0.0,0.0,0.0,0.0,0.0,0.0,0.0,-1.1595,-1.2086,-1.2569,-1.2852,-1.29,-1.3478,-1.3834,0.0,0.0,0.0,-1.5567,-1.5624,-1.5851,-1.6232,-1.6703,-1.6845,-1.6845,-1.7281,-1.747,-1.747,-1.7647,-1.7784,-1.794,-1.8212,-1.8128,-1.7911,-1.7635,-1.7032,-1.6111,-1.5346,-1.4317,-1.3129,-1.2415,-1.1831,-1.1277,-1.0453,-1.0152,-1.006,-0.9714,0.0,0.0,0.0,0.0,0.0,0.0,0.0,0.0,0.0,0.0,0.0,0.0,0.0,0.0,0.0,0.0,0.0,0.0,0.0,0.0,0.0,0.0,0.0,0.0,-0.6749,-0.6762,-0.6779,-0.7158,-0.7613,-0.7879,-0.8304,-0.8584,-0.8641,-0.9008,-0.9303,-0.9519,-0.9135,-0.9068,-0.9248,0.0,0.0,0.0,0.0,-0.8109,-0.7925,-0.7486,-0.697,-0.6337,-0.6105,-0.5733,-0.5218,-0.5134,-0.4875,-0.4448,-0.4448,-0.4365,-0.4193,-0.4193,-0.4277,-0.4253,-0.3376,-0.3135,-0.3347,-0.395,-0.4355,-0.4711,0.0,0.0,0.0,0.0,0.0,0.0,0.0,0.0,0.0,-1.0603,-1.0989,-1.1417,-1.191,-1.233,-1.2712,-1.3046,-1.3166,-1.3546,0.0,0.0,-1.516,-1.5567,-1.5898,-1.6277,-1.6647,-1.7129,-1.7269,-1.7123,-1.7354,-1.7392,-1.7245,-1.7579,-1.7706,-1.7784,-1.7998,-1.8027,-1.7929,-1.7444,-1.7004,-1.6682,-1.566,-1.4628,-1.3626,-1.2644,-1.2112,-1.1748,-1.0905,-1.0457,-1.0208,-0.9889,-0.942,-0.8975,-0.8868,0.0,0.0,0.0,0.0,0.0,0.0,0.0,0.0,0.0,0.0,0.0,0.0,0.0,0.0,0.0,0.0,0.0,0.0,0.0,0.0,-0.6773,-0.6641,-0.6602,-0.6666,-0.6757,-0.7025,-0.7556,-0.7785,-0.8111,-0.8465,-0.8667,-0.8868,-0.9056,-0.9172,-0.9131,-0.8999,-0.8911,-0.874,-0.8568,-0.838,-0.8113,-0.794,-0.7629,-0.719,-0.6704,0.0,0.0,-0.5766,-0.5339,-0.5117,-0.4946,-0.4701,-0.4782,-0.4946,-0.4946,-0.5199,-0.561,-0.4717,-0.4637,-0.5042,-0.5523,-0.5725,-0.588,0.0,0.0,0.0,0.0,0.0,0.0,0.0,0.0,0.0,0.0,-1.0733,-1.1101,-1.1798,-1.2101,-1.2338,-1.2745,-1.3119,0.0,0.0,-1.451,-1.5014,-1.561,-1.5834,-1.6235,-1.6868,-1.7083,-1.7116,-1.7038,-1.7116,-1.7116,-1.7038,-1.7451,-1.7588,-1.7588,-1.7872,-1.8008,-1.7998,-1.7562,-1.7226,-1.6807,-1.5982,-1.5161,-1.4287,-1.3253,-1.2438,-1.1842,-1.1311,-1.0956,-1.0656,-1.0343,-0.9915,-0.9486,-0.9343,-0.8937,-0.844,0.0,0.0,0.0,0.0,0.0,0.0,0.0,0.0,0.0,0.0,0.0,0.0,0.0,0.0,-0.6665,0.0,0.0,-0.6409,-0.6421,-0.6168,-0.6054,-0.6165,-0.618,-0.6403,-0.7116,-0.7431,-0.7794,-0.8091,-0.8504,-0.8756,-0.8856,-0.9057,-0.8999,-0.8911,-0.8828,-0.8652,-0.8384,-0.8288,-0.8025,-0.7672,-0.7584,-0.7234,-0.6795,-0.6707,-0.6407,-0.6165,-0.5897,-0.5773,-0.5714,-0.5631,-0.5628,-0.58,-0.5889,-0.6233,-0.6576,-0.6233,-0.6189,-0.6342,-0.6503,-0.673,-0.7001,0.0,0.0,0.0,0.0,0.0,0.0,0.0,0.0,0.0,0.0,0.0,-1.0699,-1.1452,-1.1602,-1.1865,0.0,0.0,0.0,0.0,-1.4216,-1.4805,-1.5606,-1.5707,-1.6103,-1.678,-1.6872,-1.6908,-1.6908,-1.6968,-1.6968,-1.6978,-1.7392,-1.7529,-1.7529,-1.7872,-1.8008,-1.8008,-1.7794,-1.7398,-1.693,-1.6234,-1.5578,-1.4934,-1.3942,-1.2932,-1.1989,-1.1814,-1.1498,-1.1124,-1.0922,-1.0523,-1.014,-0.9852,-0.9309,-0.8688,-0.8495,-0.8249,0.0,0.0,0.0,0.0,0.0,0.0,0.0,0.0,0.0,-0.6537,-0.6691,-0.6588,-0.6516,-0.6662,-0.6457,-0.6197,-0.5914,-0.5761,-0.5613,-0.5619,-0.5644,-0.5924,-0.6626,-0.7103,-0.7434,-0.7773,-0.8212,-0.8608,-0.8828,-0.8818,-0.8736,-0.8736,-0.8564,-0.8384,-0.8113,-0.8113,-0.7845,-0.7492,-0.7411,-0.7238,-0.6881,-0.6792,-0.6707,-0.6536,-0.6523,-0.652,-0.6517,-0.6605,-0.6605,-0.6605,-0.6881,-0.7146,-0.7316,-0.7577,-0.7598,-0.7453,-0.737,-0.7685,-0.8081,0.0,0.0,0.0,0.0,0.0,0.0,0.0,0.0,0.0,0.0,0.0,0.0,0.0,0.0,0.0,0.0,0.0,0.0,-1.3496,-1.4017,-1.4615,-1.5315,-1.5696,-1.6039,-1.6376,-1.6725,-1.6908,-1.6908,-1.7107,-1.7166,-1.7166,-1.751,-1.7706,-1.7716,-1.7862,-1.8008,-1.8008,-1.7676,-1.751,-1.7328,-1.6197,-1.5597,-1.5341,-1.4493,-1.3575,-1.267,-1.2343,-1.1912,-1.1418,-1.1276,-1.1049,-1.0762,-1.0458,-1.0061,-0.9548,-0.9076,0.0,-0.8405,-0.7887,-0.7433,-0.7146,-0.696,-0.6622,-0.6444,0.0,0.0,-0.6431,-0.6501,-0.6527,-0.6418,-0.62,-0.6262,-0.6113,-0.5603,-0.5796,-0.5845,-0.5501,-0.5533,-0.569,-0.6015,-0.6416,-0.7006,-0.764,-0.7765,-0.8078,-0.8595,-0.8368,-0.8288,-0.8288,-0.8116,-0.7944,-0.794,-0.768,-0.7591,-0.7503,-0.7234,-0.7139,-0.7051,-0.6881,-0.6884,-0.6979,-0.6795,-0.6881,-0.7051,-0.7312,-0.7401,-0.7401,-0.7672,-0.794,-0.8113,-0.8372,-0.8528,-0.8674,-0.8491,-0.8644,-0.8869,0.0,0.0,0.0,0.0,0.0,0.0,0.0,0.0,0.0,0.0,0.0,0.0,0.0,0.0,0.0,0.0,0.0,0.0,-1.3113,-1.3866,-1.4544,-1.5018,-1.5501,-1.5914,-1.6225,-1.6626,-1.6831,-1.6831,-1.7201,-1.7392,-1.7392,-1.7579,-1.7706,-1.7706,-1.793,-1.8008,-1.8008,-1.7725,-1.7455,-1.7063,-1.6197,-1.5624,-1.5223,-1.4708,-1.3983,-1.3159,-1.2824,-1.2357,0.0,0.0,-1.1477,-1.1267,-1.0871,-1.0454,-1.0056,-0.9606,-0.922,0.0,-0.8254,-0.7866,0.0,0.0,-0.7059,-0.687,-0.6633,-0.6604,-0.6643,-0.6547,-0.6406,-0.6274,-0.627,-0.6051,-0.5747,0.0,-0.5453,-0.5382,-0.5158,-0.5295,-0.5485,-0.5712,-0.6022,-0.653,-0.7244,-0.7525,-0.7835,-0.8185,-0.8204,-0.8113,-0.8028,-0.794,-0.7897,-0.7811,-0.7635,-0.759,-0.7594,-0.7407,-0.7377,-0.741,-0.7471,-0.753,-0.7581,-0.7707,-0.7738,-0.7865,-0.7956,-0.8065,-0.8036,-0.8308,-0.8492,-0.8761,-0.902,-0.9376,-0.9634,-0.9174,-0.9113,-0.942,0.0,0.0,0.0,0.0,0.0,0.0,0.0,0.0,0.0,0.0,0.0,0.0,0.0,0.0,0.0,0.0,0.0,0.0,0.0,-1.3597,-1.4344,-1.4869,-1.5298,0.0,-1.6113,-1.6512,-1.6656,-1.6656,-1.7035,-1.7244,-1.7358,-1.7552,-1.7678,-1.7784,-1.794,-1.7949,-1.7832,-1.761,-1.7245,-1.6712,-1.6028,-1.5557,-1.5179,-1.4814,-1.4269,-1.3612,-1.3322,-1.2807,0.0,0.0,-1.1877,-1.1769,-1.1217,-1.0812,-1.0454,-0.9976,-0.9465,-0.8949,-0.848,0.0,0.0,-0.7417,-0.7263,-0.7145,-0.6678,-0.6666,-0.6673,-0.6559,-0.6311,-0.6129,-0.626,-0.5859,-0.554,-0.5431,-0.5297,-0.5138,-0.5004,-0.5098,-0.5332,-0.5559,-0.5743,-0.6255,-0.7001,-0.7443,-0.7666,-0.7918,-0.8028,-0.8028,-0.7768,-0.7808,-0.7706,-0.7636,-0.7682,-0.7667,-0.7597,-0.76,-0.7657,-0.7674,-0.7865,-0.8048,-0.8211,-0.8513,-0.8718,-0.883,-0.8798,-0.8786,-0.8812,-0.8995,-0.9182,-0.937,-0.9634,-0.9901,-1.0164,-0.978,-0.9748,-0.9916,0.0,0.0,0.0,0.0,0.0,0.0,0.0,0.0,0.0,0.0,0.0,0.0,0.0,0.0,0.0,0.0,0.0,0.0,0.0,-1.32,-1.3926,-1.4766,-1.5205,-1.5585,-1.6033,-1.6254,-1.6402,-1.6402,-1.6421,-1.6641,-1.711,-1.7327,-1.7617,-1.8008,-1.8008,-1.7783,-1.7402,-1.7176,-1.686,-1.6373,-1.5589,-1.542,-1.5538,-1.4934,-1.4431,-1.4077,-1.3917,0.0,0.0,0.0,-1.2382,-1.2175,-1.1669,-1.1226,0.0,-1.0154,-0.9361,0.0,0.0,0.0,-0.7599,-0.744,-0.7095,-0.6787,-0.6782,-0.6573,-0.64,-0.6404,-0.6286,-0.6141,-0.5954,-0.5873,-0.5653,-0.53,-0.5225,-0.524,-0.5015,-0.5018,-0.5174,-0.5559,-0.5747,-0.6202,0.0,-0.7281,-0.7586,-0.7918,-0.7944,-0.7768,-0.7507,-0.7469,-0.7458,-0.7373,-0.7516,-0.7594,-0.76,-0.76,-0.7691,-0.7966,-0.797,-0.8207,-0.8691,-0.9254,-0.963,-0.9806,-0.9881,-0.9828,-0.982,-0.982,-0.9912,-0.9917,-1.0098,-1.0186,-1.0186,-1.0463,-1.0567,-1.0558,0.0,0.0,0.0,0.0,0.0,0.0,0.0,0.0,0.0,0.0,0.0,0.0,0.0,0.0,0.0,0.0,0.0,0.0,0.0,-1.29,-1.3501,-1.4188,-1.4562,-1.4859,-1.5018,-1.5683,-1.6049,-1.6049,-1.6631,-1.6987,-1.7199,-1.7135,-1.7214,-1.7352,-1.7223,-1.708,-1.6953,-1.6879,-1.65,-1.5961,-1.5704,-1.5486,-1.5191,-1.4811,-1.4463,-1.4102,0.0,0.0,0.0,0.0,0.0,0.0,-1.1927,0.0,0.0,-1.0035,-0.9263,-0.8639,-0.8275,0.0,-0.7553,-0.7327,-0.7151,-0.6926,-0.6741,-0.6641,-0.6586,-0.6456,-0.6179,-0.5954,-0.5892,-0.5599,-0.5369,-0.5228,-0.5156,-0.5093,-0.5018,-0.5018,-0.5174,-0.5559,-0.5778,0.0,0.0,0.0,0.0,-0.7837,-0.8028,-0.7986,-0.7649,-0.7612,-0.7643,-0.7655,-0.7712,-0.7787,-0.7889,-0.8084,-0.8181,-0.8275,-0.88,-0.9209,-0.96,-0.9888,-1.0175,-1.0259,-1.0219,-1.0342,-1.0462,-1.0462,-1.0571,-1.0888,-1.0797,-1.0806,-1.1011,-1.0802,-1.0829,-1.0802,0.0,0.0,0.0,0.0,0.0,0.0,0.0,0.0,0.0,0.0,0.0,0.0,0.0,0.0,0.0,0.0,0.0,0.0,0.0,0.0,-1.301,-1.3749,-1.4104,-1.4409,-1.4787,-1.5359,-1.5599,-1.5599,-1.6062,-1.6367,-1.6587,-1.6557,-1.6656,-1.6743,-1.6786,-1.6703,-1.6494,-1.6494,-1.6091,-1.5438,-1.5379,-1.5119,-1.4725,-1.4593,-1.4385,0.0,0.0,0.0,0.0,0.0,0.0,0.0,0.0,-1.1469,-1.071,-0.9873,-0.9204,-0.8639,-0.8209,-0.7877,-0.7564,-0.7276,-0.7133,-0.6949,-0.6753,-0.6655,-0.6548,-0.6416,-0.6152,-0.5888,-0.5888,-0.549,-0.5173,-0.5219,-0.5044,-0.4966,-0.5012,-0.5018,-0.5188,-0.5623,-0.5925,-0.6394,0.0,0.0,0.0,-0.7937,-0.8113,-0.8097,-0.7815,-0.7872,-0.793,-0.8097,-0.8153,-0.8231,-0.8333,-0.8432,-0.863,-0.8832,-0.9426,-0.992,-1.0314,-1.0507,-1.0605,-1.0694,-1.0766,-1.0838,-1.0959,-1.1026,-1.1165,-1.139,-1.1191,-1.12,-1.1209,-1.0988,-1.0937,-1.0937,0.0,0.0,0.0,0.0,0.0,0.0,0.0,0.0,0.0,0.0,0.0,0.0,0.0,0.0,0.0,0.0,0.0,0.0,0.0,0.0,0.0,-1.3507,-1.369,-1.4216,-1.5224,-1.5132,-1.5049,-1.507,-1.4799,-1.4938,-1.5395,-1.5709,-1.6006,-1.6227,-1.6654,-1.6542,-1.6027,-1.6027,-1.5498,-1.4746,-1.4634,-1.4447,-1.4301,-1.4271,0.0,0.0,0.0,0.0,0.0,0.0,0.0,0.0,0.0,0.0,-1.0095,-0.9718,-0.9093,-0.8461,-0.8037,-0.7818,-0.7612,-0.7374,-0.7091,-0.6881,-0.6881,-0.6618,-0.642,-0.642,-0.6152,-0.5892,0.0,0.0,-0.5078,-0.5206,-0.4973,-0.4876,-0.4999,-0.5018,-0.5216,0.0,0.0,0.0,0.0,0.0,0.0,-0.794,0.0,-0.8193,-0.8106,-0.8258,-0.8419,-0.8598,-0.8747,-0.8825,-0.8825,-0.8825,-0.9126,-0.9628,-0.992,-1.0314,-1.0801,-1.0806,-1.0998,-1.1208,-1.1425,-1.1524,-1.1548,-1.1751,-1.1634,-1.1435,-1.1435,-1.1227,-1.0911,-1.0911,-1.0911,-1.0893,0.0,0.0,0.0,0.0,0.0,0.0,0.0,0.0,0.0,0.0,0.0,0.0,0.0,0.0,0.0,0.0,0.0,0.0,0.0,0.0,0.0,0.0,0.0,0.0,0.0,0.0,0.0,0.0,0.0,-1.4933,-1.5236,-1.5244,-1.5131,0.0,-1.5024,-1.4848,-1.4629,-1.4629,-1.4502,-1.4297,0.0,-1.4399,-1.443,0.0,0.0,0.0,0.0,0.0,0.0,0.0,0.0,0.0,0.0,0.0,-0.9947,-0.9472,-0.889,-0.8368,-0.7883,-0.7655,-0.7504,-0.7315,-0.7216,-0.7073,-0.6946,-0.6745,-0.6613,-0.6416,-0.6284,-0.6083,0.0,0.0,0.0,-0.5206,-0.512,0.0,-0.4999,-0.5093,0.0,0.0,0.0,-0.6923,-0.7499,-0.8182,0.0,0.0,-0.856,-0.8609,-0.8733,-0.8687,-0.8657,-0.8758,-0.8803,-0.8825,-0.8825,-0.9225,-0.9525,-0.992,-1.0413,-1.0703,-1.0806,-1.0998,-1.11,-1.1208,-1.1425,-1.1605,-1.1756,-1.1759,-1.1722,-1.185,-1.1311,-1.1095,-1.0983,-1.077,-1.077,-1.075,0.0,0.0,0.0,0.0,0.0,0.0,0.0,0.0,0.0,0.0,0.0,0.0,0.0,0.0,0.0,0.0,0.0,0.0,0.0,0.0,0.0,0.0,0.0,0.0,0.0,0.0,0.0,0.0,0.0,0.0,0.0,-1.4101,-1.3949,-1.3721,-1.3949,-1.3962,-1.3877,0.0,0.0,0.0,0.0,0.0,0.0,0.0,0.0,0.0,0.0,0.0,0.0,0.0,0.0,-1.1769,-1.1023,-1.0352,-0.9732,-0.9263,0.0,-0.8103,-0.7777,-0.7604,-0.7444,-0.7315,-0.7279,-0.7138,-0.7073,-0.6876,-0.6745,-0.6548,-0.6416,0.0,0.0,0.0,0.0,0.0,0.0,0.0,-0.5143,-0.5243,-0.5466,0.0,-0.6483,0.0,-0.7771,-0.8412,-0.8823,0.0,-0.9071,-0.9161,-0.9355,-0.9345,-0.9324,-0.9509,-0.9517,-0.9517,-0.9517,-0.9821,-1.0117,-1.0314,-1.0708,-1.09,-1.0998,-1.1096,-1.1246,-1.135,0.0,-1.1559,-1.1764,-1.1652,-1.1688,-1.1568,-1.1236,-1.1021,-1.0911,-1.0582,-1.0472,-1.046,0.0,0.0,0.0,0.0,0.0,0.0,0.0,0.0,0.0,0.0,0.0,0.0,0.0,0.0,0.0,0.0,0.0,0.0,0.0,0.0,0.0,0.0,0.0,0.0,0.0,0.0,0.0,0.0,0.0,0.0,0.0,0.0,0.0,0.0,0.0,0.0,0.0,0.0,0.0,0.0,0.0,0.0,0.0,0.0,0.0,0.0,0.0,0.0,0.0,0.0,-1.2178,-1.1728,-1.0871,-1.0138,-0.9458,-0.9054,-0.8427,-0.7842,-0.7729,-0.7577,-0.7398,-0.7274,-0.7216,-0.7122,-0.7122,-0.6997,-0.6802,-0.6668,0.0,0.0,-0.6179,0.0,-0.5518,-0.5728,0.0,-0.5026,-0.5263,-0.5386,-0.5574,-0.6086,-0.6781,-0.7403,-0.8165,-0.8656,-0.9108,-0.9643,-0.9736,-0.9744,-0.9824,-1.0009,-1.0202,-1.0404,-1.0439,-1.0452,-1.0452,-1.0474,-1.0686,-1.0883,-1.0883,-1.1081,-1.1279,-1.1279,-1.1383,-1.1466,-1.1461,-1.1549,-1.1625,-1.1598,-1.135,-1.1131,-1.1046,-1.0835,-1.0622,-1.0426,-1.0323,-1.0212,0.0,0.0,0.0,0.0,0.0,0.0,0.0,0.0,0.0,0.0,-0.9168,-0.9643,0.0,0.0,0.0,0.0,0.0,0.0,0.0,0.0,0.0,0.0,0.0,0.0,0.0,0.0,0.0,0.0,0.0,0.0,0.0,0.0,0.0,0.0,0.0,0.0,0.0,0.0,0.0,0.0,0.0,0.0,0.0,0.0,0.0,0.0,0.0,0.0,0.0,0.0,-1.1743,-1.1427,-1.0557,-0.9836,-0.9204,-0.8784,-0.8203,-0.7723,-0.7568,-0.7295,-0.7109,-0.7052,-0.6953,-0.6833,-0.6707,-0.6707,0.0,0.0,0.0,-0.6328,-0.6006,-0.5864,0.0,-0.5596,0.0,0.0,0.0,0.0,-0.5969,0.0,0.0,0.0,0.0,0.0,0.0,0.0,0.0,-1.0352,-1.0111,-1.0103,-1.0202,-1.0404,-1.0571,-1.0659,-1.0659,-1.1017,-1.1298,-1.1298,-1.1504,-1.1606,-1.1709,-1.1709,-1.1625,-1.1465,-1.1572,0.0,-1.1411,-1.1272,-1.1126,-1.1034,-1.0747,-1.0583,-1.049,-1.0398,-1.0333,-1.0333,0.0,0.0,0.0,0.0,0.0,0.0,0.0,-0.8158,-0.8696,-0.8789,-0.9534,-1.001,-0.9902,-1.0088,-1.0283,0.0,0.0,0.0,0.0,0.0,0.0,0.0,0.0,0.0,0.0,0.0,0.0,0.0,0.0,0.0,0.0,0.0,0.0,0.0,0.0,0.0,0.0,0.0,0.0,0.0,0.0,0.0,0.0,0.0,0.0,0.0,0.0,0.0,0.0,0.0,-1.1266,-1.0936,-1.0273,-0.9621,-0.9008,-0.8633,-0.8043,-0.7568,-0.7521,-0.7262,-0.6996,-0.6996,-0.6871,-0.6791,-0.6727,0.0,0.0,0.0,0.0,-0.6352,-0.6199,0.0,0.0,0.0,0.0,0.0,0.0,0.0,0.0,0.0,0.0,0.0,0.0,0.0,0.0,0.0,0.0,-1.0622,-1.0547,-1.0748,-1.0861,-1.0961,-1.1162,-1.1266,-1.1266,-1.1461,-1.161,-1.161,-1.1714,-1.1817,-1.1817,-1.1817,-1.1671,-1.1572,-1.146,-1.1344,-1.1225,-1.0988,-1.0859,-1.0731,-1.0595,-1.0459,-1.0425,-1.0159,-1.0069,-1.0073,0.0,0.0,0.0,0.0,0.0,0.0,0.0,-0.8415,-0.9014,-0.9072,-0.9856,-1.038,-1.0235,-1.0312,-1.0399,0.0,0.0,0.0,0.0,0.0,0.0,0.0,0.0,0.0,0.0,0.0,0.0,0.0,0.0,0.0,0.0,0.0,0.0,0.0,0.0,0.0,0.0,0.0,0.0,0.0,0.0,0.0,0.0,0.0,0.0,0.0,0.0,0.0,0.0,0.0,-1.0786,-1.0418,-1.0,-0.9459,-0.8903,-0.8527,-0.7996,-0.7521,-0.7521,-0.723,-0.6977,-0.692,-0.6827,-0.6719,-0.666,-0.666,0.0,0.0,-0.6393,-0.6371,-0.6311,0.0,0.0,0.0,0.0,0.0,0.0,0.0,0.0,0.0,0.0,0.0,0.0,0.0,0.0,0.0,0.0,-1.0778,-1.0953,-1.1312,-1.152,-1.152,-1.1756,-1.1888,-1.1888,-1.1931,-1.195,-1.195,-1.195,-1.195,-1.195,-1.1845,-1.1728,-1.167,-1.1349,-1.1108,-1.1021,-1.0692,-1.058,-1.0521,-1.0443,-1.033,-1.0244,-0.9927,-0.9824,-0.9824,0.0,0.0,0.0,0.0,0.0,0.0,0.0,-0.866,-0.9265,-0.9265,-1.0039,-1.0582,-1.0544,-1.0582,-1.0459,0.0,0.0,0.0,0.0,0.0,0.0,0.0,0.0,0.0,0.0,0.0,0.0,0.0,0.0,0.0,0.0,0.0,0.0,0.0,0.0,0.0,0.0,0.0,0.0,0.0,0.0,0.0,0.0,0.0,0.0,0.0,0.0,0.0,0.0,0.0,0.0,-1.0002,-0.9665,-0.9191,-0.8752,-0.848,0.0,0.0,-0.7521,-0.7214,-0.6856,-0.6737,-0.6589,-0.6389,-0.6289,0.0,0.0,0.0,-0.6205,-0.6285,-0.6173,-0.6096,0.0,0.0,0.0,0.0,0.0,0.0,0.0,0.0,0.0,0.0,0.0,0.0,0.0,0.0,0.0,-1.1146,-1.1165,-1.1392,-1.152,-1.152,-1.1902,-1.211,-1.211,-1.229,-1.238,-1.238,-1.238,-1.238,-1.238,-1.2054,-1.1851,-1.1542,-1.1214,-1.1004,0.0,-1.0472,-1.0358,-1.042,-0.9996,-0.9916,-0.9958,-0.9851,-0.9781,-0.9781,0.0,0.0,0.0,0.0,0.0,0.0,-0.8138,-0.8715,-0.9222,-0.9568,-1.0162,-1.0635,-1.0916,-1.0698,-1.0459,-1.0211,0.0,0.0,0.0,0.0,0.0,0.0,0.0,0.0,0.0,0.0,0.0,0.0,0.0,0.0,0.0,0.0,0.0,0.0,0.0,0.0,0.0,0.0,0.0,0.0,0.0,0.0,0.0,0.0,0.0,0.0,0.0,0.0,0.0,0.0,0.0,0.0,-0.902,-0.8645,0.0,0.0,-0.8049,-0.7622,-0.7521,-0.7198,-0.6879,-0.682,-0.6603,-0.6386,-0.6332,0.0,0.0,-0.6119,-0.6128,-0.6131,-0.6093,-0.6104,-0.6104,-0.6033,0.0,0.0,0.0,0.0,0.0,0.0,0.0,0.0,0.0,0.0,0.0,0.0,0.0,-1.1269,-1.1339,-1.1605,-1.1756,-1.1888,-1.2172,-1.2318,-1.2318,-1.2398,-1.2441,-1.2441,-1.2441,-1.2441,-1.2436,-1.2114,-1.1896,-1.1568,-1.1236,-1.0911,0.0,-1.0363,-1.0304,-1.033,-0.9932,-0.9877,-0.9861,-0.9559,-0.9457,-0.9457,0.0,0.0,0.0,0.0,0.0,-0.8329,-0.8375,-0.8778,-0.9233,-0.9595,-1.0043,-1.0425,-1.0765,-1.0499,-1.0209,-0.9911,-0.9764,0.0,0.0,0.0,0.0,0.0,0.0,0.0,0.0,0.0,-0.9259,-0.9162,-0.8866,0.0,0.0,0.0,0.0,0.0,0.0,0.0,0.0,0.0,0.0,0.0,0.0,0.0,0.0,0.0,0.0,0.0,0.0,0.0,0.0,0.0,0.0,0.0,0.0,0.0,0.0,0.0,-0.7979,-0.7629,-0.7551,-0.7252,-0.6987,-0.6933,-0.6717,-0.6549,0.0,0.0,0.0,-0.6282,-0.6173,-0.6069,-0.6155,-0.6171,-0.6124,-0.6061,0.0,-0.6409,0.0,0.0,0.0,0.0,0.0,0.0,0.0,0.0,0.0,0.0,0.0,-1.1335,-1.1555,-1.1765,-1.1917,-1.2134,-1.2332,-1.2441,-1.2441,-1.2441,-1.2441,-1.2441,-1.2441,-1.2441,-1.2436,-1.2005,-1.1787,-1.1568,-1.1126,-1.0802,0.0,-1.0311,-1.0164,-1.0077,-0.9895,-0.9717,-0.97,-0.9457,-0.9335,-0.9217,0.0,0.0,0.0,0.0,0.0,0.0,-0.8589,-0.9014,-0.9269,-0.9219,-0.9616,-0.9863,-0.9818,-0.9874,-0.9713,-0.9242,-0.9199,0.0,0.0,0.0,0.0,0.0,0.0,0.0,0.0,0.0,-0.9232,-0.9092,-0.8839,-0.8561,-0.829,0.0,0.0,0.0,0.0,0.0,0.0,0.0,0.0,0.0,0.0,0.0,0.0,0.0,0.0,0.0,0.0,0.0,0.0,0.0,0.0,0.0,0.0,0.0,0.0,0.0,-0.7841,-0.7497,-0.7505,-0.7419,-0.7209,-0.6987,-0.6879,-0.6874,0.0,0.0,0.0,-0.6381,-0.6277,-0.6239,-0.6278,-0.6298,-0.6311,-0.6375,-0.6371,0.0,0.0,0.0,0.0,0.0,0.0,0.0,0.0,0.0,0.0,0.0,0.0,0.0,-1.1794,-1.1817,-1.1917,-1.2134,-1.2332,-1.2441,-1.2441,-1.2441,-1.2441,-1.2441,-1.2441,-1.2441,-1.2327,-1.1896,-1.1568,-1.1568,-1.0911,-1.0582,0.0,-1.0107,-0.9931,-0.974,-0.9665,-0.9693,-0.97,-0.9457,-0.9335,-0.9217,0.0,0.0,0.0,0.0,0.0,0.0,0.0,-0.908,-0.9237,-0.9515,-0.9652,-0.9855,-1.0048,-0.9817,-0.9524,-0.928,-0.9269,0.0,0.0,0.0,0.0,0.0,0.0,0.0,0.0,0.0,-0.9108,-0.9038,-0.8723,-0.8432,-0.8215,-0.7947,-0.7686,0.0,0.0,0.0,0.0,0.0,0.0,0.0,0.0,0.0,0.0,0.0,0.0,0.0,0.0,0.0,0.0,0.0,0.0,0.0,0.0,0.0,0.0,0.0,0.0,0.0,-0.7246,-0.7108,-0.7037,-0.7047,-0.6982,-0.6879,-0.682,0.0,0.0,-0.6436,-0.6386,-0.6296,-0.6142,-0.6316,-0.6444,-0.6201,-0.6408,0.0,0.0,0.0,0.0,0.0,0.0,0.0,0.0,0.0,0.0,0.0,-1.1217,-1.1534,-1.1803,-1.1954,-1.2134,-1.2337,-1.2408,-1.2441,-1.2441,-1.2441,-1.2441,-1.2441,-1.2441,-1.2441,-1.2327,-1.1787,-1.1568,-1.1568,-1.0911,-1.0692,-1.0488,-1.0107,-1.0045,-1.0088,-0.9783,-0.9696,-0.97,-0.9217,-0.8976,-0.8976,0.0,0.0,0.0,0.0,0.0,0.0,0.0,-0.9255,-0.9333,-0.9523,-0.954,-0.9579,-0.9738,-0.9422,-0.9164,-0.9065,-0.9047,0.0,0.0,0.0,0.0,0.0,0.0,0.0,0.0,-0.9108,-0.8983,-0.8845,-0.8611,-0.8471,-0.8387,-0.8169,-0.7949,-0.7768,-0.7696,0.0,0.0,0.0,0.0,0.0,0.0,0.0,-0.9403,0.0,0.0,0.0,0.0,0.0,0.0,0.0,0.0,0.0,0.0,0.0,0.0,0.0,-0.7,0.0,0.0,-0.6945,-0.6901,-0.6943,-0.6903,0.0,0.0,0.0,0.0,0.0,-0.6436,-0.6327,-0.6114,-0.6391,-0.6542,-0.6302,-0.6561,0.0,0.0,0.0,0.0,0.0,0.0,0.0,0.0,0.0,0.0,0.0,-1.1623,-1.189,-1.2045,-1.2292,-1.2535,-1.2767,-1.2663,-1.2659,-1.2767,-1.2659,-1.255,-1.255,-1.2521,-1.2564,-1.2569,-1.1975,-1.1784,-1.1784,-1.1114,-1.0779,0.0,-1.0296,-1.0192,-1.0179,-0.9867,-0.9744,-0.97,-0.9217,-0.8976,-0.8854,0.0,0.0,0.0,0.0,0.0,0.0,0.0,-0.9511,-0.9485,-0.9339,-0.9259,-0.9162,-0.9038,-0.885,-0.8717,-0.869,0.0,0.0,0.0,0.0,0.0,0.0,0.0,0.0,-0.9081,-0.901,-0.8845,-0.86,-0.8559,-0.8592,-0.8683,-0.8578,-0.843,-0.8252,-0.8198,-0.7947,0.0,0.0,0.0,0.0,0.0,0.0,0.0,0.0,0.0,0.0,0.0,0.0,0.0,0.0,0.0,0.0,0.0,0.0,0.0,0.0,0.0,0.0,0.0,0.0,0.0,0.0,0.0,0.0,0.0,0.0,0.0,0.0,0.0,0.0,0.0,-0.6462,-0.6607,-0.662,-0.6777,0.0,0.0,0.0,0.0,0.0,0.0,0.0,0.0,0.0,0.0,0.0,-1.2218,-1.2385,-1.2577,-1.2868,-1.3158,-1.333,-1.3108,-1.3098,-1.3315,-1.3098,-1.2886,-1.2905,-1.2894,-1.2883,-1.2795,-1.2293,-1.2139,0.0,-1.145,-1.1109,-1.0778,-1.0601,-1.0317,-1.0098,-0.9885,-0.9822,-0.97,-0.9457,-0.9095,-0.8854,0.0,0.0,0.0,0.0,0.0,0.0,0.0,0.0,0.0,0.0,-0.9511,-0.9351,-0.9162,-0.9054,-0.8933,0.0,0.0,0.0,0.0,0.0,0.0,0.0,0.0,0.0,-0.8784,-0.8739,-0.8628,-0.8527,-0.8677,-0.8725,-0.8693,-0.8888,-0.8881,-0.8723,-0.8723,-0.845,0.0,0.0,0.0,0.0,0.0,0.0,0.0,0.0,0.0,0.0,-0.8117,-0.8117,0.0,0.0,0.0,0.0,0.0,0.0,0.0,0.0,-0.6459,-0.6355,-0.6035,0.0,-0.6363,-0.6461,-0.6606,-0.67,0.0,0.0,0.0,0.0,0.0,0.0,0.0,0.0,0.0,0.0,0.0,0.0,0.0,0.0,0.0,0.0,0.0,0.0,0.0,0.0,0.0,0.0,-1.2446,-1.2648,-1.2939,-1.3082,-1.3357,-1.3645,-1.3537,-1.3423,-1.3315,-1.3207,-1.3178,-1.3116,-1.3058,-1.3062,-1.2999,-1.2351,-1.2139,-1.2029,-1.145,-1.1109,-1.1121,-1.0719,-1.0436,-1.0332,-1.0006,-0.9822,-0.97,-0.9457,-0.9217,-0.9217,0.0,0.0,0.0,0.0,0.0,0.0,0.0,0.0,0.0,0.0,0.0,0.0,0.0,0.0,0.0,0.0,0.0,0.0,0.0,0.0,0.0,0.0,0.0,-0.8728,-0.8645,-0.8561,-0.8556,-0.8645,-0.8735,-0.895,-0.9224,-0.9353,-0.9357,-0.9227,-0.9033,-0.866,0.0,0.0,0.0,0.0,-0.7656,0.0,0.0,0.0,0.0,0.0,-0.7543,-0.7581,0.0,-0.7558,-0.7467,-0.7368,0.0,0.0,0.0,0.0,-0.6239,-0.6024,-0.5766,-0.582,-0.5972,-0.607,-0.6206,-0.6404,0.0,0.0,0.0,0.0,0.0,0.0,0.0,0.0,0.0,0.0,0.0,0.0,0.0,0.0,0.0,0.0,0.0,0.0,0.0,0.0,0.0,0.0,-1.2929,-1.3148,-1.3336,-1.3607,-1.3753,-1.3975,-1.3993,-1.3957,-1.3842,-1.3701,-1.3578,-1.3575,-1.3557,-1.3441,-1.3216,-1.2839,-1.2525,-1.2407,-1.182,-1.1589,-1.1484,-1.0982,-1.0782,-1.055,-1.0151,-0.994,-0.9819,-0.9579,-0.9457,-0.9339,0.0,0.0,0.0,0.0,0.0,0.0,0.0,0.0,0.0,0.0,0.0,0.0,0.0,0.0,0.0,0.0,0.0,0.0,0.0,0.0,0.0,0.0,0.0,-0.8572,-0.8544,-0.8485,-0.8574,-0.8756,-0.89,-0.9251,-0.9784,-0.9853,-0.981,-0.967,-0.9252,-0.8819,0.0,0.0,0.0,0.0,-0.7518,0.0,0.0,0.0,0.0,0.0,0.0,0.0,0.0,-0.6881,-0.6983,-0.7117,-0.6832,0.0,0.0,0.0,0.0,0.0,-0.5636,-0.5593,-0.5602,-0.5647,-0.5834,-0.6056,-0.6273,0.0,0.0,0.0,0.0,0.0,0.0,0.0,0.0,0.0,0.0,0.0,0.0,0.0,0.0,0.0,0.0,0.0,0.0,0.0,0.0,-1.323,-1.3491,-1.3811,-1.3986,-1.4152,-1.4304,-1.4304,-1.4476,-1.4542,-1.4596,-1.4293,-1.4147,-1.4157,-1.3988,-1.3864,-1.356,-1.3251,-1.2964,-1.2719,-1.2359,0.0,-1.1776,-1.1398,-1.1152,-1.0789,-1.0425,-1.0061,-0.9822,-0.9822,-0.9579,-0.9335,0.0,0.0,0.0,0.0,0.0,0.0,0.0,0.0,0.0,0.0,0.0,0.0,0.0,0.0,0.0,0.0,0.0,0.0,0.0,0.0,0.0,-0.8527,-0.8527,-0.8442,-0.8272,-0.8589,-0.8715,-0.8622,-0.9321,-0.9691,-0.9794,-1.0085,-1.0137,-1.0002,-0.9589,-0.9331,-0.9073,-0.8399,-0.8058,-0.7973,-0.7622,0.0,0.0,0.0,0.0,0.0,0.0,0.0,0.0,-0.6823,-0.6768,-0.6652,-0.682,0.0,0.0,0.0,0.0,0.0,-0.5371,-0.5198,-0.5208,-0.555,-0.5828,-0.6056,-0.6273,0.0,0.0,0.0,0.0,0.0,0.0,0.0,0.0,0.0,0.0,0.0,0.0,0.0,0.0,0.0,0.0,0.0,0.0,0.0,0.0,-1.41,-1.4361,-1.4616,-1.4843,-1.4798,-1.473,-1.4542,-1.4773,-1.4937,-1.4791,-1.4783,-1.4722,-1.4613,-1.4412,-1.4177,-1.4009,-1.3435,-1.2964,-1.2719,0.0,-1.2005,-1.1776,-1.1398,-1.1152,-1.0789,-1.0425,-1.0061,-0.9822,-0.9822,-0.9822,-0.97,0.0,0.0,0.0,0.0,0.0,0.0,0.0,0.0,0.0,0.0,0.0,0.0,0.0,0.0,0.0,0.0,0.0,0.0,0.0,0.0,0.0,-0.846,-0.8609,-0.8658,-0.8519,-0.8623,-0.8864,-0.9247,-0.9621,-0.9903,-1.0066,-1.0147,-1.0157,-1.0079,-0.9849,-0.9564,-0.9235,-0.8849,-0.8499,-0.8176,0.0,0.0,0.0,0.0,0.0,0.0,0.0,0.0,0.0,0.0,-0.6819,-0.6625,-0.6546,0.0,0.0,0.0,0.0,0.0,-0.5159,-0.5065,-0.5116,-0.5315,-0.5528,-0.5705,-0.592,0.0,0.0,0.0,0.0,0.0,0.0,0.0,0.0,0.0,0.0,0.0,0.0,0.0,0.0,0.0,0.0,0.0,0.0,0.0,0.0,-1.4253,-1.439,-1.463,-1.5018,-1.5041,-1.4934,-1.4832,-1.5198,-1.5299,-1.5095,-1.5445,-1.5327,-1.4959,-1.4611,-1.4311,-1.4172,-1.3688,-1.3204,-1.2719,0.0,-1.2247,-1.1776,-1.1647,-1.1402,-1.1031,-1.0668,-1.0425,-1.0304,-1.0304,-1.0304,-1.0304,0.0,0.0,0.0,0.0,0.0,0.0,0.0,0.0,0.0,0.0,0.0,0.0,0.0,0.0,0.0,0.0,0.0,0.0,0.0,0.0,-0.8533,-0.841,-0.8721,-0.8839,-0.8756,-0.8802,-0.9144,-0.9711,-0.982,-0.9961,-1.0244,-1.0127,-1.0049,-1.0049,-0.998,-0.9684,-0.9254,-0.9152,-0.883,-0.8353,0.0,0.0,0.0,0.0,0.0,0.0,0.0,0.0,0.0,0.0,0.0,0.0,0.0,0.0,0.0,-0.5717,-0.5458,-0.5241,-0.5029,-0.5001,-0.5063,-0.5118,0.0,-0.5489,-0.5795,0.0,0.0,0.0,0.0,0.0,0.0,0.0,0.0,0.0,0.0,0.0,0.0,0.0,0.0,0.0,0.0,0.0,0.0,0.0,-1.4201,-1.4653,-1.4645,-1.4879,-1.5227,-1.525,-1.5137,-1.5125,-1.5626,-1.5722,-1.539,-1.5893,-1.5839,-1.5235,-1.4883,-1.453,-1.4291,-1.3933,-1.3444,-1.284,-1.2719,-1.2367,-1.1893,-1.1776,-1.1647,-1.1273,-1.1031,-1.0933,-1.0849,-1.0849,-1.0849,-1.0845,0.0,0.0,0.0,0.0,0.0,0.0,0.0,0.0,0.0,0.0,0.0,0.0,0.0,0.0,0.0,0.0,0.0,0.0,0.0,0.0,-0.8533,-0.841,-0.8661,-0.8756,-0.8622,-0.9234,-0.9534,-0.9502,-0.982,-0.9991,-1.0019,-1.0019,-0.9941,-0.9823,-0.9823,-0.9686,-0.9451,-0.9064,-0.8809,-0.8644,-0.822,0.0,0.0,0.0,0.0,0.0,0.0,0.0,0.0,0.0,0.0,0.0,0.0,0.0,-0.5723,-0.5539,-0.5366,-0.5149,-0.4888,-0.4862,-0.4918,-0.5012,-0.5242,0.0,-0.6122,0.0,0.0,0.0,0.0,0.0,0.0,0.0,0.0,0.0,0.0,0.0,0.0,0.0,0.0,0.0,0.0,0.0,0.0,0.0,-1.5493,-1.5783,-1.5741,-1.5916,-1.6205,-1.5998,-1.5684,-1.5482,-1.5969,-1.6014,-1.5795,-1.5954,-1.5963,-1.5596,-1.5235,-1.4883,-1.4535,-1.4296,-1.3808,-1.3204,-1.284,-1.2479,-1.2118,-1.1893,-1.1647,-1.1273,-1.1273,-1.113,-1.1024,-1.1024,-1.1024,-1.1001,0.0,0.0,0.0,0.0,0.0,0.0,0.0,0.0,0.0,0.0,0.0,0.0,0.0,0.0,0.0,0.0,0.0,0.0,0.0,-0.86,-0.8533,-0.841,-0.8942,-0.9144,-0.8905,-0.9336,-0.9627,-0.982,-0.9943,-0.998,-0.998,-0.9902,-0.9823,-0.9753,-0.9634,-0.9506,-0.9368,-0.9208,-0.9106,-0.8963,-0.8587,-0.8474,0.0,0.0,0.0,0.0,0.0,0.0,0.0,0.0,-0.6902,-0.6508,0.0,-0.5938,-0.5636,-0.541,-0.528,-0.5106,-0.4753,-0.4855,-0.507,-0.4992,0.0,0.0,0.0,0.0,0.0,0.0,0.0,0.0,0.0,0.0,0.0,0.0,0.0,0.0,0.0,0.0,0.0,0.0,0.0,0.0,0.0,0.0,-1.5426,-1.5871,-1.591,-1.6059,-1.6505,-1.6418,-1.6311,-1.601,-1.6363,-1.6402,-1.6003,-1.6138,-1.6043,-1.5844,-1.5359,-1.4883,-1.4535,-1.4291,-1.3808,-1.3204,-1.284,-1.2479,-1.2238,-1.1889,-1.1772,-1.1659,-1.1642,-1.1669,-1.1576,-1.1827,-1.1948,-1.2178,0.0,0.0,0.0,0.0,0.0,0.0,0.0,0.0,0.0,0.0,0.0,0.0,0.0,0.0,0.0,0.0,0.0,0.0,-0.86,-0.8572,-0.8516,-0.8365,-0.9046,-0.9298,-0.9028,-0.9379,-0.9696,-0.9941,-0.9862,-0.9823,-0.9832,-0.9695,-0.9625,-0.9585,-0.9466,-0.9377,-0.9288,-0.9288,-0.9208,-0.9079,-0.8789,-0.8762,0.0,0.0,0.0,0.0,0.0,0.0,0.0,0.0,-0.6901,0.0,0.0,0.0,-0.5501,-0.5285,-0.5149,-0.5082,-0.483,-0.5007,-0.5224,0.0,0.0,0.0,0.0,0.0,0.0,0.0,0.0,0.0,0.0,0.0,0.0,0.0,0.0,0.0,0.0,0.0,0.0,0.0,0.0,0.0,0.0,0.0,-1.5796,-1.6267,-1.6205,-1.6356,-1.681,-1.6736,-1.663,-1.6424,-1.6584,-1.6594,-1.6333,-1.6261,-1.6177,-1.6082,-1.5601,-1.5048,-1.4535,-1.4416,-1.3928,-1.3324,-1.284,-1.2599,-1.2359,-1.1893,-1.1809,-1.1878,-1.2109,-1.215,-1.2131,-1.2389,-1.2635,-1.2876,0.0,0.0,0.0,0.0,0.0,0.0,0.0,0.0,0.0,0.0,0.0,0.0,0.0,0.0,0.0,0.0,0.0,0.0,-0.86,-0.8544,-0.8442,-0.8319,-0.8951,-0.913,-0.8799,-0.9441,-0.9783,-0.9783,-0.9594,-0.9484,-0.9484,-0.9368,-0.9319,-0.9279,-0.9279,-0.9248,-0.9177,-0.9177,-0.9065,-0.892,-0.892,-0.8822,-0.8675,0.0,0.0,0.0,0.0,0.0,0.0,0.0,-0.6477,-0.6142,0.0,0.0,0.0,-0.5236,-0.5111,-0.5037,-0.5061,-0.5257,0.0,0.0,0.0,0.0,0.0,0.0,0.0,0.0,0.0,0.0,0.0,0.0,0.0,0.0,0.0,0.0,0.0,0.0,0.0,0.0,0.0,0.0,0.0,0.0,-1.6752,-1.7073,-1.6814,-1.6866,-1.7147,-1.6842,-1.673,-1.673,-1.6686,-1.6727,-1.6727,-1.6327,-1.6136,-1.6051,-1.5814,-1.5365,-1.4655,-1.4655,-1.4291,-1.3688,-1.296,-1.2719,-1.2603,-1.2014,-1.1878,-1.2069,-1.2426,-1.2564,-1.2693,-1.2955,-1.3084,-1.3187,0.0,0.0,0.0,0.0,0.0,0.0,0.0,0.0,0.0,0.0,0.0,0.0,0.0,0.0,0.0,0.0,0.0,0.0,-0.86,-0.8544,-0.8442,-0.8319,-0.8898,-0.9106,-0.8799,-0.9328,-0.9545,-0.9448,-0.9368,-0.9368,-0.9368,-0.9319,-0.9288,-0.9217,-0.9217,-0.9177,-0.9056,-0.9024,-0.8952,-0.8879,-0.8773,-0.8683,-0.8561,0.0,0.0,0.0,0.0,0.0,0.0,0.0,0.0,0.0,0.0,0.0,0.0,-0.5116,-0.5133,-0.5212,-0.5144,0.0,0.0,0.0,0.0,0.0,0.0,0.0,0.0,0.0,0.0,0.0,0.0,0.0,0.0,0.0,0.0,0.0,0.0,0.0,0.0,0.0,0.0,0.0,0.0,0.0,-1.684,-1.7364,-1.7114,-1.7177,-1.7779,-1.7483,-1.7265,-1.7067,-1.6819,-1.6744,-1.6727,-1.6148,-1.587,-1.5892,-1.5557,-1.5087,-1.4655,-1.4655,-1.4291,-1.3688,-1.296,-1.2719,-1.2612,-1.2142,-1.206,-1.2247,-1.2475,-1.2775,-1.3152,-1.3282,-1.367,-1.4047,0.0,0.0,0.0,0.0,0.0,0.0,0.0,0.0,0.0,0.0,0.0,0.0,0.0,0.0,0.0,0.0,0.0,0.0,0.0,-0.846,-0.8358,-0.8215,-0.8834,-0.9125,-0.9059,-0.9292,-0.9337,-0.9168,-0.9248,-0.9248,-0.9248,-0.9208,-0.9255,-0.9379,-0.928,-0.9238,-0.9156,-0.904,-0.8915,-0.8741,-0.8643,-0.8561,-0.8447,0.0,0.0,0.0,0.0,0.0,0.0,0.0,0.0,0.0,0.0,0.0,0.0,-0.5159,-0.5261,-0.5445,-0.5443,0.0,0.0,0.0,0.0,0.0,0.0,0.0,0.0,0.0,0.0,0.0,0.0,0.0,0.0,0.0,0.0,0.0,0.0,0.0,0.0,0.0,0.0,0.0,0.0,0.0,-1.7127,-1.7662,-1.7519,-1.759,-1.7989,-1.7806,-1.7589,-1.7384,-1.6948,-1.6706,-1.6667,-1.6127,-1.5719,-1.5629,-1.5417,-1.5058,-1.4509,-1.4478,-1.4326,-1.3808,-1.3084,-1.2603,-1.2388,-1.216,-1.2207,-1.2333,-1.2709,-1.3135,-1.3371,-1.3761,-1.4015,-1.4403,0.0,0.0,0.0,0.0,0.0,0.0,0.0,0.0,0.0,0.0,0.0,0.0,0.0,0.0,0.0,0.0,0.0,0.0,0.0,0.0,-0.8244,-0.8121,-0.8738,-0.9207,-0.946,-0.9359,-0.9208,-0.9016,-0.9136,-0.9177,-0.9185,-0.9099,-0.9264,-0.9563,-0.9486,-0.9451,-0.9443,-0.9321,-0.8978,-0.8569,-0.8528,-0.8471,-0.8373,-0.825,0.0,0.0,0.0,0.0,0.0,0.0,0.0,0.0,0.0,0.0,-0.5496,-0.5397,-0.556,-0.5831,0.0,0.0,0.0,0.0,0.0,0.0,0.0,0.0,0.0,0.0,0.0,0.0,0.0,0.0,0.0,0.0,0.0,0.0,0.0,0.0,0.0,0.0,0.0,0.0,0.0,0.0,-1.7508,-1.7973,-1.7917,-1.7987,-1.7989,-1.8016,-1.7911,-1.7582,-1.7047,-1.673,-1.673,-1.6205,-1.5689,-1.5372,-1.5372,-1.5066,-1.4421,-1.4315,-1.4197,-1.4052,-1.3084,-1.2367,-1.1801,-1.2142,-1.2284,-1.2443,-1.3068,-1.3464,-1.3447,-1.4115,-1.4367,-1.4479,0.0,0.0,0.0,0.0,0.0,0.0,0.0,0.0,0.0,0.0,0.0,0.0,0.0,0.0,0.0,0.0,0.0,0.0,0.0,0.0,-0.8187,-0.8093,-0.8555,-0.8975,-0.9341,-0.9319,-0.9208,-0.9016,-0.9024,-0.9024,-0.896,-0.9299,-0.947,-0.946,-0.98,-0.9964,-0.9928,-0.9756,-0.9459,-0.9121,-0.8915,-0.8662,-0.8373,-0.8152,-0.7987,0.0,0.0,0.0,0.0,0.0,0.0,0.0,-0.6024,-0.5841,-0.5745,-0.5895,-0.6069,0.0,0.0,0.0,0.0,0.0,0.0,0.0,0.0,0.0,0.0,0.0,0.0,0.0,0.0,0.0,0.0,0.0,0.0,0.0,0.0,0.0,0.0,0.0,0.0,0.0,0.0,0.0,-1.7903,-1.8466,-1.8123,-1.7987,-1.829,-1.8115,-1.7911,-1.7582,-1.7047,-1.673,-1.673,-1.6205,-1.5601,-1.5121,-1.5121,-1.4816,-1.4516,-1.4359,-1.3957,-1.3444,-1.2964,-1.2479,-1.2139,-1.2123,-1.2213,-1.2499,-1.2999,-1.3439,-1.3703,-1.3988,-1.4203,-1.4318,0.0,0.0,0.0,0.0,0.0,0.0,0.0,0.0,0.0,0.0,0.0,0.0,0.0,0.0,0.0,0.0,0.0,0.0,0.0,0.0,-0.8247,-0.8414,-0.857,-0.8857,-0.9301,-0.9319,-0.9208,-0.9016,-0.8984,-0.8996,-0.9132,-0.941,-0.9646,-0.9947,-1.0187,-1.0271,-1.0263,-1.0131,-0.9785,-0.942,-0.9286,-0.9085,-0.8866,-0.8691,-0.8517,-0.8349,-0.8121,0.0,0.0,0.0,0.0,0.0,0.0,0.0,-0.6572,-0.6713,-0.6882,-0.711,0.0,0.0,0.0,0.0,0.0,0.0,0.0,0.0,0.0,0.0,0.0,0.0,0.0,0.0,0.0,0.0,0.0,0.0,0.0,0.0,0.0,0.0,0.0,0.0,0.0,0.0,-1.8006,-1.8671,-1.8313,-1.8182,-1.8373,-1.8318,-1.801,-1.7582,-1.7047,-1.673,-1.673,-1.6205,-1.5678,-1.5261,-1.5041,-1.4733,-1.433,-1.4333,-1.3903,-1.3072,-1.2924,-1.2719,-1.2492,-1.2445,-1.2526,-1.2798,-1.3213,-1.3518,-1.3815,-1.4056,-1.4281,-1.4312,0.0,0.0,0.0,0.0,0.0,0.0,0.0,0.0,0.0,0.0,0.0,0.0,0.0,0.0,0.0,0.0,0.0,0.0,0.0,0.0,0.0,-0.8761,-0.8727,-0.8894,-0.9301,-0.9319,-0.9208,-0.9016,-0.8971,-0.9148,0.0,-0.9493,-0.9863,-1.0488,-1.0595,-1.066,-1.0643,-1.0498,-1.0154,-0.975,-0.975,-0.9608,-0.9444,-0.9368,-0.919,-0.8958,-0.8803,-0.8576,-0.8308,-0.8308,0.0,0.0,0.0,0.0,-0.7583,-0.7634,-0.7813,-0.8005,0.0,0.0,0.0,0.0,0.0,0.0,0.0,0.0,0.0,0.0,0.0,0.0,0.0,0.0,0.0,0.0,0.0,0.0,0.0,0.0,0.0,0.0,0.0,0.0,0.0,0.0,-1.8093,-1.8762,-1.8511,-1.8376,-1.8471,-1.8415,-1.8213,-1.7687,-1.7054,-1.6736,-1.673,-1.6205,-1.5791,-1.5482,-1.5148,-1.4603,-1.4046,-1.4162,-1.381,-1.3039,-1.3122,-1.3084,-1.2733,-1.29,-1.297,-1.311,-1.3554,-1.3733,-1.383,-1.4121,-1.4237,-1.4203,0.0,0.0,0.0,0.0,0.0,0.0,0.0,0.0,0.0,0.0,0.0,0.0,0.0,0.0,0.0,0.0,0.0,0.0,-0.814,0.0,0.0,-0.8687,-0.8983,-0.9197,-0.931,-0.9319,-0.9208,-0.9016,-0.909,0.0,0.0,0.0,0.0,-1.0374,-1.0946,-1.1199,-1.1199,-1.104,-1.078,-1.0379,-1.0235,-1.0007,-0.9744,-0.9552,-0.946,-0.9368,-0.9004,-0.8825,-0.8778,-0.8717,-0.8623,0.0,0.0,0.0,-0.8329,-0.856,-0.8622,0.0,0.0,0.0,0.0,0.0,0.0,0.0,0.0,0.0,0.0,0.0,0.0,0.0,0.0,0.0,0.0,0.0,0.0,0.0,0.0,0.0,0.0,0.0,0.0,0.0,0.0,0.0,-1.8369,-1.8958,-1.8602,-1.8491,-1.8833,-1.8534,-1.822,-1.7911,-1.7384,-1.6955,-1.673,-1.6424,-1.601,-1.5482,-1.4934,-1.4299,-1.3811,-1.3933,-1.3894,-1.3615,-1.3351,-1.3204,-1.3084,-1.2871,-1.2884,-1.3143,-1.3473,-1.3568,-1.3792,-1.3981,-1.3934,-1.3769,0.0,0.0,0.0,0.0,0.0,0.0,0.0,0.0,0.0,0.0,0.0,0.0,0.0,0.0,0.0,-0.8533,-0.8449,-0.8385,-0.8369,-0.8314,-0.8521,-0.9017,-0.9114,-0.9205,-0.931,-0.9319,-0.9208,-0.9016,0.0,0.0,0.0,-1.0166,-1.0468,0.0,0.0,0.0,-1.1593,0.0,0.0,0.0,0.0,-1.1239,-1.1003,-1.0943,-1.084,-1.0788,-1.0589,-1.0486,-1.035,-1.0148,-0.9977,-0.9895,-0.9612,0.0,0.0,0.0,-0.9576,0.0,0.0,0.0,0.0,0.0,0.0,0.0,0.0,0.0,0.0,0.0,0.0,0.0,0.0,0.0,0.0,0.0,0.0,0.0,0.0,0.0,0.0,0.0,0.0,0.0,0.0,0.0,-1.8285,-1.8781,-1.8498,-1.8369,-1.8665,-1.8513,-1.8318,-1.8003,-1.749,-1.706,-1.673,-1.6424,-1.5897,-1.5261,-1.4934,-1.4504,-1.3986,-1.4122,-1.4033,-1.3678,-1.3547,-1.3444,-1.3449,-1.3324,-1.3324,-1.3453,-1.3551,-1.3648,-1.3703,-1.3797,-1.3769,-1.3688,0.0,0.0,0.0,0.0,0.0,0.0,0.0,0.0,0.0,0.0,0.0,0.0,0.0,0.0,0.0,0.0,-0.866,-0.8647,-0.8763,-0.8678,-0.8829,-0.929,-0.9301,-0.9305,-0.9368,-0.9319,-0.9208,-0.9056,0.0,0.0,-0.9964,-1.0426,-1.0896,0.0,-1.137,-1.1627,0.0,0.0,0.0,0.0,0.0,-1.2342,-1.2231,-1.2175,-1.212,-1.2008,-1.2008,-1.1896,-1.1799,-1.1467,-1.1369,-1.1328,-1.091,-1.0713,0.0,0.0,0.0,0.0,0.0,0.0,0.0,0.0,0.0,0.0,0.0,0.0,0.0,0.0,0.0,0.0,0.0,0.0,0.0,0.0,0.0,0.0,0.0,0.0,0.0,0.0,0.0,0.0,0.0,0.0,-1.8232,-1.859,-1.8424,-1.8354,-1.8511,-1.8387,-1.8311,-1.8094,-1.7589,-1.706,-1.673,-1.6318,-1.5791,-1.5041,-1.5041,-1.4724,-1.4213,-1.4351,-1.4101,-1.3779,-1.3745,-1.3808,-1.3688,-1.3688,-1.3688,-1.3688,-1.3688,-1.3688,-1.3688,-1.3688,-1.3688,-1.3688,0.0,0.0,0.0,0.0,0.0,0.0,0.0,0.0,0.0,0.0,0.0,0.0,-0.912,-0.8999,-0.9012,-0.9243,-0.9154,-0.913,-0.9271,-0.9442,-0.9481,-0.9309,-0.9619,0.0,-0.9484,-0.9377,-0.9248,0.0,0.0,0.0,-1.0109,-1.0753,-1.1345,-1.1754,-1.1763,-1.2021,-1.2363,0.0,0.0,0.0,0.0,0.0,-1.2848,-1.2683,-1.2683,-1.2628,-1.2517,-1.2462,-1.2462,-1.2436,-1.2436,-1.2427,-1.241,-1.2143,-1.179,0.0,0.0,0.0,0.0,0.0,0.0,0.0,0.0,0.0,0.0,0.0,0.0,0.0,0.0,0.0,0.0,0.0,0.0,0.0,0.0,0.0,0.0,0.0,0.0,0.0,0.0,0.0,0.0,0.0,-1.8254,-1.8571,-1.8453,-1.8462,-1.8755,-1.8506,-1.8422,-1.8422,-1.7898,-1.7265,-1.673,-1.6205,-1.5571,-1.5041,-1.5041,-1.4724,-1.4213,-1.4351,-1.4329,-1.4355,-1.4222,-1.3933,-1.3688,-1.3688,-1.3688,-1.3688,-1.3688,-1.3688,-1.3688,-1.3688,-1.3688,-1.3688,0.0,0.0,0.0,0.0,0.0,0.0,0.0,0.0,0.0,0.0,0.0,0.0,0.0,-1.0034,-0.992,-0.9932,-0.9702,-0.958,-0.9682,-0.9731,-0.9729,-0.9744,-0.9778,-0.9704,-0.9524,-0.9475,-0.947,0.0,0.0,-1.0266,-1.0476,-1.0987,-1.1549,-1.2184,-1.189,-1.2184,-1.2937,-1.2937,0.0,0.0,0.0,0.0,0.0,0.0,0.0,0.0,0.0,0.0,0.0,-1.4294,-1.3974,-1.3598,-1.3414,-1.2955,-1.2527,-1.2527,-1.2813,-1.3117,0.0,0.0,0.0,0.0,0.0,0.0,0.0,0.0,0.0,0.0,0.0,0.0,0.0,0.0,0.0,0.0,0.0,0.0,0.0,0.0,0.0,0.0,0.0,0.0,0.0,0.0,-1.8148,-1.8293,-1.8111,-1.8076,-1.821,-1.8126,-1.8123,-1.8115,-1.7793,-1.7265,-1.673,-1.6205,-1.5571,-1.5041,-1.5041,-1.4724,-1.4213,-1.4564,-1.4551,-1.4355,-1.4688,-1.4644,-1.4291,-1.4291,-1.4291,-1.4291,-1.4291,-1.4291,-1.4291,-1.4291,-1.4291,-1.4291,0.0,0.0,0.0,0.0,0.0,0.0,0.0,0.0,0.0,-1.051,0.0,0.0,0.0,0.0,-1.0503,-1.0476,-1.035,-1.0263,-1.023,-1.014,-1.0093,-1.0079,-0.998,-0.9879,-0.9785,-0.9794,-0.9861,0.0,0.0,0.0,0.0,-1.1254,-1.1835,-1.2546,-1.2241,-1.2616,0.0,0.0,0.0,-1.4353,0.0,0.0,-1.5133,0.0,0.0,0.0,0.0,0.0,0.0,0.0,-1.5399,-1.4888,-1.4699,-1.413,-1.3559,-1.3423,-1.3681,-1.3976,-1.4105,0.0,0.0,0.0,0.0,0.0,0.0,0.0,0.0,0.0,0.0,0.0,0.0,0.0,0.0,0.0,0.0,0.0,0.0,0.0,0.0,0.0,0.0,0.0,0.0,0.0,-1.8087,-1.8094,-1.7918,0.0,-1.769,-1.7865,-1.7908,-1.7694,-1.7483,-1.7054,-1.6524,-1.6099,-1.5571,-1.5041,-1.5041,-1.4724,-1.4207,-1.4676,-1.4772,-1.4577,-1.5035,-1.5002,-1.4655,-1.4655,-1.4655,-1.4655,-1.4655,-1.4655,-1.4655,-1.4655,-1.4655,-1.4655,0.0,0.0,0.0,0.0,0.0,0.0,0.0,0.0,-1.0522,-1.1051,0.0,0.0,0.0,0.0,0.0,-1.0847,-1.111,-1.1179,-1.0957,-1.0728,-1.0545,-1.0361,-1.0195,-1.0229,-1.0429,-1.0363,-1.0481,0.0,0.0,0.0,0.0,0.0,-1.2086,-1.2776,-1.2831,-1.316,-1.383,0.0,-1.4563,-1.4916,0.0,-1.5512,-1.6011,0.0,0.0,0.0,-1.7006,-1.7006,0.0,-1.7006,0.0,0.0,0.0,-1.5662,-1.4932,-1.4592,-1.4478,-1.4563,0.0,0.0,0.0,0.0,0.0,0.0,0.0,0.0,0.0,0.0,0.0,0.0,0.0,0.0,0.0,0.0,0.0,0.0,0.0,0.0,0.0,0.0,0.0,0.0,0.0,0.0,-1.8094,-1.8117,-1.7926,-1.7659,-1.7372,-1.7788,-1.7702,-1.7166,-1.6849,-1.6524,-1.6324,-1.5998,-1.5571,-1.5041,-1.5041,-1.4719,-1.4213,-1.467,-1.4885,-1.4907,-1.5392,-1.5245,-1.4655,-1.4655,-1.4655,-1.4655,-1.4655,-1.4655,-1.4655,-1.4655,-1.4655,-1.4655,0.0,0.0,0.0,0.0,0.0,-1.0269,-1.0798,-1.0882,-1.1063,0.0,0.0,0.0,-1.1907,-1.1985,-1.2121,-1.2428,-1.2311,-1.214,-1.1923,-1.1663,-1.1454,-1.1253,-1.1116,-1.1046,-1.1041,-1.105,-1.1125,-1.1269,-1.134,-1.1444,-1.1518,-1.1674,0.0,0.0,-1.2949,-1.3453,-1.4165,-1.4574,0.0,0.0,-1.5744,-1.6354,0.0,0.0,0.0,0.0,0.0,-1.8882,-1.8882,0.0,-1.8447,-1.7842,0.0,0.0,-1.5832,-1.5718,-1.5823,-1.5908,-1.5827,0.0,0.0,0.0,0.0,0.0,0.0,0.0,0.0,0.0,0.0,0.0,0.0,0.0,0.0,0.0,0.0,0.0,0.0,0.0,0.0,0.0,0.0,0.0,0.0,0.0,-1.8087,0.0,-1.7702,-1.7384,-1.7161,-1.7344,-1.7392,-1.7166,-1.6849,-1.6524,-1.6324,-1.5998,-1.5684,-1.5374,-1.5148,-1.4821,-1.4515,-1.4776,-1.4885,-1.4907,-1.5392,-1.5477,-1.5364,-1.5364,-1.5364,-1.5364,-1.5364,-1.5364,-1.5364,-1.5364,-1.5364,-1.5364,0.0,0.0,0.0,0.0,0.0,-1.081,-1.1339,-1.1423,-1.17,0.0,0.0,0.0,-1.2965,-1.2906,-1.2932,-1.314,-1.2816,-1.2552,-1.2425,-1.2169,-1.1943,-1.1814,-1.1693,-1.165,-1.1666,-1.1666,-1.174,-1.1929,-1.1929,-1.1953,-1.1977,-1.1977,-1.2353,0.0,0.0,0.0,0.0,0.0,0.0,0.0,-1.6296,0.0,0.0,-1.8252,-1.8889,0.0,0.0,0.0,-2.0252,-2.0252,-1.976,0.0,0.0,0.0,0.0,-1.6828,-1.6728,-1.666,-1.6592,-1.6959,-1.7286,0.0,0.0,0.0,-1.807,-1.8151,0.0,0.0,0.0,0.0,0.0,0.0,0.0,0.0,0.0,0.0,0.0,0.0,0.0,0.0,0.0,0.0,0.0,-1.8372,-1.8087,-1.8087,-1.7613,-1.7188,-1.7022,-1.7007,-1.6896,-1.6879,-1.6778,-1.6524,-1.6111,-1.5998,-1.5791,-1.5482,-1.5261,-1.5041,-1.473,-1.511,-1.5332,-1.5247,-1.5737,-1.5957,-1.5844,-1.5844,-1.572,-1.5601,-1.5601,-1.5601,-1.5601,-1.5601,-1.5601,-1.5601,0.0,0.0,-1.1111,-1.1171,-1.1183,-1.1363,-1.1892,-1.2058,-1.2432,0.0,-1.3516,-1.3691,-1.4034,-1.3693,-1.351,-1.3611,-1.3227,-1.2957,-1.2914,-1.2598,-1.2402,-1.2351,-1.2274,-1.2258,-1.2285,-1.2295,-1.2386,-1.2529,-1.2529,-1.2499,-1.2398,-1.2398,-1.2735,-1.3415,0.0,0.0,0.0,0.0,0.0,-1.5956,-1.6924,-1.7633,0.0,0.0,-1.9687,-2.0411,-2.0934,-2.1238,-2.1393,-2.1393,-2.0657,0.0,0.0,0.0,0.0,0.0,-1.7486,-1.7296,-1.7375,-1.7698,-1.7916,-1.7926,0.0,0.0,-1.8871,-1.8709,-1.8697,0.0,0.0,0.0,0.0,0.0,0.0,0.0,0.0,0.0,0.0,0.0,0.0,0.0,0.0,0.0,-1.8523,-1.8253,-1.808,-1.8025,-1.7591,-1.7188,-1.7022,-1.681,-1.6605,-1.631,-1.6558,-1.6387,-1.5891,-1.5891,-1.5791,-1.5589,-1.5482,-1.5369,-1.5058,-1.5549,-1.5778,-1.5806,-1.6315,-1.6307,-1.6081,-1.6081,-1.5963,-1.5601,-1.5601,-1.5601,-1.5601,-1.5601,-1.5601,-1.5601,0.0,-1.1387,-1.1231,-1.1652,-1.1724,-1.1904,-1.2468,-1.2914,-1.3264,-1.3469,-1.3673,-1.4129,-1.5025,-1.4809,-1.4868,-1.5583,-1.5405,-1.5208,-1.501,-1.466,-1.4243,-1.3872,-1.3657,-1.3369,-1.3002,-1.2992,-1.2956,-1.2832,-1.2832,-1.2849,-1.2963,-1.2963,-1.3365,-1.4185,0.0,0.0,0.0,0.0,0.0,-1.7203,-1.7554,0.0,-1.8966,-1.9878,-2.0741,-2.1411,-2.2271,-2.2513,-2.2594,-2.2594,-2.1825,-2.0893,0.0,0.0,0.0,-1.9013,0.0,0.0,0.0,0.0,0.0,0.0,0.0,0.0,-1.9782,-1.9596,-1.9428,0.0,0.0,0.0,0.0,0.0,0.0,0.0,0.0,0.0,0.0,0.0,0.0,0.0,0.0,0.0,-1.824,-1.7954,-1.7749,-1.7659,-1.7287,-1.7013,-1.7022,-1.6821,-1.6607,-1.6304,-1.6367,-1.6193,-1.5885,-1.5891,-1.5891,-1.5785,-1.5583,-1.5482,-1.5392,-1.5666,-1.5778,-1.5806,-1.6315,-1.6419,-1.6425,-1.6425,-1.607,-1.5601,-1.5601,-1.5601,-1.5601,-1.5601,-1.5601,-1.5601,-1.2311,-1.2061,-1.1964,-1.2263,-1.2311,-1.2492,-1.3023,-1.3324,-1.3686,-1.4189,-1.4725,-1.533,-1.6115,-1.5854,-1.592,-1.6638,-1.6225,-1.5975,-1.6112,-1.5531,-1.5091,-1.486,-1.4737,-1.447,-1.4103,-1.4093,-1.4003,-1.376,-1.376,-1.3716,-1.3671,-1.3671,-1.3911,-1.4374,0.0,0.0,0.0,0.0,-1.7091,-1.7655,-1.8223,0.0,-1.9924,-2.08,-2.1561,-2.2332,-2.2951,-2.3289,-2.3371,-2.3371,-2.2828,0.0,0.0,-2.1207,-2.0495,0.0,-1.9931,-1.9796,0.0,0.0,0.0,-2.0421,0.0,0.0,0.0,-2.0358,-2.0009,0.0,0.0,0.0,0.0,0.0,0.0,0.0,0.0,0.0,0.0,0.0,0.0,0.0,0.0,0.0,-1.8387,-1.7951,-1.7508,-1.7138,-1.7007,-1.68,-1.6567,-1.6697,-1.6518,-1.6105,-1.6279,-1.6179,-1.5909,-1.5931,-1.5891,-1.5891,-1.5791,-1.5684,-1.5708,-1.6115,-1.6239,-1.6269,-1.6785,-1.6897,-1.6779,-1.6779,-1.6425,-1.607,-1.607,-1.5952,-1.5844,-1.5844,-1.5844,-1.5844,-1.2721,-1.2709,-1.2709,-1.2709,-1.2794,-1.3011,-1.3433,-1.3674,-1.4153,-1.5169,-1.6041,-1.6738,-1.7317,-1.7143,-1.7151,-1.7622,-1.7028,-1.676,-1.7104,-1.6483,-1.6052,-1.5903,-1.5764,-1.5574,-1.5237,-1.5143,-1.4934,-1.4661,-1.4661,-1.4616,-1.4385,-1.4385,-1.4505,0.0,0.0,0.0,0.0,0.0,0.0,-1.8368,0.0,-1.9876,-2.0781,-2.163,-2.2413,-2.3063,-2.3594,-2.3967,-2.4136,-2.4136,-2.3691,-2.3012,-2.2644,-2.2124,0.0,0.0,0.0,0.0,0.0,0.0,0.0,0.0,0.0,-2.1587,0.0,0.0,0.0,0.0,0.0,0.0,0.0,0.0,0.0,0.0,0.0,0.0,0.0,0.0,0.0,0.0,0.0,0.0,-1.8482,-1.7957,-1.7336,-1.6813,-1.6758,-1.6595,-1.6296,-1.6414,-1.6359,-1.5993,-1.603,-1.6112,-1.5921,-1.5816,-1.5843,-1.5891,-1.5998,-1.5998,-1.6016,-1.6508,-1.6764,-1.6949,-1.7432,-1.7436,-1.7256,-1.7256,-1.7132,-1.6891,-1.6655,-1.6425,-1.62,-1.62,-1.62,-1.62,-1.29,-1.2803,-1.2768,-1.2709,-1.3095,-1.3433,-1.3493,-1.4261,-1.5205,-1.626,-1.7206,-1.8001,-1.856,-1.8849,-1.9165,-1.9402,-1.9333,-1.9158,-1.8932,-1.87,-1.835,-1.7737,-1.721,-1.6622,-1.6063,-1.5626,-1.5247,-1.4945,-1.4945,-1.5045,-1.5149,-1.4994,-1.5328,0.0,-1.5795,0.0,0.0,0.0,-1.8662,0.0,-2.0529,-2.0777,0.0,-2.2645,-2.3317,-2.3563,-2.4594,-2.499,-2.5078,0.0,-2.4509,-2.3795,0.0,-2.3401,-2.2773,-2.1907,0.0,0.0,0.0,0.0,0.0,0.0,-2.2149,0.0,0.0,0.0,-2.2375,-2.2035,0.0,0.0,0.0,0.0,0.0,0.0,0.0,0.0,0.0,0.0,0.0,0.0,0.0,-1.8087,-1.7804,-1.7507,-1.7241,-1.7148,-1.6855,-1.6729,-1.6737,-1.6366,-1.6195,-1.6149,-1.575,-1.5727,-1.5921,-1.5634,-1.5656,-1.5891,-1.6111,-1.6217,-1.623,-1.6863,-1.7249,-1.7502,-1.7805,-1.8077,-1.8188,-1.8188,-1.8188,-1.8064,-1.6891,-1.6537,-1.6419,-1.6419,-1.6419,-1.6419,-1.3103,-1.2873,0.0,-1.318,-1.3422,-1.3736,-1.4285,-1.5241,-1.6404,-1.782,-1.8283,-1.8893,0.0,0.0,0.0,0.0,0.0,-2.0777,0.0,0.0,-1.9857,-1.9193,-1.8922,-1.846,-1.7871,-1.747,-1.7191,-1.702,-1.6905,-1.6702,-1.6341,-1.656,-1.6566,0.0,-1.6842,0.0,-1.8118,0.0,0.0,0.0,0.0,0.0,0.0,-2.3676,-2.4399,-2.5186,-2.5847,-2.5983,-2.5795,0.0,-2.528,0.0,0.0,0.0,0.0,0.0,0.0,0.0,0.0,0.0,0.0,0.0,0.0,0.0,-2.3781,0.0,-2.2898,0.0,0.0,0.0,0.0,0.0,0.0,0.0,-2.1331,0.0,0.0,0.0,0.0,0.0,0.0,0.0,-1.7582,-1.7384,-1.7131,-1.6814,-1.6914,-1.6764,-1.6294,-1.6292,-1.6146,-1.594,-1.5809,-1.5815,-1.5852,-1.5959,-1.6068,-1.6181,-1.6449,-1.6524,-1.6537,-1.6933,-1.7328,-1.7607,-1.7887,-1.8167,-1.8421,-1.8421,-1.8421,-1.8305,-1.783,-1.7361,-1.7015,-1.6897,-1.6779,-1.6779,-1.38,0.0,0.0,0.0,-1.3984,-1.4408,-1.535,-1.6544,-1.7798,-1.9035,-1.9545,0.0,-2.175,-2.1901,0.0,0.0,-2.2798,-2.2554,0.0,0.0,-2.1606,-2.1069,-2.0722,-2.0279,-1.9722,-1.9271,-1.9006,-1.8801,-1.8498,-1.802,-1.7511,-1.7676,-1.7544,-1.7114,0.0,-1.8243,-1.8849,0.0,0.0,-2.1602,-2.2889,-2.4167,-2.533,-2.502,-2.5565,-2.6626,-2.6817,-2.6727,-2.6536,-2.6536,-2.6062,0.0,-2.5016,-2.4602,0.0,0.0,0.0,0.0,-2.4169,0.0,0.0,0.0,0.0,0.0,0.0,0.0,0.0,0.0,0.0,0.0,0.0,0.0,-2.2739,-2.2387,0.0,-2.1388,0.0,0.0,0.0,0.0,0.0,0.0,0.0,-1.7377,-1.7183,-1.676,-1.6846,-1.6721,-1.6242,-1.6337,-1.6218,-1.5851,-1.5899,-1.5914,-1.5901,-1.5998,-1.617,-1.6323,-1.652,-1.6765,-1.6849,-1.7173,-1.7579,-1.7935,-1.8255,-1.8548,-1.8881,-1.8765,-1.8765,-1.8771,-1.8648,-1.8298,-1.783,-1.7485,-1.7373,-1.7373,-1.5325,-1.4955,0.0,0.0,0.0,0.0,-1.6584,0.0,0.0,0.0,0.0,0.0,0.0,0.0,0.0,0.0,0.0,-2.4886,-2.4743,0.0,-2.3839,0.0,0.0,-2.1858,0.0,-2.0516,-1.9885,-1.9665,-1.9028,-1.8616,-1.8473,-1.8017,-1.7999,-1.834,0.0,-1.8358,-1.9254,-2.0159,-2.1197,-2.2278,-2.3939,-2.5637,-2.7168,0.0,-2.6881,-2.7264,-2.7264,0.0,0.0,-2.702,-2.6634,-2.6235,-2.5934,0.0,0.0,0.0,0.0,0.0,0.0,0.0,0.0,-2.5072,0.0,0.0,0.0,0.0,-2.5318,0.0,0.0,0.0,-2.3857,-2.3761,-2.3604,-2.3246,-2.2768,0.0,0.0,0.0,0.0,0.0,0.0,0.0,0.0,-1.7273,-1.7208,-1.7346,-1.6697,-1.6451,-1.6877,-1.6541,-1.6246,-1.6113,-1.5873,-1.5794,-1.5895,-1.5614,-1.5789,-1.6317,-1.6542,-1.6905,-1.7179,-1.7714,-1.8251,-1.8919,-1.9257,-1.971,-2.0155,-1.9924,-1.9815,-1.97,-1.9113,-1.8874,-1.8758,-1.8538,-1.8305,-1.8305,0.0,0.0,0.0,0.0,0.0,0.0,0.0,-1.9319,0.0,0.0,0.0,0.0,0.0,-2.6003,-2.6761,0.0,0.0,-2.736,-2.6848,-2.6431,0.0,0.0,0.0,-2.4015,0.0,-2.2649,-2.2103,-2.1695,-2.1218,-2.0532,-1.9648,-1.9782,-1.9479,-1.8733,0.0,-1.9634,0.0,0.0,0.0,0.0,0.0,-2.6783,-2.7559,0.0,-2.7645,-2.8054,-2.8228,-2.8136,-2.8054,-2.7971,-2.7466,-2.6971,-2.6869,-2.6573,-2.6193,-2.6267,-2.6194,-2.6217,-2.6216,-2.6428,-2.6617,-2.6357,0.0,0.0,0.0,0.0,0.0,0.0,0.0,0.0,0.0,-2.4965,-2.4479,-2.3836,-2.3218,-2.2544,0.0,0.0,0.0,0.0,0.0,0.0,0.0,0.0,0.0,-1.6937,-1.6798,-1.6708,-1.6466,-1.6354,-1.6199,-1.6081,-1.5851,-1.5779,-1.5787,-1.5978,-1.617,-1.655,-1.7061,-1.7418,-1.7701,-1.8115,-1.8659,-1.9243,-1.9353,-1.9703,-2.027,-2.0155,-2.0046,-1.9815,-1.9577,-1.9352,-1.9127,-1.8655,-1.8421,-1.8421,-1.929,0.0,0.0,0.0,0.0,0.0,0.0,0.0,0.0,0.0,-2.4686,0.0,-2.693,0.0,-2.8667,0.0,-2.942,-2.9401,-2.8889,-2.8445,0.0,-2.7031,-2.6498,0.0,0.0,0.0,-2.3931,-2.3364,-2.2902,-2.2116,-2.0975,-2.1105,-2.0717,-1.9877,0.0,0.0,0.0,0.0,-2.2871,0.0,0.0,-2.7439,0.0,0.0,-2.831,-2.8581,-2.8757,-2.8664,-2.8488,-2.8395,-2.8086,-2.7633,-2.754,-2.7232,-2.696,-2.7219,-2.709,-2.705,-2.7227,-2.7414,-2.7525,-2.728,-2.713,-2.7155,-2.7076,0.0,-2.6479,0.0,0.0,0.0,0.0,-2.567,-2.5063,-2.4507,-2.3653,-2.2857,0.0,-2.117,0.0,0.0,0.0,0.0,0.0,0.0,-1.7206,-1.6846,-1.6843,-1.6698,0.0,-1.6292,-1.6297,-1.6094,-1.6063,-1.6003,-1.6109,-1.6307,-1.6606,-1.7007,-1.7413,-1.7723,-1.8122,-1.8429,-1.8823,-1.9417,-1.964,-1.9975,-2.0466,-2.0451,-2.027,-2.0155,-1.9924,-1.9768,-1.9623,-1.9043,-1.8771,-1.8771,0.0,0.0,0.0,0.0,-1.9321,0.0,0.0,0.0,-2.4137,0.0,-2.6658,-2.815,-2.9135,-2.9776,-3.0343,-3.086,-3.0947,-3.0959,-3.0897,-3.0159,0.0,0.0,-2.8275,-2.7501,-2.7477,0.0,0.0,0.0,-2.3941,-2.327,-2.2468,-2.1926,-2.1706,-2.1592,-2.1231,0.0,-2.1786,-2.2743,-2.3456,-2.4115,-2.626,-2.7735,-2.8757,-2.8872,-2.879,-2.879,-2.8861,-2.8757,-2.8757,-2.8488,-2.8395,-2.8395,-2.8092,-2.7772,-2.7409,-2.7705,-2.7471,-2.7114,-2.7292,-2.7381,-2.7469,-2.7646,-2.7734,-2.7811,-2.8226,-2.7725,-2.7183,0.0,0.0,0.0,0.0,-2.5953,-2.5526,-2.5268,-2.4204,-2.3083,-2.2007,-2.1404,0.0,0.0,0.0,0.0,0.0,-1.752,-1.7195,-1.7162,-1.6745,0.0,0.0,-1.6534,-1.6462,-1.6345,-1.6404,-1.6544,-1.6581,-1.6588,-1.6896,-1.7505,-1.7505,-1.7827,-1.8422,-1.8757,-1.9048,-1.937,-1.9997,-2.0428,-2.0764,-2.0715,-2.0716,-2.0608,-2.004,-2.0,-2.0233,-1.9603,-1.9392,-1.9386,-2.1982,-2.159,-2.1366,0.0,-2.1264,-2.1531,0.0,0.0,0.0,0.0,-2.8413,-2.9462,-3.0161,-3.1447,-3.2322,-3.2459,-3.3146,0.0,0.0,0.0,0.0,-3.0226,-2.984,-2.935,-2.8814,-2.7997,-2.7233,-2.6647,0.0,-2.4796,-2.3787,-2.344,-2.2771,0.0,0.0,0.0,-2.251,-2.3466,-2.4908,-2.6476,-2.7423,-2.8211,-2.879,0.0,-2.9292,-2.9248,-2.8888,-2.8757,-2.8757,-2.8757,-2.8664,-2.8664,-2.8664,-2.8484,-2.8468,-2.8479,-2.8392,-2.8386,-2.8386,-2.8386,-2.8298,-2.8039,-2.8052,-2.8154,-2.7954,-2.785,-2.7917,-2.8344,-2.79,-2.7499,-2.7437,-2.6889,-2.6267,-2.5655,-2.4801,-2.3653,-2.2358,0.0,0.0,-2.0741,0.0,0.0,0.0,-1.7666,-1.7162,-1.6554,-1.6681,0.0,0.0,0.0,-1.6314,-1.6617,-1.6277,-1.6316,-1.6581,-1.6588,-1.6896,-1.7505,-1.7711,-1.8145,-1.8757,-1.9071,-1.9481,-2.0012,-2.0092,-2.0559,-2.1094,-2.1052,-2.0852,-2.0385,-2.027,-2.0117,-1.9912,-1.972,-1.9686,-1.9659,-2.3838,0.0,0.0,-2.3867,0.0,0.0,-2.4594,-2.6038,0.0,-2.8687,-3.0231,0.0,-3.1662,-3.2955,-3.3796,-3.3796,-3.4285,0.0,-3.367,0.0,0.0,-3.2191,-3.1528,-3.0968,-3.0507,-2.9498,0.0,-2.7739,0.0,-2.6282,-2.5055,-2.4625,0.0,0.0,0.0,-2.3279,0.0,-2.4733,-2.619,-2.7613,-2.812,-2.8738,0.0,-2.958,-2.9715,-2.9773,-2.9489,-2.9248,-2.9041,-2.8822,-2.8757,-2.8757,-2.8757,-2.8757,-2.8757,-2.8757,-2.8757,-2.8757,-2.8757,-2.8757,-2.8691,-2.8418,-2.8455,-2.8572,-2.8387,-2.8255,-2.8288,-2.8618,-2.8309,-2.7884,-2.7633,-2.7035,-2.6382,-2.5418,-2.4625,-2.3819,0.0,0.0,0.0,0.0,-2.0461,0.0,-1.8572,-1.8059,-1.7372,-1.6491,-1.6694,0.0,0.0,0.0,-1.6308,-1.68,-1.6374,-1.6411,-1.6857,-1.6864,-1.7177,-1.7803,-1.8009,-1.8455,-1.9078,-1.9279,-1.9557,-2.004,-2.0179,-2.0523,-2.1006,-2.1152,-2.0852,-2.0507,-2.0308,-2.0116,-1.98,-1.98,-1.98,-1.976,0.0,0.0,0.0,0.0,0.0,0.0,0.0,-2.7868,0.0,-3.0196,0.0,-3.3131,-3.3269,-3.4211,-3.4826,-3.4826,0.0,-3.4914,-3.4839,-3.4657,-3.445,-3.4388,-3.3101,-3.2409,-3.232,-3.1015,-2.9833,0.0,-2.8462,-2.7605,-2.6252,-2.5611,0.0,0.0,0.0,0.0,0.0,-2.6228,-2.7278,-2.8152,-2.8668,-2.9349,-2.9997,-2.9969,-3.0182,-3.0308,-3.0297,-2.9991,-2.95,-2.9019,-2.8844,-2.8844,-2.8779,-2.8757,-2.8757,-2.8757,-2.8757,-2.8768,-2.8833,-2.8894,-2.8768,-2.8833,-2.8894,-2.885,-2.9035,-2.8727,-2.8519,-2.8678,-2.8388,-2.793,-2.7581,-2.6925,-2.6129,-2.499,-2.427,0.0,0.0,0.0,0.0,0.0,0.0,0.0,0.0,0.0,0.0,0.0,0.0,0.0,0.0,0.0,-1.6392,-1.7064,-1.6727,-1.6764,-1.7326,-1.7333,-1.7655,-1.8299,-1.8299,-1.8642,-1.9279,-1.9279,-1.9477,-1.9842,-2.012,-2.045,-2.0808,-2.0972,-2.0967,-2.0522,-2.0337,-1.9996,-1.98,-1.976,-1.9766,-1.976,0.0,0.0,0.0,0.0,0.0,-2.9336,-2.9561,-2.9745,-3.0542,-3.2478,-3.3,-3.342,-3.4336,-3.5014,-3.5403,-3.5403,-3.5818,0.0,0.0,0.0,0.0,-3.4413,-3.4111,-3.3818,-3.3351,-3.2293,-3.1562,-3.1108,-2.9618,-2.85,-2.7802,-2.6913,0.0,0.0,0.0,0.0,-2.6318,-2.7301,0.0,-2.869,-2.9172,-2.9732,-3.022,-3.0419,-3.0776,-3.1097,-3.0888,-3.0482,-3.0013,-2.9521,-2.9358,-2.9281,-2.8877,-2.8757,-2.8757,-2.8757,-2.8757,-2.8844,-2.9248,-2.9063,-2.8855,-2.9259,-2.9052,-2.885,-2.885,-2.8784,-2.8822,-2.8995,-2.863,-2.8366,-2.8433,-2.7576,-2.6484,-2.5278,-2.5124,0.0,0.0,0.0,0.0,0.0,0.0,-2.0695,0.0,0.0,0.0,0.0,0.0,0.0,0.0,0.0,-1.6629,0.0,-1.7072,-1.7221,0.0,-1.7628,-1.786,-1.8299,-1.8299,-1.8642,-1.9279,-1.9279,-1.9594,-2.0157,-2.0216,-2.0574,-2.113,-2.0938,-2.0493,-1.9931,-1.9652,-1.971,-1.9773,-1.9533,-1.9593,-1.976,0.0,0.0,0.0,0.0,0.0,0.0,0.0,-3.2272,-3.2426,-3.3259,-3.4072,-3.4729,-3.509,-3.5893,-3.6395,-3.6395,-3.6634,-3.6671,-3.6408,-3.6132,-3.5855,-3.5406,-3.5027,-3.4681,-3.4404,-3.3435,-3.2585,-3.1925,-3.0891,-2.9798,-2.8571,-2.7728,0.0,0.0,0.0,-2.6666,0.0,0.0,0.0,-2.9205,-2.9965,-3.0473,-3.0875,-3.1274,-3.1461,-3.1683,-3.1471,-3.1227,-3.0832,-3.0111,-2.986,-2.9773,-2.9281,-2.9128,-2.9128,-2.9128,-2.9128,-2.9237,-2.9729,-2.95,-2.9194,-2.9423,-2.9117,-2.8757,-2.8757,-2.8757,-2.885,-2.8943,-2.8767,-2.8536,-2.8352,-2.7338,-2.6378,-2.5836,0.0,0.0,0.0,0.0,0.0,0.0,0.0,0.0,0.0,0.0,0.0,0.0,0.0,0.0,0.0,0.0,-1.6713,0.0,0.0,0.0,-1.79,0.0,-1.8318,-1.8511,-1.8674,-1.8905,-1.9279,-1.9447,-1.9784,-2.0245,-2.0413,-2.0764,-2.1211,-2.073,-2.027,-1.9815,-1.9482,-1.9452,-1.9559,-1.9419,-1.9459,-1.9553,0.0,-3.0828,0.0,0.0,-3.2082,0.0,-3.4188,-3.4556,-3.4534,-3.4104,-3.5264,-3.602,-3.5974,-3.6772,-3.7362,-3.7362,-3.7362,-3.7362,-3.7362,-3.6948,-3.6709,-3.6709,-3.5981,-3.5587,-3.5494,-3.449,-3.3418,-3.2455,-3.1958,-3.0963,-2.9356,-2.8668,-2.7975,0.0,0.0,0.0,0.0,-2.916,-2.9619,-2.9894,-3.0686,-3.1175,-3.1553,-3.195,-3.2106,-3.2128,-3.2015,-3.1812,-3.1611,-3.0766,-3.0439,-3.0275,-2.9794,-2.9642,-2.9642,-2.9642,-2.9642,-2.974,-3.0231,-2.9925,-2.951,-2.9609,-2.9194,-2.8757,-2.8757,-2.8757,-2.8757,-2.8757,-2.8664,-2.8511,-2.7952,-2.7079,-2.6431,-2.6227,-2.5221,0.0,0.0,0.0,0.0,0.0,0.0,0.0,-2.0191,0.0,0.0,0.0,0.0,0.0,-1.683,0.0,0.0,0.0,0.0,-1.7578,-1.8179,0.0,-1.8766,-1.8822,-1.9029,-1.9256,-1.939,-1.9721,-1.9938,-2.0252,-2.0581,-2.079,-2.0974,-2.0507,-2.0046,-1.97,-1.9482,-1.9366,-1.9366,-1.9366,-1.9366,-1.9366,0.0,0.0,0.0,0.0,0.0,0.0,-3.4371,-3.5744,-3.6674,-3.6379,-3.6504,-3.6836,-3.7369,-3.7673,-3.7939,-3.7939,-3.7939,-3.7939,-3.7939,-3.7889,-3.7852,-3.7852,-3.7324,-3.6927,-3.6624,-3.5605,-3.4509,0.0,-3.25,-3.161,-3.0711,-2.9952,-2.9353,-2.8881,0.0,-2.8861,-2.9366,-2.9458,-3.0032,-3.0882,-3.0973,-3.1582,-3.2323,-3.2173,-3.2426,-3.2779,-3.2229,-3.2015,-3.1902,-3.1622,-3.1203,-3.0756,-3.0286,-3.0144,-3.0144,-3.0144,-3.0144,-3.0242,-3.0701,-3.0166,-2.9587,-3.0035,-2.9445,-2.8757,-2.8757,-2.8571,-2.8395,-2.8395,-2.829,-2.7953,-2.7413,-2.7253,-2.6822,-2.5788,-2.5577,0.0,0.0,0.0,-2.3474,-2.2513,0.0,0.0,-2.06,-1.9902,0.0,0.0,-1.748,0.0,0.0,0.0,0.0,-1.7747,-1.7771,-1.7943,-1.8473,-1.8808,-1.9047,-1.9109,-1.913,-1.9358,-1.9695,-1.9714,-1.9938,-2.0252,-2.0581,-2.0564,-2.0385,-2.027,-1.9931,-1.9482,-1.9366,-1.9366,-1.9366,-1.9366,-1.9366,-1.9366,0.0,0.0,0.0,0.0,0.0,0.0,0.0,-3.7033,-3.7717,-3.7873,-3.7561,-3.7636,-3.8015,-3.8389,-3.853,-3.853,-3.853,-3.853,-3.853,-3.8203,-3.8002,-3.8002,-3.7789,-3.7525,-3.7089,-3.6447,-3.5528,0.0,-3.3442,-3.2447,-3.1336,-3.0659,-2.9898,-2.925,-2.9456,-2.9899,-3.0423,-3.0714,-3.125,-3.1938,-3.2063,-3.2422,-3.2718,-3.2845,-3.2798,-3.2891,-3.2667,-3.2454,-3.2229,-3.1924,-3.1589,-3.1247,-3.0766,-3.0624,-3.0624,-3.0624,-3.0624,-3.0723,-3.1203,-3.0635,-2.9969,-3.0166,-2.9478,-2.8757,-2.8571,-2.8488,-2.8395,-2.8196,-2.8092,-2.7934,-2.7764,-2.7416,-2.6925,-2.6557,-2.5853,-2.5186,0.0,0.0,0.0,-2.3069,0.0,-2.2225,0.0,-2.0404,0.0,0.0,0.0,0.0,0.0,0.0,0.0,-1.7755,0.0,-1.8327,-1.8651,-1.9288,-1.9443,-1.9298,-1.9628,-1.9751,-1.9695,-1.9913,-2.0333,-2.083,-2.0955,-2.0851,-2.0493,-2.0385,-2.0046,-1.9591,-1.9482,-1.9366,-1.9366,-1.9366,-1.9366,-1.9366,-3.6606,0.0,-3.6626,0.0,-3.6967,-3.7257,-3.7418,-3.8015,-3.8596,-3.8893,-3.8735,-3.8607,-3.871,-3.9057,-3.9209,-3.9107,-3.9107,-3.9107,-3.9107,-3.873,-3.8504,-3.8504,-3.8354,0.0,-3.7437,-3.7067,-3.6251,-3.4891,-3.423,-3.3399,-3.2207,-3.1579,-3.0944,-3.0402,-3.0767,-3.1066,-3.1442,-3.1795,-3.2242,-3.2747,-3.2919,-3.3153,-3.3243,-3.3429,-3.3381,-3.3081,-3.3092,-3.288,-3.2555,-3.2229,-3.1924,-3.1666,-3.1214,-3.1105,-3.1105,-3.1105,-3.1105,-3.1181,-3.1531,-3.093,-3.0209,-3.0209,-2.9489,-2.8664,-2.8395,-2.8301,-2.8113,-2.7809,-2.7809,-2.7809,-2.7809,-2.7369,-2.7024,-2.6877,-2.6131,-2.5533,-2.5275,-2.4943,0.0,-2.3523,-2.3267,-2.273,-2.1568,-2.0919,0.0,0.0,0.0,0.0,0.0,-1.7811,-1.7908,-1.8177,-1.8346,-1.8699,-1.9071,-1.967,-1.9924,-1.974,-2.0116,-2.0086,-1.9798,-2.0045,-2.0596,-2.1211,-2.1211,-2.0967,-2.0716,-2.0493,-2.027,-1.9931,-1.9707,-1.9591,-1.9482,-1.9482,-1.9482,-1.9366,-3.7936,-3.7683,-3.7429,-3.7187,-3.7671,-3.7899,-3.7484,-3.8358,-3.9214,-3.952,-3.9777,-3.9917,-3.9607,-3.9918,-3.9968,-3.9672,-3.9685,-3.9685,-3.9685,-3.9672,-3.9672,0.0,0.0,-3.8592,-3.8002,-3.7462,-3.6551,-3.5239,-3.4891,-3.4328,-3.3618,-3.3119,-3.2828,-3.2828,-3.2547,-3.2465,-3.2465,-3.2477,-3.2771,-3.3253,-3.3253,-3.3582,-3.4064,-3.4075,-3.3878,-3.3679,-3.3381,-3.3081,-3.288,-3.2555,-3.2229,-3.1924,-3.1721,-3.1618,-3.1618,-3.1618,-3.1618,-3.1618,-3.1618,-3.093,-3.0209,-3.0209,-2.9298,-2.8395,-2.8395,-2.8019,-2.7536,-2.7357,-2.7357,-2.7357,-2.7357,-2.7251,-2.7107,-2.6641,-2.6558,-2.6248,-2.5357,-2.5223,0.0,-2.3881,-2.3448,-2.2934,-2.2264,-2.1597,0.0,0.0,0.0,0.0,0.0,-1.8437,-1.8638,-1.9001,-1.9018,-1.9183,-1.9714,-1.9982,-2.0239,-2.0392,-2.0452,-2.0308,-2.0109,-2.0145,-2.0596,-2.1211,-2.1211,-2.0967,-2.0716,-2.0716,-2.0493,-2.027,-2.027,-2.0046,-1.9815,-1.9815,-1.9591,-1.9366,-3.9343,-3.8997,-3.8749,-3.8648,-3.881,-3.8979,-3.9037,-3.9574,-3.9997,-4.0386,-4.0684,-4.0824,-4.0511,-4.0274,-4.0083,0.0,-3.9788,-3.9697,0.0,-3.9697,-3.9697,-3.9697,-3.9534,-3.917,-3.8617,-3.8027,-3.729,-3.6264,-3.526,-3.4352,-3.3377,-3.3272,-3.3179,-3.3179,-3.3086,-3.3172,-3.3493,-3.3493,-3.3803,-3.428,-3.4086,-3.4193,-3.4249,-3.4162,-3.4075,-3.3977,-3.3679,-3.3481,-3.3381,-3.288,-3.2667,-3.2566,-3.2026,-3.1721,-3.1618,-3.1618,-3.1618,-3.1618,-3.1618,-3.116,-3.0603,-3.0286,-2.9536,-2.8698,-2.8271,-2.7726,-2.7357,-2.7357,-2.7262,-2.7262,-2.7262,-2.7262,-2.721,-2.7065,-2.6775,-2.6361,-2.5761,-2.542,-2.4882,-2.3891,-2.372,-2.3381,-2.2689,-2.2131,0.0,0.0,0.0,0.0,0.0,-1.9246,-1.9326,-1.9276,-1.9588,-1.9868,-2.0005,-2.0419,-2.0678,-2.0692,-2.0554,-2.0547,-2.078,-2.0569,-2.0811,-2.1554,-2.1325,-2.1089,-2.0967,-2.0838,-2.0608,-2.0608,-2.0385,-2.027,-2.0155,-2.0155,-1.9931,-1.97,-4.0341,-4.0179,-4.0074,-3.9983,-3.9983,-4.0015,-4.0105,-4.0388,-4.0704,-4.0799,-4.1057,-4.1211,-4.1097,-4.0694,-4.0275,-4.007,-3.9981,-3.9788,-3.9697,-3.9697,-3.9697,-3.9697,-3.9697,-3.9433,-3.8881,-3.8304,-3.764,-3.698,-3.5726,-3.4661,-3.3861,-3.3861,-3.3861,-3.3861,-3.3861,-3.4042,-3.4342,-3.4342,-3.4523,-3.4823,-3.4628,-3.4531,-3.4531,-3.4457,-3.4261,-3.4162,-3.4064,-3.3866,-3.3679,-3.3281,-3.3092,-3.2779,-3.2342,-3.2026,-3.1721,-3.1618,-3.1618,-3.1618,-3.1618,-3.1269,-3.0788,-3.033,-2.9559,-2.8785,-2.7926,-2.7536,-2.7262,-2.7262,-2.7262,-2.7262,-2.7262,-2.7262,-2.7262,-2.7262,-2.7013,-2.6672,-2.6206,-2.5751,-2.5129,-2.4142,-2.3941,-2.358,-2.2969,-2.265,-2.2236,0.0,0.0,0.0,-2.0772,-2.0404,-2.0171,-2.0236,-2.0424,-2.0609,-2.0799,-2.0966,-2.1056,-2.0986,-2.0617,-2.0767,-2.1202,-2.0985,-2.1136,-2.1774,-2.1554,-2.1439,-2.1325,-2.1081,-2.0917,-2.1025,-2.0916,-2.0793,-2.0677,-2.0677,-2.0368,-1.9924,-4.1065,-4.1265,-4.1387,-4.1123,-4.1123,-4.103,-4.0857,-4.1044,-4.113,-4.0892,-4.1182,-4.1311,-4.1311,-4.1097,-4.0681,-4.0173,-4.0185,-3.9981,-3.98,-3.9685,-3.9697,-3.9697,-3.9697,-3.9459,-3.8944,-3.8329,-3.7713,-3.7123,-3.6047,-3.5332,-3.4823,-3.4823,-3.4823,-3.4823,-3.4823,-3.4823,-3.4823,-3.4823,-3.4823,-3.4823,-3.4823,-3.4823,-3.4823,-3.4823,-3.464,-3.4433,-3.4433,-3.415,-3.3779,-3.3679,-3.3381,-3.2891,-3.2656,-3.2331,-3.2026,-3.1732,-3.1618,-3.1618,-3.1618,-3.1291,-3.0832,-3.0373,-2.9473,-2.8391,-2.7546,-2.7262,-2.7262,-2.7262,-2.7262,-2.7262,-2.7262,-2.7262,-2.7262,-2.7262,-2.7262,-2.7096,-2.663,-2.6196,-2.5581,-2.4694,-2.4183,-2.367,-2.3232,-2.3057,-2.289,-2.289,0.0,0.0,-2.2721,-2.1735,-2.1345,-2.1635,-2.1392,-2.1561,-2.1987,-2.1725,-2.1503,-2.1318,-2.0822,-2.0864,-2.1503,-2.1194,-2.1467,-2.2116,-2.1896,-2.1782,-2.1668,-2.1439,-2.1386,-2.1664,-2.1686,-2.1569,-2.1195,-2.1224,-2.0914,-2.0305,-4.1674,-4.1553,-4.1387,-4.1123,-4.1123,-4.1272,-4.1626,-4.1598,-4.1553,-4.1812,-4.1703,-4.1511,-4.1311,-4.1211,-4.1097,-4.0782,-4.0491,-4.0402,-4.03,-4.0083,-3.9981,-3.9981,-3.9788,-3.9634,-3.9496,-3.8517,-3.7342,-3.5997,-3.567,-3.5332,-3.4823,-3.4823,-3.4823,-3.4823,-3.4823,-3.4823,-3.4823,-3.4823,-3.4823,-3.4823,-3.4823,-3.4823,-3.4823,-3.4823,-3.4726,-3.4628,-3.4433,-3.4335,-3.415,-3.3779,-3.358,-3.3381,-3.298,-3.2555,-3.224,-3.1732,-3.1618,-3.1618,-3.1618,-3.1542,-3.1233,-3.0565,-2.9426,-2.8208,-2.7461,-2.7262,-2.7262,-2.7262,-2.7262,-2.7262,-2.7262,-2.7262,-2.7262,-2.7262,-2.7262,-2.7096,-2.663,-2.6475,-2.6054,-2.5169,-2.4937,-2.4676,-2.4111,-2.403,-2.3939,-2.3756,0.0,-2.3241,-2.315,-2.2703,-2.2423,-2.2411,-2.224,-2.2205,-2.229,-2.207,-2.1736,-2.1293,-2.0909,-2.1219,-2.1865,-2.1572,-2.1798,-2.2456,-2.2116,-2.2002,-2.2002,-2.1888,-2.1827,-2.1695,-2.194,-2.1803,-2.1598,-2.1846,-2.1604,-2.0971,-4.2417,-4.2454,-4.2381,-4.2113,-4.2018,-4.2032,-4.2358,-4.2207,-4.2024,-4.2137,-4.1881,-4.1597,-4.1311,-4.1311,-4.1211,-4.1097,-4.0795,-4.0593,-4.0504,-4.0389,-4.0185,-4.0083,-3.9981,-3.9788,-3.9697,-3.858,-3.728,-3.5812,-3.562,-3.5416,-3.5017,-3.4835,-3.4823,-3.4823,-3.4823,-3.4823,-3.4823,-3.4823,-3.4823,-3.4823,-3.4823,-3.4823,-3.4823,-3.4823,-3.4823,-3.4823,-3.4628,-3.4531,-3.4335,-3.415,-3.3866,-3.3679,-3.3181,-3.2768,-3.2443,-3.1924,-3.1721,-3.1618,-3.1618,-3.1618,-3.1353,-3.0267,-2.9253,-2.8305,-2.7461,-2.7262,-2.7262,-2.7262,-2.7357,-2.7452,-2.7452,-2.7452,-2.7452,-2.7452,-2.7357,-2.7169,-2.692,-2.6703,-2.6383,-2.5767,-2.5391,-2.5087,-2.4608,-2.4506,-2.4322,-2.4239,-2.3858,-2.3758,-2.3768,-2.3407,-2.3121,-2.3017,-2.2849,-2.2761,-2.2839,-2.2332,-2.1912,-2.1489,-2.1208,-2.1394,-2.2022,-2.1771,-2.2127,-2.2796,-2.2456,-2.2343,-2.2343,-2.2108,-2.2093,-2.2153,-2.2485,-2.2385,-2.2186,-2.2512,-2.2176,-2.164,-4.3255,-4.3457,-4.3519,-4.3355,-4.308,-4.2887,-4.2887,-4.2693,-4.2498,-4.219,-4.1895,-4.1696,-4.1411,-4.1311,-4.1311,-4.1311,-4.1097,-4.0896,-4.0605,-4.0605,-4.0504,-4.0275,-4.0173,-3.9981,-3.9788,-3.858,-3.7415,-3.6127,-3.5753,-3.5416,-3.5223,-3.4932,-3.4823,-3.4823,-3.4823,-3.4823,-3.4823,-3.4823,-3.4823,-3.4823,-3.4823,-3.4823,-3.4823,-3.4932,-3.4932,-3.4932,-3.4823,-3.4726,-3.4531,-3.4433,-3.4162,-3.3679,-3.3481,-3.2969,-3.2454,-3.2128,-3.1924,-3.1618,-3.1618,-3.1516,-3.1197,-2.9867,-2.9223,-2.8572,-2.7662,-2.7441,-2.7441,-2.7441,-2.7536,-2.7631,-2.7631,-2.7631,-2.7631,-2.7641,-2.7452,-2.7357,-2.7262,-2.692,-2.6579,-2.6382,-2.5787,-2.5277,-2.5,-2.4712,-2.4619,-2.4619,-2.4152,-2.4032,-2.4401,-2.3929,-2.3639,-2.3639,-2.3347,-2.3207,-2.3347,-2.2535,-2.2013,-2.1785,-2.1514,-2.1634,-2.2102,-2.2017,-2.2347,-2.3014,-2.2796,-2.2683,-2.2683,-2.2335,-2.2398,-2.2581,-2.2917,-2.2959,-2.2684,-2.2998,-2.2833,-2.2206,-4.3895,-4.3748,-4.3519,-4.3355,-4.308,-4.2887,-4.2887,-4.2887,-4.2693,-4.2498,-4.219,-4.198,-4.1696,-4.1411,-4.1311,-4.1311,-4.1211,-4.1211,-4.1211,-4.0997,-4.0795,-4.0782,-4.0377,-4.007,-4.0083,-3.868,-3.759,-3.6661,-3.5926,-3.5416,-3.5223,-3.4932,-3.4823,-3.4823,-3.4823,-3.4823,-3.4823,-3.4823,-3.4823,-3.4835,-3.503,-3.5126,-3.5126,-3.5416,-3.5524,-3.5428,-3.5223,-3.5126,-3.503,-3.4531,-3.4249,-3.3977,-3.3679,-3.3281,-3.2779,-3.2544,-3.2229,-3.1913,-3.1618,-3.1424,-3.0992,-3.0033,-2.9546,-2.9072,-2.8105,-2.7904,-2.7904,-2.7904,-2.7904,-2.7904,-2.7904,-2.7904,-2.7904,-2.7631,-2.7536,-2.7441,-2.7347,-2.72,-2.7063,-2.6788,-2.6526,-2.6189,-2.5892,-2.5624,-2.5527,-2.5527,-2.5034,-2.4771,-2.4837,-2.4347,-2.406,-2.406,-2.3854,-2.3484,-2.3046,-2.2434,-2.2106,-2.2055,-2.1802,-2.1867,-2.2373,-2.236,-2.2581,-2.3014,-2.3014,-2.2901,-2.2901,-2.2901,-2.2714,-2.2687,-2.2906,-2.2974,-2.302,-2.3134,-2.3095,-2.2914,-4.4167,-4.3899,-4.36,-4.3519,-4.3163,-4.2887,-4.2887,-4.2887,-4.279,-4.2511,-4.24,-4.219,-4.1796,-4.1597,-4.1511,-4.1311,-4.1311,-4.1311,-4.1311,-4.1211,-4.1097,-4.0896,-4.0491,-4.0045,-3.9449,-3.8529,-3.764,-3.698,-3.6059,-3.5524,-3.5428,-3.503,-3.4823,-3.4823,-3.4823,-3.4823,-3.4823,-3.492,-3.503,-3.503,-3.532,-3.5428,-3.5428,-3.5524,-3.562,-3.5524,-3.532,-3.5223,-3.5126,-3.4726,-3.4347,-3.4075,-3.3977,-3.3481,-3.2891,-3.2555,-3.2139,-3.1721,-3.1618,-3.1527,-3.1197,-3.0033,-2.9698,-2.9353,-2.8211,-2.7998,-2.7998,-2.7998,-2.8092,-2.8196,-2.8196,-2.8196,-2.8196,-2.8019,-2.782,-2.7536,-2.7441,-2.7357,-2.7262,-2.7177,-2.6784,-2.6496,-2.6304,-2.5927,-2.5742,-2.5742,-2.5333,-2.503,-2.4932,-2.4538,-2.435,-2.4152,-2.3954,-2.3646,-2.3247,-2.2846,-2.2409,-2.2055,-2.2214,-2.2402,-2.2662,-2.2787,-2.3088,-2.3247,-2.3247,-2.3127,-2.3014,-2.3014,-2.2909,-2.2828,-2.3174,-2.3169,-2.3129,-2.3541,-2.3376,-2.3133,-4.4102,-4.3909,-4.36,-4.36,-4.3245,-4.2887,-4.2887,-4.2887,-4.2749,-4.242,-4.2417,-4.2248,-4.1709,-4.1716,-4.1597,-4.1411,-4.1311,-4.1311,-4.1311,-4.1311,-4.1211,-4.0997,-4.0707,-4.0096,-3.9171,-3.8492,-3.7927,-3.7374,-3.6341,-3.5731,-3.562,-3.5126,-3.4835,-3.4823,-3.4823,-3.4823,-3.4932,-3.5126,-3.5223,-3.532,-3.562,-3.5716,-3.5716,-3.58,-3.5812,-3.5704,-3.5416,-3.532,-3.5223,-3.4932,-3.4543,-3.4162,-3.4075,-3.3679,-3.298,-3.2667,-3.2139,-3.1721,-3.1629,-3.1542,-3.1146,-3.011,-2.9808,-2.9505,-2.8378,-2.8186,-2.8186,-2.8186,-2.8384,-2.8488,-2.8488,-2.8488,-2.8488,-2.8395,-2.8019,-2.7726,-2.7631,-2.7452,-2.7357,-2.7262,-2.688,-2.6602,-2.6496,-2.611,-2.5732,-2.5742,-2.543,-2.5235,-2.503,-2.4637,-2.444,-2.4251,-2.3954,-2.3646,-2.3447,-2.3147,-2.2719,-2.2274,-2.2604,-2.2858,-2.2913,-2.326,-2.3574,-2.3585,-2.3585,-2.336,-2.3127,-2.3127,-2.3014,-2.3046,-2.3316,-2.3237,-2.3146,-2.3754,-2.3672,-2.327,-4.3554,-4.3617,-4.36,-4.36,-4.3245,-4.2887,-4.2887,-4.2887,-4.2697,-4.2141,-4.2258,-4.2283,-4.1705,-4.1661,-4.1696,-4.1696,-4.1411,-4.1311,-4.1311,-4.1311,-4.1311,-4.1311,-4.0808,-4.0377,-4.002,-3.9285,-3.853,-3.7952,-3.7095,-3.6282,-3.562,-3.532,-3.503,-3.4823,-3.4823,-3.4932,-3.5126,-3.5223,-3.532,-3.562,-3.5812,-3.6015,-3.6003,-3.6275,-3.6358,-3.6263,-3.58,-3.562,-3.5512,-3.4932,-3.4628,-3.4347,-3.4162,-3.3878,-3.358,-3.298,-3.2454,-3.1924,-3.1618,-3.1291,-3.0832,-3.033,-2.9871,-2.939,-2.8866,-2.8757,-2.8757,-2.8757,-2.8757,-2.8757,-2.8757,-2.8757,-2.8664,-2.8395,-2.8395,-2.8207,-2.7641,-2.7641,-2.7536,-2.7357,-2.7081,-2.6794,-2.6496,-2.6197,-2.6014,-2.5742,-2.543,-2.5333,-2.5235,-2.4735,-2.444,-2.4251,-2.3954,-2.3746,-2.3746,-2.3247,-2.2946,-2.2946,-2.3031,-2.3114,-2.3185,-2.3644,-2.3786,-2.3913,-2.3913,-2.3697,-2.3472,-2.3472,-2.3247,-2.3022,-2.3046,-2.3252,-2.347,-2.3622,-2.3592,-2.3528,-4.3427,-4.3575,-4.36,-4.36,-4.3245,-4.2887,-4.2887,-4.2887,-4.2806,-4.2588,-4.2655,-4.2612,-4.2175,-4.2168,-4.2092,-4.1696,-4.1597,-4.1511,-4.1311,-4.1311,-4.1211,-4.1097,-4.0707,-4.0389,-4.0083,-3.9348,-3.8768,-3.8542,-3.7668,-3.6911,-3.6112,-3.5819,-3.5344,-3.4823,-3.4932,-3.5126,-3.5223,-3.5512,-3.5716,-3.5908,-3.6193,-3.6275,-3.6275,-3.6358,-3.6358,-3.6358,-3.58,-3.562,-3.5524,-3.5017,-3.4628,-3.4433,-3.4347,-3.4064,-3.358,-3.3092,-3.2667,-3.2342,-3.2139,-3.1572,-3.0788,-3.033,-2.9849,-2.9358,-2.8866,-2.8757,-2.8757,-2.8757,-2.8757,-2.8757,-2.8757,-2.8757,-2.8757,-2.8664,-2.8488,-2.829,-2.7904,-2.7726,-2.7547,-2.7347,-2.7081,-2.69,-2.6794,-2.64,-2.61,-2.5917,-2.5732,-2.544,-2.5342,-2.4833,-2.443,-2.444,-2.4152,-2.3963,-2.3773,-2.3555,-2.3364,-2.3007,-2.3488,-2.3633,-2.3479,-2.4098,-2.4344,-2.4264,-2.4264,-2.4033,-2.3697,-2.3585,-2.3472,-2.3247,-2.3127,-2.3101,-2.326,-2.3502,-2.3614,-2.36,-4.309,-4.331,-4.3393,-4.3573,-4.3245,-4.2887,-4.2887,-4.2887,-4.2819,-4.2629,-4.2765,-4.2722,-4.2339,-4.2404,-4.2302,-4.1895,-4.1796,-4.1597,-4.1311,-4.1311,-4.1211,-4.0997,-4.0707,-4.0389,-4.0185,-3.9525,-3.9044,-3.8868,-3.8266,-3.7593,-3.6764,-3.6566,-3.6075,-3.5271,-3.5466,-3.5478,-3.5524,-3.5812,-3.6015,-3.6098,-3.637,-3.6358,-3.6358,-3.6358,-3.6358,-3.6358,-3.5908,-3.5716,-3.5524,-3.5126,-3.4726,-3.4531,-3.4433,-3.415,-3.3779,-3.3281,-3.2969,-3.2757,-3.2656,-3.1773,-3.0789,-3.0384,-2.9825,-2.9172,-2.8833,-2.8757,-2.8757,-2.8757,-2.8757,-2.8757,-2.8757,-2.8757,-2.8757,-2.8757,-2.8675,-2.8384,-2.8196,-2.7904,-2.7631,-2.7452,-2.7177,-2.6986,-2.69,-2.6602,-2.6294,-2.6091,-2.5917,-2.5625,-2.5333,-2.4833,-2.4637,-2.4529,-2.4341,-2.4062,-2.3981,-2.3863,-2.3573,-2.3217,-2.3947,-2.4088,-2.4008,-2.468,-2.4812,-2.4701,-2.4599,-2.4376,-2.4033,-2.3817,-2.3697,-2.3585,-2.3239,-2.3135,-2.3175,-2.3419,-2.3465,-2.3386,-4.2458,-4.2606,-4.2923,-4.3504,-4.3245,-4.2887,-4.2887,-4.2887,-4.2683,-4.2086,-4.2521,-4.2656,-4.2073,-4.2342,-4.24,-4.2079,-4.1881,-4.1597,-4.1311,-4.1311,-4.1311,-4.1311,-4.0808,-4.0504,-4.0504,-3.9993,-3.9421,-3.8881,-3.8881,-3.8479,-3.7606,-3.7606,-3.7221,-3.6432,-3.6419,-3.6234,-3.6028,-3.6015,-3.6193,-3.6358,-3.6358,-3.6358,-3.6358,-3.6358,-3.6358,-3.6358,-3.6098,-3.5824,-3.5524,-3.532,-3.503,-3.4726,-3.4531,-3.4249,-3.4075,-3.3779,-3.3481,-3.3281,-3.2992,-3.1935,-3.0964,-3.0685,-2.9657,-2.8757,-2.8757,-2.8757,-2.8757,-2.8757,-2.8757,-2.8757,-2.8757,-2.8757,-2.8757,-2.8757,-2.8757,-2.8664,-2.8395,-2.8196,-2.7904,-2.7631,-2.7452,-2.7177,-2.69,-2.69,-2.6699,-2.61,-2.61,-2.5907,-2.5333,-2.5039,-2.4735,-2.4529,-2.435,-2.4152,-2.4152,-2.3954,-2.3755,-2.3764,-2.4239,-2.4508,-2.4535,-2.499,-2.5221,-2.5221,-2.4923,-2.4599,-2.4384,-2.4376,-2.4153,-2.3921,-2.3585,-2.3472,-2.3513,-2.3526,-2.3307,-2.3053,-4.2458,-4.2606,-4.2923,-4.3504,-4.3245,-4.2887,-4.2887,-4.2887,-4.2833,-4.2656,-4.2778,-4.2819,-4.2643,-4.2682,-4.2595,-4.2177,-4.2079,-4.1796,-4.1311,-4.1311,-4.1311,-4.1311,-4.0808,-4.0504,-4.0504,-3.9993,-3.9609,-3.9446,-3.9446,-3.9055,-3.8189,-3.8189,-3.7803,-3.706,-3.6776,-3.6601,-3.6525,-3.6343,-3.637,-3.6358,-3.6358,-3.6358,-3.6358,-3.6358,-3.6358,-3.6358,-3.6098,-3.592,-3.5812,-3.532,-3.5126,-3.503,-3.4531,-3.4335,-3.4249,-3.4075,-3.3779,-3.358,-3.3481,-3.2339,-3.1179,-3.0685,-2.9752,-2.8943,-2.885,-2.8757,-2.8757,-2.8757,-2.8757,-2.8757,-2.8757,-2.8757,-2.8757,-2.8757,-2.8757,-2.8664,-2.8395,-2.8196,-2.7904,-2.7631,-2.7452,-2.7262,-2.7167,-2.6996,-2.6794,-2.64,-2.6014,-2.5732,-2.5635,-2.5342,-2.5137,-2.5039,-2.4637,-2.444,-2.444,-2.4143,-2.4136,-2.4203,-2.4625,-2.487,-2.4952,-2.5339,-2.5569,-2.5569,-2.5238,-2.5017,-2.4906,-2.459,-2.4376,-2.4264,-2.3921,-2.3809,-2.3705,-2.3594,-2.3568,-2.3693,-4.2312,-4.2425,-4.2554,-4.3381,-4.3163,-4.2887,-4.2887,-4.2887,-4.2887,-4.2887,-4.2887,-4.2887,-4.279,-4.2693,-4.2498,-4.1993,-4.1895,-4.1696,-4.1311,-4.1311,-4.1311,-4.1311,-4.0909,-4.0605,-4.0504,-4.0096,-3.9788,-3.9697,-3.9697,-3.9418,-3.8978,-3.8978,-3.8577,-3.7941,-3.7693,-3.7392,-3.6955,-3.6822,-3.6558,-3.6358,-3.6358,-3.6358,-3.6358,-3.6358,-3.6358,-3.6358,-3.6181,-3.6098,-3.592,-3.562,-3.5428,-3.5126,-3.4726,-3.4531,-3.4531,-3.4249,-3.4064,-3.3965,-3.3878,-3.2978,-3.1814,-3.1224,-3.0047,-2.9035,-2.8943,-2.885,-2.8757,-2.8757,-2.8757,-2.8757,-2.8757,-2.8757,-2.8757,-2.8757,-2.8757,-2.8757,-2.8571,-2.829,-2.7904,-2.782,-2.7441,-2.7262,-2.7262,-2.7177,-2.689,-2.6496,-2.611,-2.583,-2.5742,-2.544,-2.5333,-2.5333,-2.4833,-2.4637,-2.4637,-2.4538,-2.449,-2.4579,-2.4896,-2.5249,-2.5442,-2.5729,-2.5907,-2.5798,-2.556,-2.545,-2.534,-2.4915,-2.4693,-2.4693,-2.4256,-2.4144,-2.4033,-2.3809,-2.3836,-2.3926,-4.1903,-4.1896,-4.2021,-4.3081,-4.3039,-4.2887,-4.2887,-4.2887,-4.2887,-4.2887,-4.2887,-4.279,-4.2511,-4.2511,-4.2302,-4.1696,-4.1411,-4.1311,-4.1311,-4.1311,-4.1311,-4.1311,-4.1097,-4.0795,-4.0504,-4.0287,-3.9981,-3.9697,-3.9697,-3.9697,-3.9697,-3.9697,-3.9421,-3.8944,-3.8894,-3.8266,-3.7262,-3.7211,-3.686,-3.6358,-3.6358,-3.6358,-3.6358,-3.6358,-3.6358,-3.6358,-3.6358,-3.6275,-3.6015,-3.6015,-3.562,-3.5223,-3.4932,-3.4835,-3.4835,-3.4531,-3.4433,-3.4347,-3.4162,-3.3578,-3.275,-3.1976,-3.0552,-2.9265,-2.9139,-2.8943,-2.8757,-2.8757,-2.8757,-2.8757,-2.8757,-2.8757,-2.8757,-2.8757,-2.8757,-2.8757,-2.8757,-2.8373,-2.7998,-2.7998,-2.7631,-2.7262,-2.7262,-2.7262,-2.7071,-2.6496,-2.6294,-2.6004,-2.5732,-2.544,-2.5333,-2.5333,-2.5039,-2.4932,-2.4932,-2.4932,-2.4852,-2.4886,-2.5282,-2.5678,-2.6083,-2.6163,-2.6236,-2.6127,-2.5907,-2.5798,-2.5679,-2.534,-2.5221,-2.5229,-2.4701,-2.4487,-2.4487,-2.4144,-2.4024,-2.4074,-4.136,-4.1501,-4.1685,-4.2438,-4.2767,-4.2887,-4.2887,-4.2887,-4.2887,-4.2887,-4.2693,-4.2609,-4.2511,-4.2289,-4.2092,-4.1696,-4.1411,-4.1311,-4.1311,-4.1311,-4.1311,-4.1311,-4.1211,-4.111,-4.0795,-4.0377,-3.9981,-3.9697,-3.9697,-3.9697,-3.9697,-3.9697,-3.9634,-3.9496,-3.9057,-3.8479,-3.7801,-3.7362,-3.686,-3.6358,-3.6358,-3.6358,-3.6358,-3.6358,-3.6358,-3.6358,-3.6358,-3.6358,-3.6275,-3.6098,-3.5812,-3.5512,-3.5416,-3.5428,-3.532,-3.5126,-3.4932,-3.4628,-3.4433,-3.3761,-3.3039,-3.2239,-3.1272,-3.0339,-2.9309,-2.8943,-2.8757,-2.8757,-2.8757,-2.8757,-2.8757,-2.8757,-2.8757,-2.8757,-2.8757,-2.8757,-2.8757,-2.8373,-2.7998,-2.7998,-2.7631,-2.7262,-2.7262,-2.7081,-2.689,-2.6496,-2.6294,-2.6004,-2.5732,-2.5635,-2.5635,-2.5635,-2.5333,-2.5235,-2.5235,-2.503,-2.5041,-2.5355,-2.5778,-2.6191,-2.6623,-2.692,-2.6989,-2.6772,-2.6554,-2.6227,-2.6017,-2.5679,-2.5569,-2.5569,-2.5467,-2.5467,-2.5357,-2.5008,-2.4787,-2.4582,-4.0988,-4.1314,-4.1538,-4.2072,-4.2589,-4.2887,-4.2887,-4.2887,-4.2887,-4.2693,-4.2609,-4.2413,-4.2105,-4.1993,-4.1796,-4.1511,-4.1411,-4.1311,-4.1311,-4.1311,-4.1311,-4.1311,-4.1311,-4.1198,-4.0896,-4.058,-4.0389,-4.0096,-4.0096,-3.9993,-3.989,-3.989,-3.9788,-3.9672,-3.912,-3.8542,-3.7965,-3.7412,-3.686,-3.6358,-3.6358,-3.6358,-3.6358,-3.6358,-3.6358,-3.6358,-3.6358,-3.6358,-3.6358,-3.6098,-3.592,-3.5812,-3.562,-3.562,-3.562,-3.5428,-3.532,-3.5126,-3.4823,-3.4425,-3.373,-3.2582,-3.1819,-3.1052,-2.9561,-2.9128,-2.8943,-2.885,-2.8757,-2.8757,-2.8757,-2.8757,-2.8757,-2.8757,-2.8757,-2.8757,-2.8757,-2.8373,-2.7998,-2.7998,-2.7631,-2.7262,-2.7262,-2.7177,-2.6986,-2.6699,-2.64,-2.6197,-2.5917,-2.5732,-2.5742,-2.5742,-2.5538,-2.5538,-2.5538,-2.5333,-2.5544,-2.5968,-2.6075,-2.6399,-2.6835,-2.7242,-2.7323,-2.7206,-2.6989,-2.6772,-2.6554,-2.6227,-2.6008,-2.5907,-2.5798,-2.5688,-2.5688,-2.5459,-2.534,-2.5119,-4.0659,-4.0968,-4.1295,-4.1747,-4.2344,-4.2765,-4.2873,-4.2887,-4.279,-4.2511,-4.2498,-4.2204,-4.1796,-4.1696,-4.1498,-4.1311,-4.1311,-4.1311,-4.1311,-4.1311,-4.1311,-4.1311,-4.1311,-4.1211,-4.0997,-4.0997,-4.0795,-4.0504,-4.0504,-4.0402,-4.0185,-4.0185,-3.9993,-3.9762,-3.9221,-3.8655,-3.7965,-3.7412,-3.686,-3.6358,-3.6358,-3.6358,-3.6358,-3.6358,-3.6358,-3.6358,-3.6358,-3.6358,-3.6358,-3.6098,-3.6098,-3.6003,-3.5812,-3.5716,-3.5716,-3.5716,-3.5716,-3.562,-3.532,-3.503,-3.4474,-3.3031,-3.2312,-3.149,-2.9998,-2.9301,-2.9035,-2.885,-2.885,-2.8757,-2.8757,-2.8757,-2.8757,-2.8757,-2.8757,-2.8757,-2.8757,-2.8279,-2.7987,-2.7904,-2.7536,-2.7262,-2.7262,-2.7262,-2.7167,-2.69,-2.6699,-2.64,-2.6091,-2.582,-2.5742,-2.5742,-2.5742,-2.5742,-2.5742,-2.5742,-2.5957,-2.6396,-2.6391,-2.6503,-2.694,-2.7349,-2.7539,-2.7539,-2.7539,-2.7314,-2.7098,-2.6881,-2.6554,-2.6345,-2.6017,-2.5898,-2.5898,-2.5789,-2.5798,-2.5679,-4.0106,-4.0247,-4.0499,-4.1123,-4.1734,-4.2304,-4.2806,-4.2887,-4.279,-4.2511,-4.2289,-4.2079,-4.1696,-4.1511,-4.1311,-4.1311,-4.1311,-4.1311,-4.1311,-4.1311,-4.1311,-4.1311,-4.1311,-4.1311,-4.1211,-4.1211,-4.101,-4.0504,-4.0504,-4.0504,-4.0402,-4.0402,-4.0287,-4.0058,-3.9525,-3.8755,-3.7965,-3.7412,-3.686,-3.6358,-3.6358,-3.6358,-3.6358,-3.6358,-3.6358,-3.6358,-3.6358,-3.6358,-3.6358,-3.6358,-3.637,-3.637,-3.6263,-3.6263,-3.6275,-3.6003,-3.592,-3.5908,-3.562,-3.532,-3.4872,-3.3513,-3.277,-3.2031,-3.0445,-2.9577,-2.9128,-2.9035,-2.8943,-2.8757,-2.8757,-2.8757,-2.8757,-2.8757,-2.8757,-2.8757,-2.8488,-2.8196,-2.7904,-2.7726,-2.7441,-2.7262,-2.7262,-2.7262,-2.7167,-2.69,-2.6699,-2.64,-2.6091,-2.582,-2.5742,-2.5742,-2.5742,-2.5742,-2.5742,-2.5742,-2.5957,-2.6396,-2.6705,-2.7143,-2.7571,-2.7989,-2.8077,-2.7853,-2.7853,-2.7638,-2.7323,-2.7323,-2.7323,-2.7215,-2.6881,-2.6772,-2.6772,-2.6236,-2.6017,-2.6017,-3.9848,-4.0062,-4.0268,-4.0553,-4.1381,-4.2086,-4.2358,-4.2587,-4.2595,-4.2289,-4.2092,-4.1796,-4.1511,-4.1411,-4.1311,-4.1311,-4.1311,-4.1311,-4.1311,-4.1311,-4.1311,-4.1311,-4.1311,-4.1311,-4.1311,-4.1311,-4.1211,-4.0909,-4.0909,-4.0909,-4.0694,-4.0694,-4.0593,-4.0249,-3.9282,-3.8564,-3.8162,-3.7195,-3.6584,-3.6358,-3.6358,-3.6358,-3.6358,-3.6358,-3.6358,-3.6358,-3.6358,-3.6358,-3.6358,-3.6358,-3.6358,-3.6358,-3.6358,-3.6358,-3.6358,-3.6275,-3.6181,-3.6181,-3.5908,-3.562,-3.5064,-3.3699,-3.305,-3.2311,-3.081,-3.0034,-2.9577,-2.922,-2.9035,-2.8943,-2.885,-2.8757,-2.8757,-2.8757,-2.8664,-2.8581,-2.8395,-2.8008,-2.7726,-2.7441,-2.7347,-2.7262,-2.7262,-2.7262,-2.7262,-2.7177,-2.689,-2.6602,-2.6304,-2.611,-2.582,-2.5742,-2.5742,-2.5742,-2.5742,-2.5742,-2.6074,-2.6738,-2.6924,-2.7246,-2.7685,-2.8096,-2.8291,-2.8077,-2.8077,-2.796,-2.7638,-2.7638,-2.7539,-2.7431,-2.7323,-2.7206,-2.7215,-2.6881,-2.6781,-2.6781]},{"header":{"parameterUnit":"m.s-1","parameterCategory":1,"la1":30.6,"la2":28.766,"lo1":-90.7593,"lo2":-88.6598,"dy":0.0162,"dx":0.0183,"nx":116,"ny":114,"refTime":"2023-06-17T12:00:00:Z","depth":0,"parameterNumber":3,"parameterNumberName":"V-component_of_WINDS"},"data":[0.0,0.0,0.0,0.0,0.0,0.0,0.0,0.0,0.0,0.0,0.0,0.0,0.0,0.0,0.0,0.0,0.0,0.0,0.0,0.0,0.0,0.0,0.0,0.0,0.0,0.0,0.0,0.0,0.0,0.0,0.0,0.0,0.0,0.0,0.0,0.0,0.0,0.0,0.0,0.0,0.0,0.0,0.0,0.0,0.0,0.0,0.0,0.0,0.0,0.0,0.0,0.0,0.0,0.0,0.0,0.0,0.0,0.0,0.0,0.0,0.0,0.0,0.0,0.0,0.0,0.0,0.0,0.0,0.0,0.0,0.0,0.0,0.0,0.0,0.0,0.0,0.0,0.0,0.0,0.0,0.0,0.0,0.0,0.0,0.0,0.0,0.0,0.0,0.0,0.0,0.0,0.0,0.0,0.0,0.0,0.0,0.0,0.0,0.0,0.0,0.0,0.0,0.0,0.0,0.0,0.0,0.0,0.0,0.0,0.0,0.0,0.0,0.0,0.0,0.0,0.0,0.0,0.0,0.0,0.0,0.0,0.0,0.0,0.0,0.0,0.0,0.0,0.0,0.0,0.0,0.0,0.0,0.0,0.0,0.0,0.0,0.0,0.0,0.0,0.0,0.0,0.0,0.0,0.0,0.0,0.0,0.0,0.0,0.0,0.0,0.0,0.0,0.0,0.0,0.0,0.0,0.0,0.0,0.0,0.0,0.0,0.0,0.0,0.0,0.0,0.0,0.0,0.0,0.0,0.0,0.0,0.0,0.0,0.0,0.0,0.0,0.0,0.0,0.0,0.0,0.0,0.0,0.0,0.0,0.0,0.0,0.0,0.0,0.0,0.0,0.0,0.0,0.0,0.0,0.0,0.0,0.0,0.0,0.0,0.0,0.0,0.0,0.0,0.0,0.0,0.0,0.0,0.0,0.0,0.0,0.0,0.0,0.0,0.0,0.0,0.0,0.0,0.0,0.0,0.0,0.0,0.0,0.0,0.0,0.0,0.0,0.0,0.0,0.0,0.0,0.0,0.0,0.0,0.0,0.0,0.0,0.0,0.0,0.0,0.0,0.0,0.0,0.0,0.0,0.0,0.0,0.0,0.0,0.0,0.0,0.0,0.0,0.0,0.0,0.0,0.0,0.0,0.0,0.0,0.0,0.0,0.0,0.0,0.0,0.0,0.0,0.0,0.0,0.0,0.0,0.0,0.0,0.0,0.0,0.0,0.0,0.0,0.0,0.0,0.0,0.0,0.0,0.0,0.0,0.0,0.0,0.0,0.0,0.0,0.0,0.0,0.0,0.0,0.0,0.0,0.0,0.0,0.0,0.0,0.0,0.0,0.0,0.0,0.0,0.0,0.0,0.0,0.0,0.0,0.0,0.0,0.0,0.0,0.0,0.0,0.0,0.0,0.0,0.0,0.0,0.0,0.0,0.0,0.0,0.0,0.0,0.0,0.0,0.0,0.0,0.0,0.0,0.0,0.0,0.0,0.0,0.0,0.0,0.0,0.0,0.0,0.0,0.0,0.0,0.0,0.0,0.0,0.0,0.0,0.0,0.0,0.0,0.0,0.0,0.0,0.0,0.0,0.0,0.0,0.0,0.0,0.0,0.0,0.0,0.0,0.0,0.0,0.0,0.0,0.0,0.0,0.0,0.0,0.0,0.0,0.0,0.0,0.0,0.0,0.0,0.0,0.0,0.0,0.0,0.0,0.0,0.0,0.0,0.0,0.0,0.0,0.0,0.0,0.0,0.0,0.0,0.0,0.0,0.0,0.0,0.0,0.0,0.0,0.0,0.0,0.0,0.0,0.0,0.0,0.0,0.0,0.0,0.0,0.0,0.0,0.0,0.0,0.0,0.0,0.0,0.0,0.0,0.0,0.0,0.0,0.0,0.0,0.0,0.0,0.0,0.0,0.0,0.0,0.0,0.0,0.0,0.0,0.0,0.0,0.0,0.0,0.0,0.0,0.0,0.0,0.0,0.0,0.0,0.0,0.0,0.0,0.0,0.0,0.0,0.0,0.0,0.0,0.0,0.0,0.0,0.0,0.0,0.0,0.0,0.0,0.0,0.0,0.0,0.0,0.0,0.0,0.0,0.0,0.0,0.0,0.0,0.0,0.0,0.0,0.0,0.0,0.0,0.0,0.0,0.0,0.0,0.0,0.0,0.0,0.0,0.0,0.0,0.0,0.0,0.0,0.0,0.0,0.0,0.0,0.0,0.0,0.0,0.0,0.0,0.0,0.0,0.0,0.0,0.0,0.0,0.0,0.0,0.0,0.0,0.0,0.0,0.0,0.0,0.0,0.0,0.0,0.0,0.0,0.0,0.0,0.0,0.0,0.0,0.0,0.0,0.0,0.0,0.0,0.0,0.0,0.0,0.0,0.0,0.0,0.0,0.0,0.0,0.0,0.0,0.0,0.0,0.0,0.0,0.0,0.0,0.0,0.0,0.0,0.0,0.0,0.0,0.0,0.0,0.0,0.0,0.0,0.0,0.0,0.0,0.0,0.0,0.0,0.0,0.0,0.0,0.0,0.0,0.0,0.0,0.0,0.0,0.0,0.0,0.0,0.0,0.0,0.0,0.0,0.0,0.0,0.0,0.0,0.0,0.0,0.0,0.0,0.0,0.0,0.0,0.0,0.0,0.0,0.0,0.0,0.0,0.0,0.0,0.0,0.0,0.0,0.0,0.0,0.0,0.0,0.0,0.0,0.0,0.0,0.0,0.0,0.0,0.0,0.0,0.0,0.0,0.0,0.0,0.0,0.0,0.0,0.0,0.0,0.0,0.0,0.0,0.0,0.0,0.0,0.0,0.0,0.0,0.0,0.0,0.0,0.0,0.0,0.0,0.0,0.0,0.0,0.0,0.0,0.0,0.0,0.0,0.0,0.0,0.0,0.0,0.0,0.0,0.0,0.0,0.0,0.0,0.0,0.0,0.0,0.0,0.0,0.0,0.0,0.0,0.0,0.0,0.0,0.0,0.0,0.0,0.0,0.0,0.0,0.0,0.0,0.0,0.0,0.0,0.0,0.0,0.0,0.0,0.0,0.0,0.0,0.0,0.0,0.0,0.0,0.0,0.0,0.0,0.0,0.0,0.0,0.0,0.0,0.0,0.0,0.0,0.0,0.0,0.0,0.0,0.0,0.0,0.0,0.0,0.0,0.0,0.0,0.0,0.0,0.0,0.0,0.0,0.0,0.0,0.0,0.0,0.0,0.0,0.0,0.0,0.0,0.0,0.0,0.0,0.0,0.0,0.0,0.0,0.0,0.0,0.0,0.0,0.0,0.0,0.0,0.0,0.0,0.0,0.0,0.0,0.0,0.0,0.0,0.0,0.0,0.0,0.0,0.0,0.0,0.0,0.0,0.0,0.0,0.0,0.0,0.0,0.0,0.0,0.0,0.0,0.0,0.0,0.0,0.0,0.0,0.0,0.0,0.0,0.0,0.0,0.0,0.0,0.0,0.0,0.0,0.0,0.0,0.0,0.0,0.0,0.0,0.0,0.0,0.0,0.0,0.0,0.0,0.0,0.0,0.0,0.0,0.0,0.0,0.0,0.0,0.0,0.0,0.0,0.0,0.0,0.0,0.0,0.0,0.0,0.0,0.0,0.0,0.0,0.0,0.0,0.0,0.0,0.0,0.0,0.0,0.0,0.0,0.0,0.0,0.0,0.0,0.0,0.0,0.0,0.0,0.0,0.0,0.0,0.0,0.0,0.0,0.0,0.0,0.0,0.0,0.0,0.0,0.0,0.0,0.0,0.0,0.0,0.0,0.0,0.0,0.0,0.0,0.0,0.0,0.0,0.0,0.0,0.0,0.0,0.0,0.0,0.0,0.0,0.0,0.0,0.0,0.0,0.0,0.0,0.0,0.0,0.0,0.0,0.0,0.0,0.0,0.0,0.0,0.0,0.0,0.0,0.0,0.0,0.0,0.0,0.0,0.0,0.0,0.0,0.0,0.0,0.0,0.0,0.0,0.0,0.0,0.0,0.0,0.0,0.0,0.0,0.0,0.0,0.0,0.0,0.0,0.0,0.0,0.0,0.0,0.0,0.0,0.0,0.0,0.0,0.0,0.0,0.0,0.0,0.0,0.0,0.0,0.0,0.0,0.0,0.0,0.0,0.0,0.0,0.0,0.0,0.0,0.0,0.0,0.0,0.0,0.0,0.0,0.0,0.0,0.0,0.0,0.0,0.0,0.0,0.0,0.0,0.0,0.0,0.0,0.0,0.0,0.0,0.0,0.0,0.0,0.0,0.0,0.0,0.0,0.0,0.0,0.0,0.0,0.0,0.0,0.0,0.0,0.0,0.0,0.0,0.0,0.0,0.0,0.0,0.0,0.0,0.0,0.0,0.0,0.0,0.0,0.0,0.0,0.0,0.0,0.0,0.0,0.0,0.0,0.0,0.0,0.0,0.0,0.0,0.0,0.0,0.0,0.0,0.0,0.0,0.0,0.0,0.0,0.0,0.0,0.0,0.0,0.0,0.0,0.0,0.0,0.0,0.0,0.0,0.0,0.0,0.0,0.0,0.0,0.0,0.0,0.0,0.0,0.0,0.0,0.0,0.0,0.0,0.0,0.0,0.0,0.0,0.0,0.0,0.0,0.0,0.0,0.0,0.0,0.0,0.0,0.0,0.0,0.0,0.0,0.0,0.0,0.0,0.0,0.0,0.0,0.0,0.0,0.0,0.0,0.0,0.0,0.0,0.0,0.0,0.0,0.0,0.0,0.0,0.0,0.0,0.0,0.0,0.0,0.0,0.0,0.0,0.0,0.0,0.0,0.0,0.0,0.0,0.0,0.0,0.0,0.0,0.0,0.0,0.0,0.0,0.0,0.0,0.0,0.0,0.0,0.0,0.0,0.0,0.0,0.0,0.0,0.0,0.0,0.0,0.0,0.0,0.0,0.0,0.0,0.0,0.0,0.0,0.0,0.0,0.0,0.0,0.0,0.0,0.0,0.0,0.0,0.0,0.0,0.0,0.0,0.0,0.0,0.0,0.0,0.0,0.0,0.0,0.0,0.0,0.0,0.0,0.0,0.0,0.0,0.0,0.0,0.0,0.0,0.0,0.0,0.0,0.0,0.0,0.0,0.0,0.0,0.0,0.0,0.0,0.0,0.0,0.0,0.0,0.0,0.0,0.0,0.0,0.0,0.0,0.0,0.0,0.0,0.0,0.0,0.0,0.0,0.0,0.0,0.0,0.0,0.0,0.0,0.0,0.0,0.0,0.0,0.0,0.0,0.0,0.0,0.0,0.0,0.0,0.0,0.0,0.0,0.0,0.0,0.0,0.0,0.0,0.0,0.0,0.0,0.0,0.0,0.0,0.0,0.0,0.0,0.0,0.0,0.0,0.0,0.0,0.0,0.0,0.0,0.0,0.0,0.0,0.0,0.0,0.0,0.0,0.0,0.0,0.0,0.0,0.0,0.0,0.0,0.0,0.0,0.0,0.0,0.0,0.0,0.0,0.0,0.0,0.0,0.0,0.0,0.0,0.0,0.0,0.0,0.0,0.0,0.0,0.0,0.0,0.0,0.0,0.0,0.0,0.0,0.0,0.0,0.0,0.0,0.0,0.0,0.0,0.0,0.0,0.0,0.0,0.0,0.0,0.0,0.0,0.0,0.0,0.0,0.0,0.0,0.0,0.0,0.0,0.0,0.0,0.0,0.0,0.0,0.0,0.0,0.0,0.0,0.0,0.0,0.0,0.0,0.0,0.0,0.0,0.0,0.0,0.0,0.0,0.0,0.0,0.0,0.0,0.0,0.0,0.0,0.0,0.0,0.0,0.0,0.0,0.0,0.0,0.0,0.0,0.0,0.0,0.0,0.0,0.0,0.0,0.0,0.0,0.0,0.0,0.0,0.0,0.0,0.0,0.0,0.0,0.0,0.0,0.0,0.0,0.0,0.0,0.0,0.0,0.0,0.0,0.0,0.0,0.0,0.0,0.0,0.0,0.0,0.0,0.0,0.0,0.0,0.0,0.0,0.0,0.0,0.0,0.0,0.0,0.0,0.0,0.0,0.0,0.0,0.0,0.0,0.0,0.0,0.0,0.0,0.0,0.0,0.0,0.0,0.0,0.0,0.0,0.0,0.0,0.0,0.0,0.0,0.0,-2.0429,0.0,0.0,0.0,0.0,0.0,0.0,0.0,0.0,0.0,0.0,0.0,0.0,0.0,0.0,0.0,0.0,0.0,0.0,0.0,0.0,0.0,0.0,0.0,0.0,0.0,0.0,0.0,0.0,0.0,0.0,0.0,0.0,0.0,0.0,0.0,0.0,0.0,0.0,0.0,0.0,0.0,0.0,0.0,0.0,0.0,0.0,0.0,0.0,0.0,0.0,0.0,0.0,0.0,0.0,0.0,0.0,0.0,0.0,0.0,0.0,0.0,0.0,0.0,0.0,0.0,0.0,0.0,0.0,0.0,0.0,0.0,0.0,0.0,0.0,0.0,0.0,0.0,0.0,0.0,0.0,0.0,0.0,0.0,0.0,0.0,0.0,0.0,0.0,0.0,0.0,0.0,0.0,0.0,0.0,0.0,0.0,0.0,0.0,0.0,0.0,0.0,0.0,0.0,0.0,0.0,0.0,0.0,0.0,0.0,0.0,0.0,0.0,0.0,0.0,0.0,0.0,-2.1377,0.0,0.0,0.0,0.0,0.0,0.0,0.0,0.0,0.0,0.0,0.0,0.0,0.0,0.0,0.0,0.0,0.0,0.0,0.0,0.0,0.0,0.0,0.0,0.0,0.0,0.0,0.0,0.0,0.0,0.0,0.0,0.0,0.0,0.0,0.0,0.0,0.0,0.0,0.0,0.0,0.0,0.0,0.0,0.0,0.0,0.0,0.0,0.0,0.0,0.0,0.0,0.0,0.0,0.0,0.0,0.0,0.0,0.0,0.0,0.0,0.0,0.0,0.0,0.0,0.0,0.0,0.0,0.0,0.0,0.0,0.0,0.0,0.0,0.0,0.0,0.0,0.0,0.0,0.0,0.0,0.0,0.0,0.0,0.0,0.0,0.0,0.0,0.0,0.0,0.0,0.0,0.0,0.0,0.0,0.0,0.0,0.0,0.0,0.0,0.0,0.0,0.0,0.0,0.0,0.0,0.0,0.0,0.0,-2.6107,-2.652,-2.7237,-2.7226,-2.7614,-2.8149,-2.52,-2.3821,-2.3603,-2.2738,0.0,0.0,0.0,0.0,0.0,0.0,0.0,0.0,0.0,0.0,0.0,0.0,0.0,0.0,0.0,0.0,0.0,0.0,0.0,0.0,0.0,0.0,0.0,0.0,0.0,0.0,0.0,0.0,0.0,0.0,0.0,0.0,0.0,0.0,0.0,0.0,0.0,0.0,-1.8032,-1.7975,-1.7838,-1.7441,0.0,0.0,0.0,0.0,0.0,0.0,0.0,0.0,0.0,0.0,0.0,0.0,0.0,0.0,0.0,0.0,0.0,0.0,0.0,0.0,0.0,0.0,0.0,0.0,0.0,0.0,0.0,0.0,0.0,0.0,0.0,0.0,0.0,0.0,0.0,0.0,0.0,0.0,0.0,0.0,0.0,0.0,0.0,0.0,-1.7296,-1.8409,0.0,0.0,0.0,0.0,0.0,0.0,0.0,0.0,0.0,0.0,0.0,0.0,0.0,-2.6487,-2.7488,-2.7578,-2.7692,-2.7863,-2.7881,-2.7963,-2.8127,-2.8135,-2.8182,-2.8277,-2.7804,0.0,-2.633,-2.544,0.0,0.0,0.0,0.0,0.0,0.0,0.0,0.0,0.0,0.0,0.0,0.0,0.0,0.0,0.0,0.0,0.0,0.0,0.0,0.0,0.0,0.0,0.0,0.0,0.0,0.0,0.0,0.0,0.0,0.0,0.0,0.0,0.0,0.0,0.0,0.0,-1.948,-2.0131,-2.0479,-2.084,-2.0742,-2.0236,-1.8608,-1.691,-1.5255,-1.4728,0.0,0.0,0.0,0.0,0.0,0.0,0.0,0.0,0.0,0.0,0.0,0.0,0.0,0.0,0.0,0.0,0.0,0.0,0.0,0.0,0.0,0.0,0.0,0.0,0.0,0.0,0.0,0.0,0.0,0.0,0.0,0.0,0.0,0.0,0.0,0.0,0.0,0.0,0.0,-1.688,-1.8545,-1.9645,-2.0662,-2.1342,0.0,0.0,0.0,0.0,0.0,0.0,0.0,0.0,0.0,-2.7719,-2.8372,-2.9166,-3.0134,-3.0195,-3.0489,-3.1015,-3.1056,-3.1086,-3.1106,-3.1148,-3.1163,-3.117,-3.1172,-3.0931,-3.0378,-2.803,-2.6543,-2.563,0.0,0.0,0.0,0.0,-2.0943,-2.0001,0.0,0.0,0.0,0.0,0.0,0.0,0.0,0.0,0.0,0.0,0.0,0.0,0.0,0.0,0.0,-1.6607,0.0,0.0,0.0,0.0,0.0,0.0,0.0,0.0,0.0,0.0,0.0,0.0,-2.1408,-2.197,-2.2417,-2.2978,-2.2911,-2.2298,-2.1673,-1.9986,-1.7548,-1.6757,-1.5898,0.0,0.0,0.0,0.0,0.0,0.0,0.0,0.0,0.0,0.0,0.0,0.0,0.0,0.0,0.0,0.0,0.0,0.0,0.0,0.0,0.0,0.0,0.0,0.0,0.0,0.0,0.0,0.0,0.0,0.0,0.0,0.0,0.0,0.0,0.0,0.0,0.0,0.0,-1.8801,-2.0106,-2.1062,-2.2224,-2.2971,0.0,0.0,0.0,0.0,0.0,0.0,-2.6742,-2.7803,-2.8916,-3.006,-3.0859,-3.156,-3.2124,-3.2173,-3.2543,-3.3196,-3.3252,-3.3282,-3.3298,-3.3356,-3.3373,-3.3402,-3.3393,-3.3398,-3.3162,-3.0113,-2.8486,-2.7792,-2.6693,-2.5613,-2.4631,-2.4417,-2.3536,-2.2481,0.0,0.0,0.0,0.0,0.0,0.0,0.0,0.0,0.0,0.0,0.0,0.0,0.0,0.0,-1.8154,-1.8784,-1.9425,-1.9732,0.0,0.0,0.0,0.0,0.0,0.0,0.0,0.0,0.0,-2.2198,-2.306,-2.3502,-2.3534,-2.3583,-2.3533,-2.35,-2.3418,-2.1921,-1.95,-1.8625,-1.7463,-1.6212,0.0,0.0,0.0,0.0,0.0,0.0,0.0,0.0,0.0,0.0,0.0,0.0,0.0,0.0,0.0,0.0,0.0,0.0,0.0,0.0,0.0,0.0,0.0,0.0,0.0,0.0,0.0,0.0,0.0,0.0,0.0,0.0,0.0,0.0,0.0,0.0,0.0,0.0,0.0,-2.32,-2.4706,0.0,0.0,0.0,0.0,-2.7486,-2.7438,-2.7976,-2.9345,-2.8223,-2.9353,-3.3236,-3.3539,-3.345,-3.304,-3.3045,-3.3091,-3.3196,-3.3196,-3.3239,-3.3292,-3.3298,-3.3336,-3.3402,-3.3395,-3.3402,-3.3254,-3.142,-3.0638,-3.0434,-2.8723,-2.7078,-2.5616,-2.5531,-2.4475,-2.329,0.0,0.0,0.0,0.0,0.0,0.0,0.0,0.0,0.0,0.0,0.0,0.0,0.0,-1.8523,-1.892,-1.9644,-1.99,-1.9976,-1.9942,0.0,0.0,0.0,0.0,0.0,0.0,0.0,-2.3454,-2.4629,-2.4925,-2.5566,-2.6482,-2.6482,-2.6482,-2.6449,-2.5464,-2.4544,-2.3527,-2.1167,-1.9814,-1.9137,-1.7839,-1.6733,0.0,0.0,0.0,0.0,0.0,0.0,0.0,0.0,0.0,0.0,0.0,0.0,0.0,0.0,0.0,0.0,0.0,0.0,0.0,0.0,0.0,0.0,0.0,0.0,0.0,0.0,0.0,0.0,0.0,0.0,0.0,0.0,0.0,0.0,0.0,0.0,0.0,-2.4985,-2.6682,0.0,-2.7963,-2.9245,-3.0176,-3.0383,-3.048,-3.1035,-3.2165,-3.2378,-3.315,-3.4649,-3.5325,-3.5335,-3.4653,-3.4696,-3.4729,-3.4759,-3.4833,-3.4894,-3.4904,-3.495,-3.4998,-3.5013,-3.5045,-3.5064,-3.4981,-3.3802,-3.2656,-3.1528,-3.0328,-2.9166,-2.8083,-2.754,-2.6713,-2.5963,0.0,0.0,0.0,0.0,0.0,0.0,0.0,0.0,0.0,0.0,0.0,-1.7956,-1.8926,-1.9457,-1.9924,-2.0416,-2.0873,-2.1123,-2.1113,0.0,0.0,0.0,0.0,0.0,0.0,-2.4281,-2.5238,-2.6405,-2.6689,-2.7337,-2.8295,-2.8295,-2.8273,-2.8184,-2.7196,-2.6599,-2.6147,-2.3813,-2.215,-2.0975,-1.9637,-1.8522,-1.7613,0.0,0.0,0.0,0.0,0.0,0.0,0.0,0.0,0.0,0.0,0.0,0.0,0.0,0.0,0.0,0.0,0.0,0.0,0.0,0.0,0.0,0.0,0.0,0.0,0.0,0.0,0.0,0.0,0.0,0.0,0.0,0.0,0.0,0.0,0.0,-2.5176,-2.6972,-2.8476,-2.9527,-2.9939,-3.1242,-3.2265,-3.2742,-3.331,-3.396,-3.4661,-3.6133,-3.6785,-3.6469,-3.6906,-3.6887,-3.6356,-3.5835,-3.5728,-3.6033,-3.5834,-3.5765,-3.5799,-3.5852,-3.5885,-3.5903,-3.5958,-3.5962,-3.5923,-3.538,-3.4285,-3.2851,-3.1696,-3.0714,-2.9849,-2.9012,-2.8394,-2.8027,0.0,0.0,0.0,0.0,0.0,0.0,0.0,0.0,0.0,0.0,-1.7997,-1.891,-1.8961,-2.0323,-2.1221,-2.1271,-2.2524,-2.3291,-2.3354,-2.395,0.0,0.0,0.0,0.0,-2.5144,-2.6047,-2.6816,-2.7478,-2.8323,-2.8766,-2.8783,-2.8783,-2.8707,-2.8577,-2.856,-2.8047,-2.713,-2.6518,-2.448,-2.1657,-2.1591,-2.0721,-1.9361,0.0,0.0,0.0,0.0,0.0,0.0,0.0,0.0,0.0,0.0,0.0,0.0,0.0,0.0,0.0,0.0,0.0,0.0,0.0,0.0,0.0,0.0,0.0,0.0,0.0,0.0,0.0,0.0,0.0,0.0,0.0,0.0,0.0,-2.3915,-2.546,-2.7282,-2.9122,-3.0089,-3.0946,-3.1859,-3.2761,-3.3627,-3.4502,-3.5788,-3.6593,-3.6767,-3.8974,-3.9787,-3.8772,-3.8274,-3.8027,-3.8027,-3.6394,-3.6035,-3.6942,-3.6091,-3.5737,-3.5829,-3.5829,-3.585,-3.5905,-3.5903,-3.5894,-3.5909,-3.5966,-3.5506,-3.4569,-3.2842,-3.1656,-3.0778,-2.9939,-2.9449,-2.9386,0.0,0.0,0.0,0.0,0.0,0.0,0.0,0.0,0.0,0.0,-1.864,-1.9316,-2.0458,-2.0967,-2.1644,-2.2699,-2.3144,-2.36,-2.4154,0.0,0.0,0.0,0.0,0.0,-2.6902,-2.769,-2.8448,-2.9206,-2.9403,-2.9789,-3.0387,-3.0308,-3.0269,-3.0195,-2.9677,-2.9287,-2.8982,-2.7734,-2.6434,-2.5046,-2.3348,-2.2149,-2.1273,0.0,0.0,0.0,0.0,0.0,0.0,0.0,0.0,0.0,0.0,0.0,0.0,0.0,0.0,0.0,0.0,0.0,0.0,0.0,0.0,0.0,0.0,0.0,0.0,0.0,0.0,0.0,0.0,0.0,0.0,0.0,0.0,-2.4744,-2.5758,-2.7507,-2.9097,-3.0239,-3.1703,-3.2718,-3.3026,-3.4323,-3.5286,-3.5637,-3.6591,-3.7469,-3.8194,-3.8899,-3.945,-3.9844,-3.9172,-3.8725,-3.8574,-3.7738,-3.7467,-3.7758,-3.7576,-3.7196,-3.6668,-3.6725,-3.6409,-3.5823,-3.5878,-3.5905,-3.5903,-3.5928,-3.5797,-3.5456,-3.4393,-3.3442,-3.2643,-3.2367,-3.2216,-3.218,0.0,0.0,0.0,0.0,0.0,0.0,0.0,0.0,0.0,0.0,-1.9188,-1.9849,-2.1085,-2.1465,-2.2006,-2.2868,-2.3524,-2.4079,-2.4503,0.0,0.0,0.0,0.0,-2.7519,-2.8315,-2.9022,-2.9634,-3.0095,-3.0395,-3.0729,-3.123,-3.1095,-3.1055,-3.1015,-3.0516,-3.0124,-2.975,-2.8938,-2.802,-2.6961,-2.539,-2.3921,-2.2665,-2.2148,-2.1498,-2.0763,-1.9712,-1.9346,-1.923,-1.851,0.0,0.0,0.0,0.0,0.0,0.0,0.0,0.0,0.0,0.0,0.0,0.0,0.0,0.0,0.0,0.0,0.0,0.0,0.0,0.0,0.0,0.0,0.0,0.0,-2.5515,-2.6726,-2.7938,-2.9006,-3.0207,-3.1657,-3.2825,-3.3655,-3.4054,-3.5243,-3.6168,-3.6608,-3.7468,-3.8383,-3.9298,-3.9433,-3.9738,-4.027,-3.9848,-3.9557,-3.9429,-3.8712,-3.8614,-3.9135,-3.8466,-3.7936,-3.7508,-3.7531,-3.7298,-3.685,-3.6895,-3.69,-3.6922,-3.6922,-3.6903,0.0,0.0,0.0,0.0,0.0,-3.3247,-3.3203,0.0,0.0,0.0,0.0,0.0,0.0,0.0,0.0,0.0,0.0,0.0,-2.0391,-2.1145,-2.1881,-2.2372,-2.2457,-2.3701,-2.4577,0.0,0.0,0.0,-2.8083,-2.8186,-2.8596,-2.9434,-3.0133,-3.0546,-3.0546,-3.1175,-3.1517,-3.1517,-3.1351,-3.1274,-3.123,-3.1072,-3.0622,-2.9956,-2.9938,-2.9205,-2.8046,-2.7402,-2.5829,-2.3807,-2.3106,-2.2488,-2.1895,-2.1196,-2.093,-2.0974,-2.1072,0.0,0.0,0.0,0.0,0.0,0.0,0.0,0.0,0.0,0.0,0.0,0.0,0.0,0.0,0.0,0.0,0.0,0.0,0.0,0.0,0.0,0.0,0.0,0.0,-2.7323,-2.9288,-3.0266,-3.0399,-3.1113,-3.3139,-3.3618,-3.4112,-3.4984,-3.5798,-3.663,-3.7482,-3.8421,-3.9279,-4.0059,0.0,0.0,0.0,0.0,-4.0306,-4.0302,-3.9432,-3.9527,-4.0582,-3.9096,-3.8363,-3.8338,-3.8349,-3.8324,-3.8297,-3.8297,-3.8307,-3.8287,-3.8287,-3.8277,-3.8064,-3.5877,-3.4957,-3.4761,-3.401,-3.3645,-3.3518,0.0,0.0,0.0,0.0,0.0,0.0,0.0,0.0,0.0,-1.8932,-1.9723,-2.0491,-2.1267,-2.2017,-2.2698,-2.3295,-2.363,-2.4313,0.0,0.0,-2.7349,-2.8083,-2.8681,-2.9365,-3.0187,-3.0902,-3.1316,-3.1373,-3.147,-3.1538,-3.1596,-3.1389,-3.1295,-3.1274,-3.1173,-3.1067,-3.0898,-3.0366,-3.0054,-2.9787,-2.8545,-2.7083,-2.5493,-2.4289,-2.3772,-2.3562,-2.2235,-2.1801,-2.1768,-2.1206,-2.1034,-2.1015,-2.0891,0.0,0.0,0.0,0.0,0.0,0.0,0.0,0.0,0.0,0.0,0.0,0.0,0.0,0.0,0.0,0.0,0.0,0.0,0.0,0.0,-2.7679,-2.9055,-3.0405,-3.2048,-3.2847,-3.341,-3.3734,-3.4404,-3.5131,-3.595,-3.6806,-3.7661,-3.846,-3.9335,-3.9946,-4.0176,-4.0196,-4.0253,-4.031,-4.029,-4.0325,-4.0379,-4.0181,-4.0261,-4.0603,0.0,0.0,-3.9168,-3.9228,-3.8864,-3.8216,-3.8287,-3.8257,-3.8216,-3.8216,-3.8202,-3.8105,-3.7734,-3.7094,-3.645,-3.6953,-3.6665,-3.6106,0.0,0.0,0.0,0.0,0.0,0.0,0.0,0.0,0.0,0.0,-1.9463,-2.013,-2.1285,-2.172,-2.2258,-2.2993,-2.379,0.0,0.0,-2.6725,-2.7652,-2.875,-2.9162,-2.99,-3.1067,-3.1462,-3.1688,-3.1709,-3.1688,-3.1688,-3.1709,-3.1483,-3.1406,-3.1406,-3.1269,-3.119,-3.1173,-3.0883,-3.0602,-3.0321,-2.9282,-2.8216,-2.7155,-2.5733,-2.4811,-2.4147,-2.345,-2.297,-2.2594,-2.2309,-2.201,-2.1816,-2.1878,-2.1709,-2.1425,0.0,0.0,0.0,0.0,0.0,0.0,0.0,0.0,0.0,0.0,0.0,0.0,0.0,0.0,-2.4034,0.0,0.0,-2.7485,-2.9265,-3.0316,-3.1513,-3.3262,-3.3755,-3.4131,-3.4588,-3.4961,-3.5522,-3.6497,-3.7204,-3.7928,-3.8747,-3.9623,-4.0176,-4.0196,-4.0234,-4.0272,-4.0309,-4.0289,-4.0342,-4.0411,-4.0427,-4.0511,-4.0607,-4.0622,-4.0453,-4.0056,-4.0056,-3.9818,-3.9412,-3.9444,-3.9424,-3.9399,-3.9406,-3.9353,-3.9297,-3.9353,-3.8529,-3.7396,-3.7844,-3.7685,-3.7318,0.0,0.0,0.0,0.0,0.0,0.0,0.0,0.0,0.0,0.0,0.0,-1.9705,-2.0874,-2.1148,-2.1516,0.0,0.0,0.0,0.0,-2.6595,-2.7698,-2.9196,-2.9386,-3.0126,-3.1558,-3.1731,-3.18,-3.18,-3.1746,-3.1746,-3.1763,-3.1538,-3.1462,-3.1462,-3.1269,-3.119,-3.119,-3.1291,-3.1066,-3.0543,-2.9745,-2.9145,-2.8535,-2.707,-2.5656,-2.4445,-2.4356,-2.3837,-2.3193,-2.3289,-2.2957,-2.2509,-2.2658,-2.2337,-2.1915,-2.1844,-2.1917,0.0,0.0,0.0,0.0,0.0,0.0,0.0,0.0,0.0,-2.3178,-2.4756,-2.5248,-2.5892,-2.7485,-2.8536,-2.9473,-3.0427,-3.1469,-3.2666,-3.4031,-3.4186,-3.4475,-3.5321,-3.5308,-3.5739,-3.6965,-3.743,-3.8042,-3.9014,-3.9776,-4.0234,-4.0234,-4.0291,-4.0309,-4.0325,-4.0325,-4.0358,-4.0425,-4.0479,-4.0531,-4.0573,-4.0588,-4.0622,-4.0689,-4.0612,-4.0593,-4.0574,-4.0559,-4.0559,-4.0559,-4.0573,-4.0527,-4.0457,-4.0389,-3.955,-3.8345,-3.8361,-3.8199,-3.8018,0.0,0.0,0.0,0.0,0.0,0.0,0.0,0.0,0.0,0.0,0.0,0.0,0.0,0.0,0.0,0.0,0.0,0.0,-2.4986,-2.5682,-2.6779,-2.8355,-2.9059,-2.985,-3.08,-3.1455,-3.18,-3.18,-3.1671,-3.1617,-3.1617,-3.1428,-3.1295,-3.1312,-3.1252,-3.119,-3.119,-3.1402,-3.1428,-3.1261,-2.9987,-2.9489,-2.9314,-2.784,-2.6358,-2.5,-2.4356,-2.3632,-2.3028,-2.3119,-2.3164,-2.3212,-2.3351,-2.3418,-2.3337,-2.2749,0.0,-2.263,-2.1967,-2.1898,-2.1993,-2.2073,-2.2177,-2.2473,0.0,0.0,-2.4865,-2.5835,-2.6674,-2.7523,-2.8553,-2.9459,-3.0387,-3.1379,-3.2872,-3.4013,-3.4248,-3.4936,-3.5425,-3.547,-3.5479,-3.6044,-3.7551,-3.7745,-3.8418,-4.0005,-4.0233,-4.0289,-4.0289,-4.0344,-4.0398,-4.0379,-4.0449,-4.0466,-4.0482,-4.0511,-4.0489,-4.0504,-4.0573,-4.0592,-4.0616,-4.0607,-4.0573,-4.0504,-4.0438,-4.0422,-4.0422,-4.0411,-4.0379,-4.0325,-4.0252,-4.0119,-3.9948,-3.9947,-3.9395,-3.8804,0.0,0.0,0.0,0.0,0.0,0.0,0.0,0.0,0.0,0.0,0.0,0.0,0.0,0.0,0.0,0.0,0.0,0.0,-2.415,-2.5274,-2.6373,-2.7516,-2.8254,-2.9007,-2.9883,-3.0621,-3.0999,-3.0999,-3.1353,-3.1538,-3.1538,-3.1389,-3.1295,-3.1295,-3.1213,-3.119,-3.119,-3.1329,-3.1168,-3.0782,-2.9832,-2.9231,-2.8781,-2.7661,-2.6299,-2.5011,-2.4767,-2.3865,0.0,0.0,-2.302,-2.3102,-2.3313,-2.3481,-2.3548,-2.3334,-2.3406,0.0,-2.3308,-2.3339,0.0,0.0,-2.4023,-2.4565,-2.4974,-2.5769,-2.6645,-2.7533,-2.8027,-2.8597,-2.9497,-3.042,-3.1392,0.0,-3.3485,-3.4465,-3.5032,-3.5427,-3.5635,-3.556,-3.5509,-3.6113,-3.7709,-3.7833,-3.8508,-4.023,-4.0326,-4.0325,-4.0362,-4.0379,-4.0626,-4.114,-4.1193,-4.1459,-4.1995,-4.2008,-4.1835,-4.1492,-4.1838,-4.2165,-4.2453,-4.2093,-4.175,-4.1428,-4.1411,-4.1011,-4.04,-4.0385,-4.0386,-4.0349,-4.0272,-4.021,-4.0129,-4.0137,-3.987,-3.9618,0.0,0.0,0.0,0.0,0.0,0.0,0.0,0.0,0.0,0.0,0.0,0.0,0.0,0.0,0.0,0.0,0.0,0.0,0.0,-2.453,-2.5612,-2.655,-2.7317,0.0,-2.892,-2.9636,-3.0048,-3.0048,-3.0575,-3.095,-3.1155,-3.1023,-3.1087,-3.1274,-3.123,-3.1089,-3.0886,-3.0968,-3.0636,-2.9994,-2.9368,-2.8801,-2.825,-2.7427,-2.6145,-2.4812,-2.4925,-2.396,0.0,0.0,-2.2816,-2.285,-2.3126,-2.3319,-2.3481,-2.3646,-2.3876,-2.4095,-2.4284,0.0,0.0,-2.5038,-2.5753,-2.6434,-2.6536,-2.7243,-2.8065,-2.8694,-2.9069,-2.9467,-3.0098,-3.1232,-3.2242,-3.2894,-3.3925,-3.4897,-3.5607,-3.5712,-3.5678,-3.5604,-3.5753,-3.64,-3.7775,-3.7849,-3.8542,-4.0264,-4.0362,-4.0362,-4.0432,-4.0643,-4.108,-4.1709,-4.1959,-4.2398,-4.3085,-4.3104,-4.2876,-4.2437,-4.2958,-4.3421,-4.3768,-4.3292,-4.2852,-4.2451,-4.2298,-4.1781,-4.1017,-4.0997,-4.0996,-4.0993,-4.0912,-4.0848,-4.0764,-4.0737,-4.0604,-4.0523,0.0,0.0,0.0,0.0,0.0,0.0,0.0,0.0,0.0,0.0,0.0,0.0,0.0,0.0,0.0,0.0,0.0,0.0,0.0,-2.3095,-2.412,-2.5575,-2.6336,-2.7131,-2.791,-2.8728,-2.9138,-2.9138,-2.9172,-2.9564,-3.0241,-3.0163,-3.0514,-3.119,-3.119,-3.0801,-3.0142,-3.0204,-2.9799,-2.9087,-2.8562,-2.8253,-2.8032,-2.7362,-2.6034,-2.4506,-2.4598,0.0,0.0,0.0,-2.2569,-2.2659,-2.2902,-2.3144,0.0,-2.3634,-2.3917,0.0,0.0,0.0,-2.586,-2.5946,-2.6711,-2.7475,-2.7456,-2.8189,-2.8869,-2.8888,-2.9574,-3.0182,-3.0279,-3.1687,-3.2897,-3.2995,-3.445,-3.5593,-3.5684,-3.5704,-3.5681,-3.5604,-3.6286,-3.7063,0.0,-3.7901,-3.8578,-4.0264,-4.0398,-4.0432,-4.0502,-4.1303,-4.1761,-4.1816,-4.2624,-4.3066,-4.3104,-4.3104,-4.3069,-4.2979,-4.3534,-4.3748,-4.3695,-4.3539,-4.3437,-4.3338,-4.28,-4.2572,-4.2533,-4.2533,-4.2512,-4.2531,-4.2468,-4.2427,-4.2427,-4.236,-4.1992,-4.1571,0.0,0.0,0.0,0.0,0.0,0.0,0.0,0.0,0.0,0.0,0.0,0.0,0.0,0.0,0.0,0.0,0.0,0.0,0.0,-2.2231,-2.3034,-2.3967,-2.4721,-2.5226,-2.5495,-2.6758,-2.7382,-2.7382,-2.8376,-2.8982,-2.9198,-2.9235,-2.937,-2.9606,-2.9681,-2.9583,-2.9364,-2.9384,-2.9016,-2.8355,-2.8186,-2.7793,-2.7265,-2.6447,-2.5433,-2.4425,0.0,0.0,0.0,0.0,0.0,0.0,-2.279,0.0,0.0,-2.3642,-2.3976,-2.4228,-2.4376,0.0,-2.5914,-2.5979,-2.716,-2.8305,-2.835,-2.9055,-2.9708,-2.9737,-3.0035,-3.0279,-3.0312,-3.1756,-3.2964,-3.3006,-3.45,-3.5673,-3.5704,-3.5704,-3.5681,-3.5604,-3.6479,0.0,0.0,0.0,0.0,-4.0319,-4.0362,-4.0609,-4.127,-4.1574,-4.2264,-4.3412,-4.3739,-4.4162,-4.4739,-4.4705,-4.4687,-4.465,-4.4748,-4.4766,-4.4683,-4.4601,-4.4516,-4.4436,-4.4265,-4.4798,-4.5773,-4.5773,-4.5788,-4.5794,-4.5855,-4.5893,-4.5865,-4.5874,-4.5988,-4.5874,0.0,0.0,0.0,0.0,0.0,0.0,0.0,0.0,0.0,0.0,0.0,0.0,0.0,0.0,0.0,0.0,0.0,0.0,0.0,0.0,-2.1759,-2.2658,-2.3129,-2.3629,-2.413,-2.5063,-2.558,-2.558,-2.6601,-2.7238,-2.747,-2.783,-2.8135,-2.8424,-2.8783,-2.8786,-2.8569,-2.8569,-2.8012,-2.7148,-2.7182,-2.6723,-2.6026,-2.5404,-2.4666,0.0,0.0,0.0,0.0,0.0,0.0,0.0,0.0,-2.3003,-2.3365,-2.3689,-2.3978,-2.4228,-2.4357,-2.5368,-2.6378,-2.6459,-2.7831,-2.9224,-2.925,-2.9713,-3.0157,-3.0185,-3.024,-3.0292,-3.0292,-3.1537,-3.2659,-3.2949,-3.426,-3.5336,-3.5665,-3.5704,-3.5778,-3.6009,-3.689,-3.7704,0.0,0.0,0.0,-4.036,-4.0325,-4.0706,-4.1656,-4.1963,-4.2787,-4.4226,-4.4533,-4.4956,-4.5513,-4.5495,-4.5457,-4.5438,-4.5319,-4.5213,-4.5125,-4.5061,-4.5038,-4.4976,-4.528,-4.6026,-4.7001,-4.7286,-4.7414,-4.7441,-4.7528,-4.7566,-4.7604,-4.7596,-4.7848,-4.7848,0.0,0.0,0.0,0.0,0.0,0.0,0.0,0.0,0.0,0.0,0.0,0.0,0.0,0.0,0.0,0.0,0.0,0.0,0.0,0.0,0.0,-2.1615,-2.1592,-2.2207,-2.3555,-2.3638,-2.3737,-2.377,-2.4031,-2.4496,-2.5246,-2.6016,-2.6771,-2.7549,-2.8272,-2.8224,-2.762,-2.762,-2.6843,-2.5541,-2.5605,-2.515,-2.4399,-2.4349,0.0,0.0,0.0,0.0,0.0,0.0,0.0,0.0,0.0,0.0,-2.3638,-2.3753,-2.3999,-2.4229,-2.4373,-2.5774,-2.7217,-2.7283,-2.8707,-3.0102,-3.0102,-3.0161,-3.0204,-3.0204,-3.024,-3.0312,0.0,0.0,-3.2061,-3.2871,-3.3776,-3.4698,-3.5568,-3.5704,-3.5971,0.0,0.0,0.0,0.0,0.0,0.0,-4.0379,0.0,-4.0727,-4.17,-4.2486,-4.331,-4.4231,-4.4998,-4.54,-4.54,-4.54,-4.5361,-4.5297,-4.5213,-4.5125,-4.4991,-4.501,-4.4943,-4.4952,-4.5824,-4.6222,-4.6316,-4.7131,-4.7543,-4.7631,-4.7631,-4.768,-4.7734,-4.7734,-4.7734,-4.7658,0.0,0.0,0.0,0.0,0.0,0.0,0.0,0.0,0.0,0.0,0.0,0.0,0.0,0.0,0.0,0.0,0.0,0.0,0.0,0.0,0.0,0.0,0.0,0.0,0.0,0.0,0.0,0.0,0.0,-2.344,-2.4265,-2.4514,-2.4813,0.0,-2.5379,-2.5459,-2.5338,-2.5338,-2.5118,-2.4763,0.0,-2.4568,-2.4255,0.0,0.0,0.0,0.0,0.0,0.0,0.0,0.0,0.0,0.0,0.0,-2.3721,-2.3894,-2.4096,-2.4303,-2.4444,-2.5843,-2.7288,-2.7299,-2.8676,-3.0038,-3.0087,-3.0113,-3.0142,-3.0185,-3.0213,-3.0234,0.0,0.0,0.0,-3.2871,-3.3754,0.0,-3.5568,-3.5673,0.0,0.0,0.0,-3.8285,-3.9032,-3.9772,0.0,0.0,-4.0272,-4.0941,-4.2451,-4.2699,-4.3522,-4.5055,-4.5285,-4.54,-4.54,-4.5341,-4.5298,-4.5213,-4.5103,-4.5014,-4.501,-4.4943,-4.4938,-4.4952,-4.5824,-4.6544,-4.715,-4.8055,-4.8827,-4.9359,-4.9485,-4.9534,-4.9539,-4.9606,-4.9606,-4.951,0.0,0.0,0.0,0.0,0.0,0.0,0.0,0.0,0.0,0.0,0.0,0.0,0.0,0.0,0.0,0.0,0.0,0.0,0.0,0.0,0.0,0.0,0.0,0.0,0.0,0.0,0.0,0.0,0.0,0.0,0.0,-2.2349,-2.2651,-2.2835,-2.3563,-2.3941,-2.4036,0.0,0.0,0.0,0.0,0.0,0.0,0.0,0.0,0.0,0.0,0.0,0.0,0.0,0.0,-2.285,-2.3241,-2.3526,-2.3789,-2.3976,0.0,-2.4393,-2.4478,-2.5879,-2.7304,-2.7299,-2.866,-3.0022,-3.0038,-3.0083,-3.0113,-3.0157,-3.0185,0.0,0.0,0.0,0.0,0.0,0.0,0.0,-3.5469,-3.5612,-3.6033,0.0,-3.7728,0.0,-3.9517,-4.0004,-4.0215,0.0,-4.05,-4.1321,-4.2638,-4.304,-4.3864,-4.5222,-4.526,-4.526,-4.526,-4.5235,-4.517,-4.5125,-4.5033,-4.4967,-4.4943,-4.4919,-4.5103,-4.552,0.0,-4.7239,-4.8074,-4.9005,-4.9638,-5.0108,-5.0163,-5.0231,-5.0255,-5.0325,-5.0348,-5.0291,0.0,0.0,0.0,0.0,0.0,0.0,0.0,0.0,0.0,0.0,0.0,0.0,0.0,0.0,0.0,0.0,0.0,0.0,0.0,0.0,0.0,0.0,0.0,0.0,0.0,0.0,0.0,0.0,0.0,0.0,0.0,0.0,0.0,0.0,0.0,0.0,0.0,0.0,0.0,0.0,0.0,0.0,0.0,0.0,0.0,0.0,0.0,0.0,0.0,0.0,-2.2546,-2.2893,-2.3313,-2.3598,-2.3858,-2.4056,-2.4303,-2.4498,-2.4513,-2.5785,-2.7135,-2.7148,-2.8414,-2.9665,-2.9665,-2.9715,-2.976,-2.977,0.0,0.0,-3.0035,0.0,-3.0898,-3.2487,0.0,-3.363,-3.5214,-3.5512,-3.6214,-3.7893,-3.7973,-3.8534,-4.0135,-4.0291,-4.0252,-4.0167,-4.0948,-4.1789,-4.2552,-4.3352,-4.4189,-4.5065,-4.5217,-4.5274,-4.5274,-4.5369,-4.538,-4.5333,-4.5333,-4.5285,-4.5236,-4.5236,-4.5653,-4.6417,-4.7283,-4.8106,-4.8891,-4.974,-5.0158,-5.0207,-5.0345,-5.0431,-5.0516,-5.0677,-5.0738,-5.076,0.0,0.0,0.0,0.0,0.0,0.0,0.0,0.0,0.0,0.0,-1.7334,-1.8232,0.0,0.0,0.0,0.0,0.0,0.0,0.0,0.0,0.0,0.0,0.0,0.0,0.0,0.0,0.0,0.0,0.0,0.0,0.0,0.0,0.0,0.0,0.0,0.0,0.0,0.0,0.0,0.0,0.0,0.0,0.0,0.0,0.0,0.0,0.0,0.0,0.0,0.0,-2.2203,-2.3045,-2.3435,-2.3747,-2.3978,-2.4135,-2.4338,-2.4495,-2.4564,-2.544,-2.6302,-2.6318,-2.7131,-2.7926,-2.7937,-2.7937,0.0,0.0,0.0,-2.9145,-2.9193,-2.9819,0.0,-3.1737,0.0,0.0,0.0,0.0,-3.6151,0.0,0.0,0.0,0.0,0.0,0.0,0.0,0.0,-4.2306,-4.2525,-4.333,-4.4189,-4.5065,-4.5788,-4.6168,-4.6168,-4.6787,-4.7061,-4.7061,-4.7011,-4.6986,-4.6961,-4.6961,-4.7062,-4.7302,-4.8201,0.0,-4.8941,-4.9815,-5.0188,-5.0288,-5.1109,-5.1442,-5.1561,-5.2276,-5.2548,-5.2548,0.0,0.0,0.0,0.0,0.0,0.0,0.0,-1.4794,-1.5769,-1.5695,-1.7024,-1.7966,-1.8048,-1.7922,-1.7811,0.0,0.0,0.0,0.0,0.0,0.0,0.0,0.0,0.0,0.0,0.0,0.0,0.0,0.0,0.0,0.0,0.0,0.0,0.0,0.0,0.0,0.0,0.0,0.0,0.0,0.0,0.0,0.0,0.0,0.0,0.0,0.0,0.0,0.0,0.0,-2.1527,-2.2546,-2.3348,-2.3813,-2.4094,-2.421,-2.4392,-2.4564,-2.4599,-2.5327,-2.611,-2.611,-2.6809,-2.7494,-2.749,0.0,0.0,0.0,0.0,-2.836,-2.8853,0.0,0.0,0.0,0.0,0.0,0.0,0.0,0.0,0.0,0.0,0.0,0.0,0.0,0.0,0.0,0.0,-4.2602,-4.3103,-4.4341,-4.5238,-4.5656,-4.6491,-4.6928,-4.6928,-4.7283,-4.7448,-4.7448,-4.7422,-4.7397,-4.7397,-4.7397,-4.7694,-4.8201,-4.8669,-4.9137,-4.9605,-5.0078,-5.0546,-5.1032,-5.1499,-5.1986,-5.2411,-5.288,-5.3037,-5.3056,0.0,0.0,0.0,0.0,0.0,0.0,0.0,-1.4649,-1.5612,-1.5556,-1.6817,-1.771,-1.7816,-1.7772,-1.7653,0.0,0.0,0.0,0.0,0.0,0.0,0.0,0.0,0.0,0.0,0.0,0.0,0.0,0.0,0.0,0.0,0.0,0.0,0.0,0.0,0.0,0.0,0.0,0.0,0.0,0.0,0.0,0.0,0.0,0.0,0.0,0.0,0.0,0.0,0.0,-2.072,-2.1842,-2.2998,-2.371,-2.4133,-2.4247,-2.4428,-2.4599,-2.4599,-2.5214,-2.5812,-2.5827,-2.6397,-2.6948,-2.6963,-2.6963,0.0,0.0,-2.7148,-2.7594,-2.8469,0.0,0.0,0.0,0.0,0.0,0.0,0.0,0.0,0.0,0.0,0.0,0.0,0.0,0.0,0.0,0.0,-4.3227,-4.3929,-4.5369,-4.6203,-4.6203,-4.715,-4.7681,-4.7681,-4.7851,-4.7927,-4.7927,-4.7927,-4.7927,-4.7927,-4.7953,-4.8384,-4.9081,-4.9156,-4.9591,-5.0231,-5.0302,-5.0864,-5.1714,-5.1909,-5.2529,-5.3322,-5.356,-5.3659,-5.3659,0.0,0.0,0.0,0.0,0.0,0.0,0.0,-1.4484,-1.5419,-1.5419,-1.6708,-1.7612,-1.7635,-1.7612,-1.7321,0.0,0.0,0.0,0.0,0.0,0.0,0.0,0.0,0.0,0.0,0.0,0.0,0.0,0.0,0.0,0.0,0.0,0.0,0.0,0.0,0.0,0.0,0.0,0.0,0.0,0.0,0.0,0.0,0.0,0.0,0.0,0.0,0.0,0.0,0.0,0.0,-2.1088,-2.2228,-2.3333,-2.4209,-2.4284,0.0,0.0,-2.4599,-2.4751,-2.4934,-2.4926,-2.5026,-2.5158,-2.5224,0.0,0.0,0.0,-2.5848,-2.6692,-2.7559,-2.8376,0.0,0.0,0.0,0.0,0.0,0.0,0.0,0.0,0.0,0.0,0.0,0.0,0.0,0.0,0.0,-4.4706,-4.4781,-4.5691,-4.6203,-4.6203,-4.7738,-4.8572,-4.8572,-4.9292,-4.9652,-4.9652,-4.9652,-4.9652,-4.9652,-4.9732,-4.9841,-4.9993,-5.0068,-5.0155,0.0,-5.0348,-5.091,-5.1794,-5.2653,-5.3503,-5.4389,-5.5162,-5.5472,-5.5472,0.0,0.0,0.0,0.0,0.0,0.0,-1.3086,-1.3946,-1.4758,-1.5164,-1.6105,-1.6938,-1.7384,-1.7037,-1.6657,-1.642,0.0,0.0,0.0,0.0,0.0,0.0,0.0,0.0,0.0,0.0,0.0,0.0,0.0,0.0,0.0,0.0,0.0,0.0,0.0,0.0,0.0,0.0,0.0,0.0,0.0,0.0,0.0,0.0,0.0,0.0,0.0,0.0,0.0,0.0,0.0,0.0,-2.0868,-2.1806,0.0,0.0,-2.441,-2.4547,-2.4599,-2.4695,-2.4806,-2.4802,-2.4861,-2.4917,-2.4931,0.0,0.0,-2.5004,-2.5283,-2.5785,-2.6656,-2.7535,-2.8414,-2.9327,0.0,0.0,0.0,0.0,0.0,0.0,0.0,0.0,0.0,0.0,0.0,0.0,0.0,-4.5198,-4.5905,-4.6544,-4.715,-4.7681,-4.8818,-4.9405,-4.9405,-4.9728,-4.9898,-4.9898,-4.9898,-4.9898,-4.9879,-4.9978,-5.0031,-5.0108,-5.0163,-5.0255,0.0,-5.0371,-5.122,-5.2529,-5.2944,-5.3947,-5.522,-5.563,-5.5766,-5.5766,0.0,0.0,0.0,0.0,0.0,-1.3012,-1.2959,-1.3582,-1.4218,-1.4705,-1.5392,-1.6053,-1.6577,-1.6167,-1.5796,-1.5709,-1.5108,0.0,0.0,0.0,0.0,0.0,0.0,0.0,0.0,0.0,-1.2343,-1.2439,-1.2604,0.0,0.0,0.0,0.0,0.0,0.0,0.0,0.0,0.0,0.0,0.0,0.0,0.0,0.0,0.0,0.0,0.0,0.0,0.0,0.0,0.0,0.0,0.0,0.0,0.0,0.0,0.0,-2.4022,-2.4197,-2.4508,-2.4679,-2.4776,-2.4791,-2.485,-2.4875,0.0,0.0,0.0,-2.4964,-2.4991,-2.5278,-2.614,-2.6999,-2.791,-2.8823,0.0,-3.1503,0.0,0.0,0.0,0.0,0.0,0.0,0.0,0.0,0.0,0.0,0.0,-4.5464,-4.6778,-4.7188,-4.7795,-4.8666,-4.9462,-4.9898,-4.9898,-4.9898,-4.9898,-4.9898,-4.9898,-4.9898,-4.9879,-5.0005,-5.0057,-5.0108,-5.0188,-5.0278,0.0,-5.068,-5.1686,-5.3075,-5.3388,-5.4413,-5.5724,-5.5766,-5.5787,-5.5826,0.0,0.0,0.0,0.0,0.0,0.0,-1.2794,-1.3427,-1.3938,-1.3994,-1.4598,-1.5043,-1.5119,-1.506,-1.4744,-1.4096,-1.4031,0.0,0.0,0.0,0.0,0.0,0.0,0.0,0.0,0.0,-1.2363,-1.2514,-1.2623,-1.2813,-1.3013,0.0,0.0,0.0,0.0,0.0,0.0,0.0,0.0,0.0,0.0,0.0,0.0,0.0,0.0,0.0,0.0,0.0,0.0,0.0,0.0,0.0,0.0,0.0,0.0,0.0,-2.31,-2.3419,-2.4358,-2.465,-2.4732,-2.4776,-2.4806,-2.4787,0.0,0.0,0.0,-2.4898,-2.4945,-2.5256,-2.6151,-2.701,-2.7889,-2.8755,-2.9655,0.0,0.0,0.0,0.0,0.0,0.0,0.0,0.0,0.0,0.0,0.0,0.0,0.0,-4.7302,-4.7397,-4.7795,-4.8666,-4.9462,-4.9898,-4.9898,-4.9898,-4.9898,-4.9898,-4.9898,-4.9898,-4.9906,-5.0031,-5.0108,-5.0108,-5.0255,-5.0325,0.0,-5.1398,-5.2308,-5.3198,-5.4124,-5.4972,-5.5724,-5.5766,-5.5787,-5.5826,0.0,0.0,0.0,0.0,0.0,0.0,0.0,-1.2788,-1.3131,-1.3652,-1.3913,-1.4272,-1.4897,-1.4487,-1.412,-1.3954,-1.3938,0.0,0.0,0.0,0.0,0.0,0.0,0.0,0.0,0.0,-1.2479,-1.2554,-1.2751,-1.2922,-1.3084,-1.3226,-1.3379,0.0,0.0,0.0,0.0,0.0,0.0,0.0,0.0,0.0,0.0,0.0,0.0,0.0,0.0,0.0,0.0,0.0,0.0,0.0,0.0,0.0,0.0,0.0,0.0,0.0,-2.3518,-2.3805,-2.3948,-2.4576,-2.4757,-2.4806,-2.4802,0.0,0.0,-2.4884,-2.4917,-2.5021,-2.534,-2.6564,-2.7637,-2.7973,-2.9208,0.0,0.0,0.0,0.0,0.0,0.0,0.0,0.0,0.0,0.0,0.0,-4.499,-4.6259,-4.734,-4.7946,-4.8666,-4.9481,-4.9765,-4.9898,-4.9898,-4.9898,-4.9898,-4.9898,-4.9898,-4.9898,-4.9906,-5.0057,-5.0108,-5.0108,-5.0255,-5.0302,-5.0425,-5.1398,-5.2286,-5.3133,-5.4103,-5.4991,-5.5724,-5.5826,-5.5885,-5.5885,0.0,0.0,0.0,0.0,0.0,0.0,0.0,-1.2394,-1.2556,-1.3047,-1.3131,-1.3367,-1.3972,-1.3645,-1.3396,-1.3439,-1.3475,0.0,0.0,0.0,0.0,0.0,0.0,0.0,0.0,-1.2479,-1.2593,-1.2691,-1.2827,-1.3106,-1.3552,-1.3662,-1.3768,-1.3871,-1.3956,0.0,0.0,0.0,0.0,0.0,0.0,0.0,-1.4759,0.0,0.0,0.0,0.0,0.0,0.0,0.0,0.0,0.0,0.0,0.0,0.0,0.0,-2.0622,0.0,0.0,-2.2895,-2.3113,-2.4016,-2.4272,0.0,0.0,0.0,0.0,0.0,-2.4884,-2.4912,-2.4985,-2.6365,-2.7514,-2.757,-2.8994,0.0,0.0,0.0,0.0,0.0,0.0,0.0,0.0,0.0,0.0,0.0,-4.5351,-4.6391,-4.6997,-4.7961,-4.8907,-4.9816,-4.9862,-4.9843,-4.9816,-4.9843,-4.9871,-4.9871,-5.022,-5.0391,-5.041,-5.0855,-5.104,-5.104,-5.119,-5.1262,0.0,-5.2357,-5.3053,-5.3612,-5.4564,-5.5261,-5.5724,-5.5826,-5.5885,-5.5905,0.0,0.0,0.0,0.0,0.0,0.0,0.0,-1.2174,-1.2195,-1.2282,-1.2343,-1.2439,-1.2554,-1.2639,-1.2684,-1.2703,0.0,0.0,0.0,0.0,0.0,0.0,0.0,0.0,-1.2499,-1.2574,-1.2691,-1.2811,-1.2932,-1.3423,-1.431,-1.4419,-1.4528,-1.4585,-1.4638,-1.4264,0.0,0.0,0.0,0.0,0.0,0.0,0.0,0.0,0.0,0.0,0.0,0.0,0.0,0.0,0.0,0.0,0.0,0.0,0.0,0.0,0.0,0.0,0.0,0.0,0.0,0.0,0.0,0.0,0.0,0.0,0.0,0.0,0.0,0.0,0.0,-2.6408,-2.7519,-2.7576,-2.9064,0.0,0.0,0.0,0.0,0.0,0.0,0.0,0.0,0.0,0.0,0.0,-4.5598,-4.6221,-4.6533,-4.7608,-4.8683,-4.9749,-4.9788,-4.975,-4.9692,-4.975,-4.9825,-4.9901,-5.0771,-5.1197,-5.1319,-5.2205,-5.2582,0.0,-5.2736,-5.2829,-5.2977,-5.3909,-5.4342,-5.4482,-5.5355,-5.5703,-5.5724,-5.5766,-5.5846,-5.5905,0.0,0.0,0.0,0.0,0.0,0.0,0.0,0.0,0.0,0.0,-1.2174,-1.2298,-1.2439,-1.2518,-1.2581,0.0,0.0,0.0,0.0,0.0,0.0,0.0,0.0,0.0,-1.2662,-1.2716,-1.2792,-1.2883,-1.3554,-1.4032,-1.4326,-1.4939,-1.5305,-1.5418,-1.5418,-1.5012,0.0,0.0,0.0,0.0,0.0,0.0,0.0,0.0,0.0,0.0,-1.495,-1.5592,0.0,0.0,0.0,0.0,0.0,0.0,0.0,0.0,-1.9587,-1.9704,-2.0212,0.0,-2.148,-2.2347,-2.3036,-2.3558,0.0,0.0,0.0,0.0,0.0,0.0,0.0,0.0,0.0,0.0,0.0,0.0,0.0,0.0,0.0,0.0,0.0,0.0,0.0,0.0,0.0,0.0,-4.6447,-4.7202,-4.7872,-4.8824,-4.9418,-4.9623,-4.9653,-4.9663,-4.9692,-4.9721,-5.0052,-5.0714,-5.0951,-5.1433,-5.2134,-5.2452,-5.2582,-5.2627,-5.2736,-5.2829,-5.2886,-5.3886,-5.4319,-5.4418,-5.5333,-5.5703,-5.5724,-5.5766,-5.5826,-5.5826,0.0,0.0,0.0,0.0,0.0,0.0,0.0,0.0,0.0,0.0,0.0,0.0,0.0,0.0,0.0,0.0,0.0,0.0,0.0,0.0,0.0,0.0,0.0,-1.27,-1.2757,-1.2813,-1.3051,-1.3505,-1.398,-1.4605,-1.5352,-1.5799,-1.6045,-1.6143,-1.5804,-1.5229,0.0,0.0,0.0,0.0,-1.3396,0.0,0.0,0.0,0.0,0.0,-1.4261,-1.4879,0.0,-1.6302,-1.7071,-1.7898,0.0,0.0,0.0,0.0,-1.9638,-1.9705,-1.9782,-2.0132,-2.0658,-2.1524,-2.2378,-2.3093,0.0,0.0,0.0,0.0,0.0,0.0,0.0,0.0,0.0,0.0,0.0,0.0,0.0,0.0,0.0,0.0,0.0,0.0,0.0,0.0,0.0,0.0,-4.6619,-4.741,-4.8087,-4.9066,-4.9593,-4.9551,-5.0033,-5.0327,-5.0338,-5.0256,-5.0673,-5.1563,-5.1952,-5.2445,-5.3006,-5.348,-5.3715,-5.3742,-5.3875,-5.3945,-5.4027,-5.459,-5.4829,-5.4914,-5.5445,-5.5662,-5.5684,-5.5745,-5.5766,-5.5806,0.0,0.0,0.0,0.0,0.0,0.0,0.0,0.0,0.0,0.0,0.0,0.0,0.0,0.0,0.0,0.0,0.0,0.0,0.0,0.0,0.0,0.0,0.0,-1.2829,-1.2848,-1.3004,-1.3458,-1.4219,-1.4452,-1.5245,-1.661,-1.6728,-1.6821,-1.6834,-1.6106,-1.5431,0.0,0.0,0.0,0.0,-1.3563,0.0,0.0,0.0,0.0,0.0,0.0,0.0,0.0,-1.5365,-1.645,-1.7726,-1.8151,0.0,0.0,0.0,0.0,0.0,-1.982,-1.9832,-2.0032,-2.0891,-2.1771,-2.2601,-2.3412,0.0,0.0,0.0,0.0,0.0,0.0,0.0,0.0,0.0,0.0,0.0,0.0,0.0,0.0,0.0,0.0,0.0,0.0,0.0,0.0,-4.5762,-4.6663,-4.7384,-4.7984,-4.8952,-4.9478,-4.9478,-5.0485,-5.1136,-5.1324,-5.1105,-5.145,-5.2378,-5.3131,-5.3607,-5.3886,-5.4667,-5.5057,-5.5094,-5.5176,0.0,-5.5403,-5.5402,-5.5432,-5.5504,-5.5573,-5.564,-5.5703,-5.5703,-5.5745,-5.5787,0.0,0.0,0.0,0.0,0.0,0.0,0.0,0.0,0.0,0.0,0.0,0.0,0.0,0.0,0.0,0.0,0.0,0.0,0.0,0.0,0.0,-1.2883,-1.2883,-1.2938,-1.3048,-1.3679,-1.4084,-1.4278,-1.559,-1.637,-1.6627,-1.7294,-1.7647,-1.7679,-1.6948,-1.6578,-1.6453,-1.5152,-1.4537,-1.4383,-1.3751,0.0,0.0,0.0,0.0,0.0,0.0,0.0,0.0,-1.5881,-1.6646,-1.7217,-1.8739,0.0,0.0,0.0,0.0,0.0,-1.9873,-1.9919,-2.0138,-2.0896,-2.1752,-2.2601,-2.3412,0.0,0.0,0.0,0.0,0.0,0.0,0.0,0.0,0.0,0.0,0.0,0.0,0.0,0.0,0.0,0.0,0.0,0.0,0.0,0.0,-4.6483,-4.7342,-4.8183,-4.8931,-4.9169,-4.9332,-4.949,-5.0277,-5.1246,-5.2446,-5.1982,-5.2202,-5.3144,-5.3321,-5.3848,-5.4659,-5.4903,-5.5057,-5.5094,0.0,-5.5294,-5.5403,-5.5402,-5.5432,-5.5504,-5.5573,-5.564,-5.5703,-5.5703,-5.5703,-5.5724,0.0,0.0,0.0,0.0,0.0,0.0,0.0,0.0,0.0,0.0,0.0,0.0,0.0,0.0,0.0,0.0,0.0,0.0,0.0,0.0,0.0,-1.2904,-1.332,-1.359,-1.37,-1.4072,-1.468,-1.5543,-1.6252,-1.6812,-1.726,-1.7664,-1.7861,-1.7905,-1.7586,-1.7253,-1.6832,-1.613,-1.5654,-1.5296,0.0,0.0,0.0,0.0,0.0,0.0,0.0,0.0,0.0,0.0,-1.6983,-1.7603,-1.8485,0.0,0.0,0.0,0.0,0.0,-1.9949,-2.0316,-2.0907,-2.1722,-2.2173,-2.2672,-2.3524,0.0,0.0,0.0,0.0,0.0,0.0,0.0,0.0,0.0,0.0,0.0,0.0,0.0,0.0,0.0,0.0,0.0,0.0,0.0,0.0,-4.662,-4.7068,-4.7852,-4.9123,-4.9197,-4.923,-4.9281,-5.0497,-5.1649,-5.2644,-5.299,-5.3451,-5.3941,-5.4056,-5.4358,-5.4799,-5.4901,-5.5,-5.5094,0.0,-5.5241,-5.5403,-5.539,-5.5421,-5.5456,-5.5527,-5.5573,-5.5596,-5.5596,-5.5596,-5.5596,0.0,0.0,0.0,0.0,0.0,0.0,0.0,0.0,0.0,0.0,0.0,0.0,0.0,0.0,0.0,0.0,0.0,0.0,0.0,0.0,-1.2832,-1.2889,-1.3689,-1.4145,-1.4219,-1.4649,-1.5446,-1.6652,-1.6838,-1.7253,-1.7833,-1.79,-1.7944,-1.7944,-1.8005,-1.7744,-1.7222,-1.7033,-1.6695,-1.6218,0.0,0.0,0.0,0.0,0.0,0.0,0.0,0.0,0.0,0.0,0.0,0.0,0.0,0.0,0.0,-1.9776,-1.9849,-1.9908,-1.9982,-2.0633,-2.1502,-2.2391,0.0,-2.3087,-2.4138,0.0,0.0,0.0,0.0,0.0,0.0,0.0,0.0,0.0,0.0,0.0,0.0,0.0,0.0,0.0,0.0,0.0,0.0,0.0,-4.5041,-4.6475,-4.6805,-4.7551,-4.9038,-4.9113,-4.9127,-4.909,-5.0714,-5.1828,-5.2375,-5.3653,-5.434,-5.4472,-5.459,-5.4705,-5.4767,-5.486,-5.4941,-5.5066,-5.5094,-5.5214,-5.5358,-5.5403,-5.539,-5.5408,-5.5456,-5.5595,-5.5811,-5.5811,-5.5811,-5.5792,0.0,0.0,0.0,0.0,0.0,0.0,0.0,0.0,0.0,0.0,0.0,0.0,0.0,0.0,0.0,0.0,0.0,0.0,0.0,0.0,-1.2832,-1.2889,-1.3727,-1.4219,-1.4278,-1.5755,-1.6597,-1.6795,-1.7535,-1.7932,-1.7983,-1.7983,-1.8027,-1.8091,-1.8091,-1.8121,-1.8156,-1.7411,-1.7103,-1.7056,-1.6307,0.0,0.0,0.0,0.0,0.0,0.0,0.0,0.0,0.0,0.0,0.0,0.0,0.0,-1.9795,-1.9806,-1.9854,-1.9911,-1.9977,-2.0646,-2.1515,-2.2375,-2.3164,0.0,-2.5747,0.0,0.0,0.0,0.0,0.0,0.0,0.0,0.0,0.0,0.0,0.0,0.0,0.0,0.0,0.0,0.0,0.0,0.0,0.0,-4.5315,-4.6165,-4.7046,-4.7914,-4.8785,-4.8874,-4.8996,-4.9101,-5.0647,-5.1575,-5.1663,-5.3431,-5.4324,-5.439,-5.4472,-5.459,-5.4723,-5.4786,-5.4871,-5.5,-5.5066,-5.5149,-5.5229,-5.5358,-5.539,-5.5408,-5.5408,-5.5954,-5.6712,-5.6712,-5.6712,-5.6597,0.0,0.0,0.0,0.0,0.0,0.0,0.0,0.0,0.0,0.0,0.0,0.0,0.0,0.0,0.0,0.0,0.0,0.0,0.0,-1.2811,-1.2832,-1.2889,-1.4173,-1.4921,-1.5042,-1.617,-1.7016,-1.7535,-1.7847,-1.8005,-1.8005,-1.8048,-1.8091,-1.8151,-1.8215,-1.826,-1.8287,-1.7974,-1.7872,-1.7879,-1.7128,-1.7184,0.0,0.0,0.0,0.0,0.0,0.0,0.0,0.0,-1.8834,-1.9035,0.0,-1.9731,-1.982,-1.9842,-1.9877,-1.9922,-1.999,-2.1029,-2.2182,-2.252,0.0,0.0,0.0,0.0,0.0,0.0,0.0,0.0,0.0,0.0,0.0,0.0,0.0,0.0,0.0,0.0,0.0,0.0,0.0,0.0,0.0,0.0,-4.4801,-4.6094,-4.6535,-4.7309,-4.8623,-4.8714,-4.875,-4.8911,-4.9988,-5.0858,-5.1537,-5.2783,-5.373,-5.4359,-5.4458,-5.459,-5.4723,-5.4767,-5.4871,-5.5,-5.5066,-5.5149,-5.5203,-5.5339,-5.5384,-5.5447,-5.597,-5.6722,-5.7538,-5.7487,-5.7442,-5.7294,0.0,0.0,0.0,0.0,0.0,0.0,0.0,0.0,0.0,0.0,0.0,0.0,0.0,0.0,0.0,0.0,0.0,0.0,-1.2811,-1.2829,-1.2867,-1.2942,-1.4476,-1.5399,-1.5559,-1.6663,-1.7492,-1.8027,-1.807,-1.8091,-1.8108,-1.8138,-1.8197,-1.8218,-1.8281,-1.8304,-1.8328,-1.8328,-1.8368,-1.841,-1.7922,-1.8065,0.0,0.0,0.0,0.0,0.0,0.0,0.0,0.0,-1.9353,0.0,0.0,0.0,-1.9837,-1.9896,-1.9911,-2.0009,-2.0313,-2.1475,-2.2627,0.0,0.0,0.0,0.0,0.0,0.0,0.0,0.0,0.0,0.0,0.0,0.0,0.0,0.0,0.0,0.0,0.0,0.0,0.0,0.0,0.0,0.0,0.0,-4.4299,-4.5935,-4.6081,-4.6836,-4.8477,-4.8605,-4.8642,-4.8732,-4.9565,-5.0323,-5.1024,-5.1968,-5.2914,-5.3861,-5.3962,-5.4261,-5.4723,-5.4755,-5.4841,-5.4971,-5.5066,-5.5121,-5.5176,-5.5358,-5.5556,-5.588,-5.6969,-5.7779,-5.8322,-5.8288,-5.8195,-5.8082,0.0,0.0,0.0,0.0,0.0,0.0,0.0,0.0,0.0,0.0,0.0,0.0,0.0,0.0,0.0,0.0,0.0,0.0,-1.2811,-1.2848,-1.2938,-1.2995,-1.4535,-1.5499,-1.5712,-1.7298,-1.8113,-1.8113,-1.8236,-1.8315,-1.8315,-1.8287,-1.829,-1.831,-1.831,-1.8348,-1.8406,-1.8406,-1.8483,-1.8596,-1.8596,-1.86,-1.8604,0.0,0.0,0.0,0.0,0.0,0.0,0.0,-1.9499,-1.9628,0.0,0.0,0.0,-1.9889,-1.9941,-2.0202,-2.1081,-2.1897,0.0,0.0,0.0,0.0,0.0,0.0,0.0,0.0,0.0,0.0,0.0,0.0,0.0,0.0,0.0,0.0,0.0,0.0,0.0,0.0,0.0,0.0,0.0,0.0,-4.3926,-4.5663,-4.5883,-4.6654,-4.8421,-4.8569,-4.8587,-4.8587,-4.951,-4.9991,-4.9991,-5.1005,-5.1966,-5.2912,-5.2963,-5.3583,-5.4692,-5.4692,-5.4767,-5.4901,-5.5038,-5.5094,-5.514,-5.5332,-5.588,-5.6778,-5.8459,-5.9109,-5.9081,-5.9045,-5.9016,-5.8873,0.0,0.0,0.0,0.0,0.0,0.0,0.0,0.0,0.0,0.0,0.0,0.0,0.0,0.0,0.0,0.0,0.0,0.0,-1.2811,-1.2848,-1.2938,-1.2995,-1.4591,-1.5536,-1.5712,-1.736,-1.8239,-1.8246,-1.8287,-1.8287,-1.8287,-1.829,-1.8328,-1.8385,-1.8385,-1.8406,-1.8465,-1.8502,-1.8559,-1.8616,-1.8601,-1.8622,-1.8678,0.0,0.0,0.0,0.0,0.0,0.0,0.0,0.0,0.0,0.0,0.0,0.0,-1.996,-2.0399,-2.0903,-2.1221,0.0,0.0,0.0,0.0,0.0,0.0,0.0,0.0,0.0,0.0,0.0,0.0,0.0,0.0,0.0,0.0,0.0,0.0,0.0,0.0,0.0,0.0,0.0,0.0,0.0,-4.3871,-4.5532,-4.5772,-4.6561,-4.8192,-4.8363,-4.842,-4.8532,-4.8846,-4.9325,-4.9991,-5.0447,-5.1108,-5.198,-5.2102,-5.3053,-5.4692,-5.4692,-5.4767,-5.4901,-5.5038,-5.5094,-5.5178,-5.5923,-5.674,-5.7619,-5.8689,-5.9463,-5.9941,-5.9912,-5.9805,-5.9657,0.0,0.0,0.0,0.0,0.0,0.0,0.0,0.0,0.0,0.0,0.0,0.0,0.0,0.0,0.0,0.0,0.0,0.0,0.0,-1.2904,-1.2993,-1.3084,-1.463,-1.5886,-1.6684,-1.7755,-1.8325,-1.8388,-1.8348,-1.8348,-1.8348,-1.8368,-1.8563,-1.8915,-1.8921,-1.8941,-1.8981,-1.9059,-1.8902,-1.8638,-1.8641,-1.8678,-1.8752,0.0,0.0,0.0,0.0,0.0,0.0,0.0,0.0,0.0,0.0,0.0,0.0,-1.9949,-2.0528,-2.1247,-2.163,0.0,0.0,0.0,0.0,0.0,0.0,0.0,0.0,0.0,0.0,0.0,0.0,0.0,0.0,0.0,0.0,0.0,0.0,0.0,0.0,0.0,0.0,0.0,0.0,0.0,-4.376,-4.5417,-4.564,-4.6428,-4.8114,-4.8265,-4.8324,-4.8419,-4.8532,-4.8864,-4.9454,-4.9633,-5.0235,-5.1121,-5.1226,-5.2086,-5.3679,-5.4031,-5.4415,-5.4871,-5.5028,-5.514,-5.5309,-5.6599,-5.7428,-5.802,-5.9158,-5.9865,-6.0313,-6.0205,-6.0106,-5.9994,0.0,0.0,0.0,0.0,0.0,0.0,0.0,0.0,0.0,0.0,0.0,0.0,0.0,0.0,0.0,0.0,0.0,0.0,0.0,0.0,-1.3066,-1.3188,-1.4687,-1.6356,-1.8173,-1.827,-1.8368,-1.8485,-1.8426,-1.8406,-1.8423,-1.8553,-1.8994,-1.9717,-1.9776,-1.9815,-1.9797,-1.9876,-1.9475,-1.8803,-1.8822,-1.8805,-1.8806,-1.8861,0.0,0.0,0.0,0.0,0.0,0.0,0.0,0.0,0.0,0.0,-1.9818,-1.9967,-2.057,-2.1387,0.0,0.0,0.0,0.0,0.0,0.0,0.0,0.0,0.0,0.0,0.0,0.0,0.0,0.0,0.0,0.0,0.0,0.0,0.0,0.0,0.0,0.0,0.0,0.0,0.0,0.0,-4.3609,-4.5337,-4.5485,-4.6254,-4.8114,-4.8187,-4.8226,-4.8306,-4.8476,-4.8587,-4.8587,-4.8785,-4.9384,-5.0281,-5.0281,-5.0862,-5.2002,-5.2963,-5.3924,-5.4829,-5.5028,-5.5214,-5.5517,-5.7122,-5.7791,-5.7917,-5.956,-6.0112,-6.0036,-5.9943,-5.9842,-5.9735,0.0,0.0,0.0,0.0,0.0,0.0,0.0,0.0,0.0,0.0,0.0,0.0,0.0,0.0,0.0,0.0,0.0,0.0,0.0,0.0,-1.3102,-1.3206,-1.4817,-1.6529,-1.8235,-1.829,-1.8368,-1.8485,-1.8502,-1.8502,-1.8577,-1.9172,-1.9524,-1.9723,-2.0318,-2.0543,-2.0582,-2.0686,-2.0286,-1.956,-1.9676,-1.934,-1.8806,-1.8861,-1.8931,0.0,0.0,0.0,0.0,0.0,0.0,0.0,-1.9705,-1.9719,-1.987,-2.0558,-2.1341,0.0,0.0,0.0,0.0,0.0,0.0,0.0,0.0,0.0,0.0,0.0,0.0,0.0,0.0,0.0,0.0,0.0,0.0,0.0,0.0,0.0,0.0,0.0,0.0,0.0,0.0,0.0,-4.349,-4.5138,-4.5424,-4.6254,-4.7959,-4.813,-4.8226,-4.8306,-4.8476,-4.8587,-4.8587,-4.8785,-4.9105,-4.9459,-4.9459,-5.002,-5.1042,-5.2667,-5.3967,-5.4941,-5.5057,-5.5149,-5.5325,-5.6427,-5.6847,-5.6965,-5.8635,-5.8796,-5.8193,-5.8829,-5.8596,-5.7965,0.0,0.0,0.0,0.0,0.0,0.0,0.0,0.0,0.0,0.0,0.0,0.0,0.0,0.0,0.0,0.0,0.0,0.0,0.0,0.0,-1.3524,-1.4356,-1.5303,-1.657,-1.8255,-1.829,-1.8368,-1.8485,-1.8522,-1.8755,-1.9145,-1.9509,-2.0111,-2.0855,-2.1238,-2.1414,-2.1396,-2.1481,-2.1104,-2.0433,-2.0494,-2.0285,-1.9912,-1.9989,-2.0064,-2.0156,-2.0227,0.0,0.0,0.0,0.0,0.0,0.0,0.0,-2.0844,-2.1291,-2.1995,-2.2722,0.0,0.0,0.0,0.0,0.0,0.0,0.0,0.0,0.0,0.0,0.0,0.0,0.0,0.0,0.0,0.0,0.0,0.0,0.0,0.0,0.0,0.0,0.0,0.0,0.0,0.0,-4.3469,-4.5075,-4.5327,-4.6157,-4.7864,-4.8032,-4.8169,-4.8306,-4.8476,-4.8587,-4.8587,-4.8785,-4.8978,-4.915,-4.9197,-4.9739,-5.0811,-5.2573,-5.3759,-5.4449,-5.4886,-5.5094,-5.5206,-5.6137,-5.6499,-5.6558,-5.7806,-5.7976,-5.7544,-5.7989,-5.7813,-5.7403,0.0,0.0,0.0,0.0,0.0,0.0,0.0,0.0,0.0,0.0,0.0,0.0,0.0,0.0,0.0,0.0,0.0,0.0,0.0,0.0,0.0,-1.5644,-1.5908,-1.6728,-1.8255,-1.829,-1.8368,-1.8485,-1.8702,-1.918,0.0,-1.9903,-2.0678,-2.2112,-2.2212,-2.2224,-2.2189,-2.2258,-2.1901,-2.127,-2.127,-2.1206,-2.1087,-2.1164,-2.1263,-2.1362,-2.1384,-2.1497,-2.1644,-2.1644,0.0,0.0,0.0,0.0,-2.1867,-2.2015,-2.2531,-2.3085,0.0,0.0,0.0,0.0,0.0,0.0,0.0,0.0,0.0,0.0,0.0,0.0,0.0,0.0,0.0,0.0,0.0,0.0,0.0,0.0,0.0,0.0,0.0,0.0,0.0,0.0,-4.3412,-4.5016,-4.5247,-4.6059,-4.7806,-4.7974,-4.8072,-4.8267,-4.8495,-4.8605,-4.8587,-4.8785,-4.8962,-4.9101,-4.9164,-4.9696,-5.0647,-5.2397,-5.3399,-5.3794,-5.4658,-5.5028,-5.5151,-5.5874,-5.6178,-5.6226,-5.7004,-5.7203,-5.7059,-5.7168,-5.7099,-5.6967,0.0,0.0,0.0,0.0,0.0,0.0,0.0,0.0,0.0,0.0,0.0,0.0,0.0,0.0,0.0,0.0,0.0,0.0,-1.3154,0.0,0.0,-1.5752,-1.6458,-1.7297,-1.8273,-1.829,-1.8368,-1.8485,-1.9273,0.0,0.0,0.0,0.0,-2.2122,-2.2693,-2.2961,-2.2961,-2.3017,-2.26,-2.1882,-2.195,-2.1582,-2.1015,-2.1081,-2.1123,-2.1164,-2.1342,-2.1438,-2.1457,-2.144,-2.1478,0.0,0.0,0.0,-2.1698,-2.2446,-2.2757,0.0,0.0,0.0,0.0,0.0,0.0,0.0,0.0,0.0,0.0,0.0,0.0,0.0,0.0,0.0,0.0,0.0,0.0,0.0,0.0,0.0,0.0,0.0,0.0,0.0,0.0,0.0,-4.3274,-4.4934,-4.5188,-4.6055,-4.7811,-4.797,-4.809,-4.8226,-4.8419,-4.855,-4.8587,-4.8732,-4.8911,-4.9101,-4.923,-4.9459,-4.98,-5.1549,-5.2772,-5.361,-5.4562,-5.5,-5.5028,-5.5199,-5.5256,-5.5275,-5.612,-5.5977,-5.5318,-5.6076,-5.5887,-5.5223,0.0,0.0,0.0,0.0,0.0,0.0,0.0,0.0,0.0,0.0,0.0,0.0,0.0,0.0,0.0,-1.2832,-1.2887,-1.3161,-1.3792,-1.4257,-1.5061,-1.635,-1.6787,-1.7403,-1.8273,-1.829,-1.8368,-1.8485,0.0,0.0,0.0,-2.1313,-2.1948,0.0,0.0,0.0,-2.3769,0.0,0.0,0.0,0.0,-2.383,-2.3596,-2.3602,-2.365,-2.3673,-2.3784,-2.383,-2.3804,-2.3338,-2.3221,-2.3171,-2.2782,0.0,0.0,0.0,-2.3262,0.0,0.0,0.0,0.0,0.0,0.0,0.0,0.0,0.0,0.0,0.0,0.0,0.0,0.0,0.0,0.0,0.0,0.0,0.0,0.0,0.0,0.0,0.0,0.0,0.0,0.0,0.0,-4.3077,-4.4245,-4.4935,-4.6041,-4.7688,-4.7915,-4.8032,-4.8151,-4.8381,-4.8513,-4.8587,-4.8732,-4.8927,-4.915,-4.923,-4.9358,-4.9589,-5.1355,-5.2371,-5.2889,-5.4333,-5.4941,-5.496,-5.4971,-5.4971,-5.4979,-5.5378,-5.5253,-5.4958,-5.5337,-5.5223,-5.4901,0.0,0.0,0.0,0.0,0.0,0.0,0.0,0.0,0.0,0.0,0.0,0.0,0.0,0.0,0.0,0.0,-1.3146,-1.3573,-1.4513,-1.4881,-1.5605,-1.6846,-1.713,-1.7593,-1.8287,-1.829,-1.8368,-1.8465,0.0,0.0,-2.089,-2.1859,-2.2717,0.0,-2.3443,-2.3839,0.0,0.0,0.0,0.0,0.0,-2.5446,-2.55,-2.5526,-2.5553,-2.5605,-2.5605,-2.5657,-2.5595,-2.5017,-2.4804,-2.4715,-2.4219,-2.3922,0.0,0.0,0.0,0.0,0.0,0.0,0.0,0.0,0.0,0.0,0.0,0.0,0.0,0.0,0.0,0.0,0.0,0.0,0.0,0.0,0.0,0.0,0.0,0.0,0.0,0.0,0.0,0.0,0.0,0.0,-4.2951,-4.3796,-4.4755,-4.6005,-4.7601,-4.7901,-4.8014,-4.8075,-4.8324,-4.8513,-4.8587,-4.8768,-4.8962,-4.9197,-4.9197,-4.9313,-4.9565,-5.1312,-5.2171,-5.2337,-5.4122,-5.4871,-5.4901,-5.4901,-5.4901,-5.4901,-5.4901,-5.4901,-5.4901,-5.4901,-5.4901,-5.4901,0.0,0.0,0.0,0.0,0.0,0.0,0.0,0.0,0.0,0.0,0.0,0.0,-1.2495,-1.2558,-1.2931,-1.3767,-1.3896,-1.4331,-1.5278,-1.6109,-1.6672,-1.6881,-1.7624,0.0,-1.8315,-1.8304,-1.8348,0.0,0.0,0.0,-2.0842,-2.2418,-2.352,-2.4233,-2.4251,-2.4647,-2.5349,0.0,0.0,0.0,0.0,0.0,-2.5216,-2.53,-2.53,-2.5327,-2.5382,-2.5409,-2.5409,-2.5357,-2.5357,-2.5339,-2.5304,-2.4761,-2.4173,0.0,0.0,0.0,0.0,0.0,0.0,0.0,0.0,0.0,0.0,0.0,0.0,0.0,0.0,0.0,0.0,0.0,0.0,0.0,0.0,0.0,0.0,0.0,0.0,0.0,0.0,0.0,0.0,0.0,-4.3005,-4.4016,-4.4827,-4.5983,-4.7611,-4.7897,-4.7992,-4.7992,-4.819,-4.842,-4.8587,-4.8785,-4.9012,-4.9197,-4.9197,-4.9313,-4.9565,-5.1312,-5.2109,-5.2203,-5.4018,-5.486,-5.4901,-5.4901,-5.4901,-5.4901,-5.4901,-5.4901,-5.4901,-5.4901,-5.4901,-5.4901,0.0,0.0,0.0,0.0,0.0,0.0,0.0,0.0,0.0,0.0,0.0,0.0,0.0,-1.381,-1.4036,-1.4384,-1.4588,-1.511,-1.6034,-1.6437,-1.6936,-1.7578,-1.7915,-1.8155,-1.8295,-1.8298,-1.8586,0.0,0.0,-2.1048,-2.1597,-2.2652,-2.3812,-2.498,-2.4515,-2.498,-2.609,-2.609,0.0,0.0,0.0,0.0,0.0,0.0,0.0,0.0,0.0,0.0,0.0,-2.7459,-2.6987,-2.6544,-2.6045,-2.5425,-2.4853,-2.4853,-2.5147,-2.5605,0.0,0.0,0.0,0.0,0.0,0.0,0.0,0.0,0.0,0.0,0.0,0.0,0.0,0.0,0.0,0.0,0.0,0.0,0.0,0.0,0.0,0.0,0.0,0.0,0.0,0.0,-4.2753,-4.3095,-4.3996,-4.5022,-4.623,-4.6913,-4.7521,-4.813,-4.8229,-4.842,-4.8587,-4.8785,-4.9012,-4.9197,-4.9197,-4.9313,-4.9565,-5.1211,-5.2027,-5.2203,-5.3873,-5.4654,-5.4767,-5.4767,-5.4767,-5.4767,-5.4767,-5.4767,-5.4767,-5.4767,-5.4767,-5.4767,0.0,0.0,0.0,0.0,0.0,0.0,0.0,0.0,0.0,-1.3452,0.0,0.0,0.0,0.0,-1.4724,-1.5101,-1.5564,-1.611,-1.6775,-1.6875,-1.7221,-1.7905,-1.8005,-1.8194,-1.8599,-1.8616,-1.9044,0.0,0.0,0.0,0.0,-2.2695,-2.3867,-2.5302,-2.4822,-2.5442,0.0,0.0,0.0,-2.7869,0.0,0.0,-2.8916,0.0,0.0,0.0,0.0,0.0,0.0,0.0,-2.8509,-2.7853,-2.7356,-2.6575,-2.5772,-2.5512,-2.573,-2.6148,-2.6389,0.0,0.0,0.0,0.0,0.0,0.0,0.0,0.0,0.0,0.0,0.0,0.0,0.0,0.0,0.0,0.0,0.0,0.0,0.0,0.0,0.0,0.0,0.0,0.0,0.0,-4.2609,-4.2627,-4.3526,0.0,-4.5197,-4.6239,-4.7268,-4.8286,-4.8363,-4.8495,-4.8678,-4.882,-4.9012,-4.9197,-4.9197,-4.9313,-4.9546,-5.118,-5.1944,-5.2121,-5.3757,-5.4557,-5.4692,-5.4692,-5.4692,-5.4692,-5.4692,-5.4692,-5.4692,-5.4692,-5.4692,-5.4692,0.0,0.0,0.0,0.0,0.0,0.0,0.0,0.0,-1.3467,-1.4144,0.0,0.0,0.0,0.0,0.0,-1.6007,-1.6865,-1.7379,-1.7451,-1.7592,-1.7725,-1.7856,-1.7929,-1.8358,-1.9207,-1.9287,-1.9711,0.0,0.0,0.0,0.0,0.0,-2.372,-2.5209,-2.5181,-2.6109,-2.7587,0.0,-2.7826,-2.8501,0.0,-2.887,-2.9488,0.0,0.0,0.0,-3.0367,-3.0367,0.0,-3.0367,0.0,0.0,0.0,-2.8254,-2.6939,-2.619,-2.5985,-2.6138,0.0,0.0,0.0,0.0,0.0,0.0,0.0,0.0,0.0,0.0,0.0,0.0,0.0,0.0,0.0,0.0,0.0,0.0,0.0,0.0,0.0,0.0,0.0,0.0,0.0,0.0,-4.2627,-4.2681,-4.3544,-4.4263,-4.4671,-4.6038,-4.7346,-4.8476,-4.8587,-4.8678,-4.8787,-4.8874,-4.9012,-4.9197,-4.9197,-4.9295,-4.9565,-5.1161,-5.1912,-5.1987,-5.3677,-5.451,-5.4692,-5.4692,-5.4692,-5.4692,-5.4692,-5.4692,-5.4692,-5.4692,-5.4692,-5.4692,0.0,0.0,0.0,0.0,0.0,-1.3144,-1.3821,-1.3929,-1.416,0.0,0.0,0.0,-1.5801,-1.6496,-1.7311,-1.8168,-1.86,-1.8874,-1.8989,-1.9127,-1.9253,-1.9393,-1.945,-1.9624,-1.9918,-1.9935,-2.0384,-2.1305,-2.1554,-2.1985,-2.2606,-2.2789,0.0,0.0,-2.5142,-2.5981,-2.7504,-2.7996,0.0,0.0,-2.961,-3.0435,0.0,0.0,0.0,0.0,0.0,-3.2377,-3.2377,0.0,-3.1952,-3.1218,0.0,0.0,-2.8562,-2.8357,-2.8254,-2.8117,-2.7691,0.0,0.0,0.0,0.0,0.0,0.0,0.0,0.0,0.0,0.0,0.0,0.0,0.0,0.0,0.0,0.0,0.0,0.0,0.0,0.0,0.0,0.0,0.0,0.0,0.0,-4.2609,0.0,-4.3003,-4.3574,-4.4417,-4.6082,-4.7461,-4.8476,-4.8587,-4.8678,-4.8787,-4.8874,-4.8996,-4.9135,-4.9164,-4.9244,-4.9396,-5.111,-5.1912,-5.1987,-5.3677,-5.4424,-5.4476,-5.4476,-5.4476,-5.4476,-5.4476,-5.4476,-5.4476,-5.4476,-5.4476,-5.4476,0.0,0.0,0.0,0.0,0.0,-1.3836,-1.4514,-1.4621,-1.4975,0.0,0.0,0.0,-1.7205,-1.7928,-1.8555,-1.9029,-1.9272,-1.9422,-1.9503,-1.9664,-1.9779,-1.9857,-1.9951,-2.0179,-2.062,-2.062,-2.1071,-2.197,-2.197,-2.2246,-2.2764,-2.2764,-2.3604,0.0,0.0,0.0,0.0,0.0,0.0,0.0,-3.0488,0.0,0.0,-3.2758,-3.3386,0.0,0.0,0.0,-3.404,-3.404,-3.3379,0.0,0.0,0.0,0.0,-2.9593,-2.9268,-2.8856,-2.8308,-2.8364,-2.8486,0.0,0.0,0.0,-2.9632,-3.0359,0.0,0.0,0.0,0.0,0.0,0.0,0.0,0.0,0.0,0.0,0.0,0.0,0.0,0.0,0.0,0.0,0.0,-4.2253,-4.2609,-4.2609,-4.2786,-4.3358,-4.4345,-4.5791,-4.7059,-4.7997,-4.8384,-4.8678,-4.8857,-4.8874,-4.8962,-4.9101,-4.915,-4.9197,-4.9332,-5.1012,-5.1761,-5.1888,-5.3556,-5.4306,-5.4359,-5.4359,-5.4375,-5.4409,-5.4409,-5.4409,-5.4409,-5.4409,-5.4409,-5.4409,0.0,0.0,-1.4221,-1.4298,-1.4313,-1.4544,-1.5222,-1.5365,-1.5841,0.0,-1.7299,-1.7682,-1.8624,-1.9021,-1.9295,-1.9439,-1.9702,-1.9857,-1.9886,-2.0064,-2.014,-2.0057,-2.0127,-2.0502,-2.1278,-2.1295,-2.1671,-2.2487,-2.2487,-2.2549,-2.2716,-2.2716,-2.3577,-2.5097,0.0,0.0,0.0,0.0,0.0,-2.9851,-3.117,-3.2141,0.0,0.0,-3.41,-3.465,-3.5362,-3.5522,-3.5429,-3.5429,-3.4549,0.0,0.0,0.0,0.0,0.0,-2.9686,-2.9072,-2.8774,-2.86,-2.8533,-2.8411,0.0,0.0,-2.9338,-3.0087,-3.0965,0.0,0.0,0.0,0.0,0.0,0.0,0.0,0.0,0.0,0.0,0.0,0.0,0.0,0.0,0.0,-4.0882,-4.1729,-4.2336,-4.2465,-4.2732,-4.3358,-4.4345,-4.526,-4.625,-4.7368,-4.8088,-4.8621,-4.8909,-4.8909,-4.8962,-4.9068,-4.9101,-4.9116,-4.9253,-5.086,-5.1607,-5.17,-5.3362,-5.4181,-5.4289,-5.4289,-5.4324,-5.4409,-5.4409,-5.4409,-5.4409,-5.4409,-5.4409,-5.4409,0.0,-1.4575,-1.4375,-1.4914,-1.5006,-1.5237,-1.5887,-1.6455,-1.6901,-1.7162,-1.7819,-1.8749,-2.003,-2.0383,-2.1038,-2.2255,-2.252,-2.2654,-2.2785,-2.3012,-2.2905,-2.2308,-2.2395,-2.2249,-2.1854,-2.1838,-2.1995,-2.2338,-2.2338,-2.2711,-2.3386,-2.3386,-2.4235,-2.5723,0.0,0.0,0.0,0.0,0.0,-3.1196,-3.2162,0.0,-3.3522,-3.4779,-3.5566,-3.6169,-3.6701,-3.6919,-3.687,-3.687,-3.5966,-3.4772,0.0,0.0,0.0,-3.18,0.0,0.0,0.0,0.0,0.0,0.0,0.0,0.0,-2.9745,-3.0031,-3.0349,0.0,0.0,0.0,0.0,0.0,0.0,0.0,0.0,0.0,0.0,0.0,0.0,0.0,0.0,0.0,-4.0024,-4.0324,-4.082,-4.1602,-4.2519,-4.3469,-4.4345,-4.4693,-4.5626,-4.735,-4.7534,-4.8048,-4.889,-4.8909,-4.8909,-4.8943,-4.9049,-4.9101,-4.9191,-5.0844,-5.1607,-5.17,-5.3362,-5.4127,-5.4146,-5.4146,-5.4252,-5.4409,-5.4409,-5.4409,-5.4409,-5.4409,-5.4409,-5.4409,-1.5687,-1.5437,-1.5314,-1.5626,-1.5687,-1.5918,-1.6594,-1.6978,-1.7439,-1.8161,-1.9277,-2.0436,-2.1483,-2.1821,-2.2423,-2.3542,-2.3497,-2.3573,-2.4,-2.3915,-2.3687,-2.3325,-2.3357,-2.327,-2.3015,-2.2998,-2.3076,-2.3244,-2.3244,-2.3519,-2.4041,-2.4041,-2.4713,-2.5931,0.0,0.0,0.0,0.0,-3.0834,-3.1526,-3.2707,0.0,-3.4684,-3.5667,-3.6421,-3.6984,-3.7636,-3.7818,-3.7768,-3.7768,-3.707,0.0,0.0,-3.4948,-3.3941,0.0,-3.2684,-3.2147,0.0,0.0,0.0,-3.0563,0.0,0.0,0.0,-3.0041,-2.9946,0.0,0.0,0.0,0.0,0.0,0.0,0.0,0.0,0.0,0.0,0.0,0.0,0.0,0.0,0.0,-3.8987,-3.9619,-4.0265,-4.0869,-4.1831,-4.265,-4.316,-4.4072,-4.5077,-4.6116,-4.6945,-4.7661,-4.8245,-4.867,-4.8909,-4.8909,-4.8962,-4.8996,-4.9071,-5.0724,-5.1504,-5.1597,-5.3237,-5.4,-5.4037,-5.4037,-5.4146,-5.4252,-5.4252,-5.4287,-5.4359,-5.4359,-5.4359,-5.4359,-1.621,-1.6194,-1.6194,-1.6194,-1.6302,-1.6578,-1.7116,-1.7423,-1.8115,-1.9502,-2.1,-2.2212,-2.2876,-2.3274,-2.3824,-2.4592,-2.4319,-2.4386,-2.5003,-2.4668,-2.4368,-2.4256,-2.4159,-2.4097,-2.4149,-2.4001,-2.4016,-2.4161,-2.4161,-2.4325,-2.4666,-2.4666,-2.5251,0.0,0.0,0.0,0.0,0.0,0.0,-3.1975,0.0,-3.46,-3.5633,-3.6538,-3.7117,-3.7636,-3.8502,-3.8731,-3.8626,-3.8626,-3.8098,-3.7369,-3.6771,-3.6104,0.0,0.0,0.0,0.0,0.0,0.0,0.0,0.0,0.0,-3.0687,0.0,0.0,0.0,0.0,0.0,0.0,0.0,0.0,0.0,0.0,0.0,0.0,0.0,0.0,0.0,0.0,0.0,0.0,-3.7684,-3.8951,-3.9871,-4.0094,-4.0962,-4.1597,-4.1904,-4.3323,-4.4344,-4.4851,-4.6225,-4.7126,-4.7583,-4.8317,-4.876,-4.8909,-4.8874,-4.8874,-4.893,-5.0433,-5.1213,-5.1399,-5.2864,-5.3664,-5.3907,-5.3907,-5.3926,-5.3981,-5.4055,-5.4146,-5.4254,-5.4254,-5.4254,-5.4254,-1.6218,-1.6095,-1.6123,-1.6194,-1.6686,-1.7116,-1.7193,-1.8253,-1.9549,-2.0905,-2.2322,-2.346,-2.4188,-2.4901,-2.5665,-2.6583,-2.6609,-2.6735,-2.7038,-2.7081,-2.6824,-2.6296,-2.5756,-2.5232,-2.4734,-2.4063,-2.3819,-2.4033,-2.4033,-2.4431,-2.5213,-2.5328,-2.6152,0.0,-2.7776,0.0,0.0,0.0,-3.2324,0.0,-3.4852,-3.5273,0.0,-3.7502,-3.8236,-3.8452,-3.9744,-4.0188,-4.0133,0.0,-3.9222,-3.8079,0.0,-3.745,-3.6622,-3.5229,0.0,0.0,0.0,0.0,0.0,0.0,-3.1486,0.0,0.0,0.0,-3.0796,-3.0053,0.0,0.0,0.0,0.0,0.0,0.0,0.0,0.0,0.0,0.0,0.0,0.0,0.0,-3.4931,-3.5906,-3.776,-3.8953,-3.8972,-3.9949,-4.089,-4.1687,-4.2086,-4.303,-4.4671,-4.5102,-4.5999,-4.7583,-4.776,-4.8184,-4.8909,-4.8857,-4.8822,-4.8859,-4.9677,-5.0453,-5.1192,-5.2079,-5.2874,-5.3579,-5.3579,-5.3579,-5.36,-5.3981,-5.4091,-5.4127,-5.4127,-5.4127,-5.4127,-1.618,-1.6039,0.0,-1.6644,-1.695,-1.7424,-1.8284,-1.9595,-2.109,-2.2809,-2.3613,-2.4622,0.0,0.0,0.0,0.0,0.0,-2.8336,0.0,0.0,-2.8227,-2.7666,-2.7403,-2.6985,-2.637,-2.6146,-2.6096,-2.6208,-2.6282,-2.6343,-2.6407,-2.6892,-2.73,0.0,-2.8592,0.0,-3.0606,0.0,0.0,0.0,0.0,0.0,0.0,-3.8635,-3.9428,-4.0111,-4.0572,-4.0786,-4.0882,0.0,-4.026,0.0,0.0,0.0,0.0,0.0,0.0,0.0,0.0,0.0,0.0,0.0,0.0,0.0,-3.2285,0.0,-3.0945,0.0,0.0,0.0,0.0,0.0,0.0,0.0,-2.9767,0.0,0.0,0.0,0.0,0.0,0.0,0.0,-3.4882,-3.6242,-3.7159,-3.7325,-3.8669,-3.9733,-4.0329,-4.136,-4.2338,-4.3208,-4.4336,-4.5287,-4.6039,-4.7013,-4.7677,-4.8011,-4.8456,-4.8678,-4.8715,-4.9529,-5.0323,-5.1135,-5.1948,-5.2761,-5.3499,-5.3499,-5.3499,-5.3539,-5.3678,-5.3832,-5.3963,-5.4,-5.4037,-5.4037,-1.6593,0.0,0.0,0.0,-1.7502,-1.8113,-1.9559,-2.108,-2.2678,-2.4364,-2.513,0.0,-2.8091,-2.8542,0.0,0.0,-3.0117,-3.0203,0.0,0.0,-2.9738,-2.9402,-2.9051,-2.8694,-2.8297,-2.804,-2.7913,-2.8005,-2.7948,-2.7748,-2.7356,-2.8015,-2.8213,-2.8065,0.0,-3.0212,-3.1215,0.0,0.0,-3.5599,-3.717,-3.8676,-3.9952,-3.9847,-4.0519,-4.1395,-4.1295,-4.1353,-4.1453,-4.1453,-4.1106,0.0,-4.0034,-3.9371,0.0,0.0,0.0,0.0,-3.6515,0.0,0.0,0.0,0.0,0.0,0.0,0.0,0.0,0.0,0.0,0.0,0.0,0.0,-3.004,-3.0254,0.0,-2.9437,0.0,0.0,0.0,0.0,0.0,0.0,0.0,-3.4853,-3.5623,-3.6147,-3.7396,-3.8456,-3.9211,-4.069,-4.1704,-4.2116,-4.3681,-4.463,-4.4904,-4.6133,-4.6962,-4.7405,-4.7978,-4.8347,-4.8587,-4.9177,-4.9987,-5.1001,-5.1551,-5.2379,-5.3318,-5.3359,-5.3359,-5.3378,-5.34,-5.3521,-5.3678,-5.3813,-5.3869,-5.3869,-1.763,-1.751,0.0,0.0,0.0,0.0,-2.0849,0.0,0.0,0.0,0.0,0.0,0.0,0.0,0.0,0.0,0.0,-3.2579,-3.2687,0.0,-3.1779,0.0,0.0,-3.0085,0.0,-2.9029,-2.8398,-2.848,-2.7946,-2.7729,-2.7778,-2.8145,-2.8665,-2.935,0.0,-3.0553,-3.2043,-3.355,-3.4931,-3.6354,-3.8311,-4.0242,-4.1835,0.0,-4.1393,-4.1983,-4.1983,0.0,0.0,-4.2209,-4.1807,-4.1181,-4.1302,0.0,0.0,0.0,0.0,0.0,0.0,0.0,0.0,-3.5806,0.0,0.0,0.0,0.0,-3.3599,0.0,0.0,0.0,-3.0535,-3.0412,-3.0485,-3.0709,-3.0214,0.0,0.0,0.0,0.0,0.0,0.0,0.0,0.0,-3.39,-3.4894,-3.5761,-3.6219,-3.7167,-3.8814,-3.9932,-4.0979,-4.1975,-4.3025,-4.3989,-4.4886,-4.5026,-4.5854,-4.7387,-4.737,-4.774,-4.8513,-4.8341,-4.9142,-5.0602,-5.0495,-5.1347,-5.285,-5.2937,-5.2999,-5.3042,-5.3235,-5.33,-5.3341,-5.3459,-5.3539,-5.3539,0.0,0.0,0.0,0.0,0.0,0.0,0.0,-2.3964,0.0,0.0,0.0,0.0,0.0,-3.2399,-3.3343,0.0,0.0,-3.4862,-3.4519,-3.4446,0.0,0.0,0.0,-3.216,0.0,-3.1031,-3.0703,-3.0275,-3.0302,-2.9875,-2.913,-2.9745,-2.9711,-2.9264,0.0,-3.1421,0.0,0.0,0.0,0.0,0.0,-4.0851,-4.1836,0.0,-4.1966,-4.2586,-4.2447,-4.2509,-4.2586,-4.2664,-4.2294,-4.173,-4.1773,-4.1313,-4.0721,-4.0255,-3.9952,-3.9609,-3.9235,-3.8998,-3.8727,-3.8171,0.0,0.0,0.0,0.0,0.0,0.0,0.0,0.0,0.0,-3.2098,-3.1758,-3.1488,-3.0951,-3.0746,0.0,0.0,0.0,0.0,0.0,0.0,0.0,0.0,0.0,-3.4156,-3.5417,-3.6451,-3.7202,-3.8762,-4.0093,-4.1086,-4.2116,-4.3059,-4.397,-4.4504,-4.5348,-4.6415,-4.6874,-4.7534,-4.8304,-4.813,-4.8926,-5.0459,-5.0417,-5.1329,-5.2806,-5.285,-5.2912,-5.2999,-5.3066,-5.317,-5.3272,-5.3418,-5.3499,-5.3499,-2.1423,0.0,0.0,0.0,0.0,0.0,0.0,0.0,0.0,0.0,-3.0349,0.0,-3.3256,0.0,-3.5243,0.0,-3.6493,-3.6633,-3.6318,-3.6245,0.0,-3.5069,-3.469,0.0,0.0,0.0,-3.2489,-3.1864,-3.1813,-3.1294,-3.0376,-3.0997,-3.0859,-3.0174,0.0,0.0,0.0,0.0,-3.5728,0.0,0.0,-4.126,0.0,0.0,-4.2369,-4.2775,-4.2634,-4.2696,-4.2837,-4.2899,-4.2635,-4.2348,-4.2408,-4.1933,-4.1318,-4.1124,-4.0929,-4.0674,-4.0556,-4.0453,-4.0236,-3.9693,-3.9108,-3.8424,-3.7785,0.0,-3.5949,0.0,0.0,0.0,0.0,-3.3454,-3.2959,-3.267,-3.1966,-3.146,0.0,-3.1683,0.0,0.0,0.0,0.0,0.0,0.0,-3.2703,-3.3241,-3.4725,-3.581,0.0,-3.8151,-3.9589,-4.0598,-4.1575,-4.2518,-4.3375,-4.3905,-4.4711,-4.5791,-4.6265,-4.7088,-4.8148,-4.801,-4.8717,-4.9931,-5.018,-5.1035,-5.229,-5.2589,-5.2806,-5.285,-5.2937,-5.3225,-5.3549,-5.3405,-5.3378,-5.3378,0.0,0.0,0.0,0.0,-2.2822,0.0,0.0,0.0,-2.9411,0.0,-3.2773,-3.4454,-3.5819,-3.6607,-3.7304,-3.794,-3.8046,-3.8061,-3.7985,-3.7578,0.0,0.0,-3.6353,-3.584,-3.5809,0.0,0.0,0.0,-3.2651,-3.2029,-3.1499,-3.1903,-3.2029,-3.2012,-3.2229,0.0,-3.3547,-3.5021,-3.6118,-3.7134,-3.9675,-4.1508,-4.2634,-4.2603,-4.2682,-4.2682,-4.2587,-4.2634,-4.2634,-4.2837,-4.2899,-4.2899,-4.3052,-4.2561,-4.2005,-4.1857,-4.1309,-4.0772,-4.0653,-4.0594,-4.0534,-4.0414,-4.0353,-4.0276,-3.9939,-3.869,-3.7587,0.0,0.0,0.0,0.0,-3.4441,-3.4029,-3.4148,-3.3161,-3.2212,-3.1871,-3.2185,0.0,0.0,0.0,0.0,0.0,-3.1445,-3.2001,-3.2968,-3.4142,0.0,0.0,-3.8026,-3.95,-4.0456,-4.1379,-4.2268,-4.3196,-4.3214,-4.4017,-4.5603,-4.5603,-4.6442,-4.7992,-4.7925,-4.8356,-4.9174,-4.9807,-5.056,-5.1393,-5.2254,-5.259,-5.2654,-5.2893,-5.3493,-5.4115,-5.3494,-5.328,-5.3261,-2.3885,-2.3978,-2.4256,0.0,-2.5118,-2.5659,0.0,0.0,0.0,0.0,-3.4162,-3.5424,-3.6265,-3.7811,-3.8862,-3.9028,-4.0031,0.0,0.0,0.0,0.0,-3.7999,-3.7682,-3.7397,-3.7047,-3.6322,-3.5652,-3.5043,0.0,-3.3817,-3.274,-3.3013,-3.2672,0.0,0.0,0.0,-3.417,-3.5622,-3.7454,-3.9625,-4.0848,-4.1824,-4.2682,0.0,-4.3427,-4.3362,-4.2828,-4.2634,-4.2634,-4.2634,-4.2696,-4.2696,-4.2696,-4.2629,-4.2405,-4.2421,-4.2291,-4.2083,-4.2083,-4.2083,-4.1954,-4.1375,-4.12,-4.0965,-4.0296,-3.9774,-3.932,-3.9013,-3.8225,-3.7333,-3.6576,-3.6009,-3.5498,-3.5149,-3.4609,-3.3938,-3.2837,0.0,0.0,-3.2245,0.0,0.0,0.0,-3.1385,-3.1774,-3.2315,-3.3825,0.0,0.0,0.0,-3.8905,-4.0366,-4.0799,-4.1686,-4.3196,-4.3214,-4.4017,-4.5603,-4.5544,-4.6361,-4.7925,-4.7801,-4.852,-4.9844,-5.0043,-5.0886,-5.2208,-5.2435,-5.2599,-5.2761,-5.2806,-5.3449,-5.4338,-5.4179,-5.4087,-5.4014,-2.5787,0.0,0.0,-2.7336,0.0,0.0,-2.931,-3.1031,0.0,-3.4188,-3.6028,0.0,-3.7734,-3.9275,-4.0277,-4.0277,-4.104,0.0,-4.0484,0.0,0.0,-3.9753,-3.9284,-3.8932,-3.8698,-3.7926,0.0,-3.615,0.0,-3.5196,-3.4014,-3.3893,0.0,0.0,0.0,-3.403,0.0,-3.6325,-3.8286,-4.0365,-4.1107,-4.2009,0.0,-4.3444,-4.3848,-4.414,-4.3719,-4.3362,-4.3055,-4.2731,-4.2634,-4.2634,-4.2634,-4.2634,-4.2634,-4.2634,-4.2634,-4.2634,-4.2634,-4.2634,-4.2537,-4.2132,-4.1989,-4.1768,-4.1303,-4.0919,-4.0587,-4.0307,-3.9688,-3.8912,-3.8033,-3.7381,-3.6648,-3.58,-3.5332,-3.482,0.0,0.0,0.0,0.0,-3.3389,0.0,-3.233,-3.2083,-3.1994,-3.2018,-3.3666,0.0,0.0,0.0,-3.8654,-4.0311,-4.0528,-4.1397,-4.3069,-4.3087,-4.3887,-4.5488,-4.5428,-4.6259,-4.7819,-4.7717,-4.8405,-4.9601,-4.9945,-5.0796,-5.1991,-5.2353,-5.2599,-5.2735,-5.3251,-5.3804,-5.4399,-5.4399,-5.4399,-5.4289,0.0,0.0,0.0,0.0,0.0,0.0,0.0,-3.3065,0.0,-3.5827,0.0,-3.9484,-3.9649,-4.0771,-4.1504,-4.1504,0.0,-4.1609,-4.1519,-4.1671,-4.1791,-4.1716,-4.0876,-4.038,-4.0451,-3.9342,-3.8185,0.0,-3.6925,-3.6302,-3.5316,-3.4769,0.0,0.0,0.0,0.0,0.0,-3.7285,-3.8958,-4.0206,-4.0942,-4.211,-4.3443,-4.3605,-4.4121,-4.4933,-4.4917,-4.4464,-4.3735,-4.3022,-4.2763,-4.2763,-4.2666,-4.2634,-4.2634,-4.2634,-4.2634,-4.265,-4.2747,-4.2636,-4.265,-4.2747,-4.2636,-4.2571,-4.2445,-4.1993,-4.1496,-4.1339,-4.0732,-4.0075,-3.939,-3.8632,-3.7664,-3.6361,-3.5813,0.0,0.0,0.0,0.0,0.0,0.0,0.0,0.0,0.0,0.0,0.0,0.0,0.0,0.0,0.0,-3.8618,-4.02,-4.0384,-4.1234,-4.2882,-4.29,-4.3697,-4.5291,-4.5291,-4.6142,-4.7717,-4.7717,-4.8206,-4.9112,-4.98,-5.0615,-5.1502,-5.2236,-5.2554,-5.2771,-5.3679,-5.4202,-5.4399,-5.4289,-5.4308,-5.4289,0.0,0.0,0.0,0.0,0.0,-3.3451,-3.4006,-3.4673,-3.5919,-3.8195,-3.8981,-3.9828,-4.092,-4.1728,-4.2192,-4.2192,-4.2686,0.0,0.0,0.0,0.0,-4.1746,-4.1564,-4.1576,-4.1928,-4.0598,-3.9857,-3.9816,-3.8253,-3.7142,-3.6397,-3.6041,0.0,0.0,0.0,0.0,-3.7412,-3.899,0.0,-4.0974,-4.1661,-4.2461,-4.3359,-4.4053,-4.478,-4.5459,-4.5578,-4.5192,-4.4496,-4.3767,-4.3524,-4.3411,-4.2812,-4.2634,-4.2634,-4.2634,-4.2634,-4.2763,-4.3362,-4.3087,-4.278,-4.3379,-4.3071,-4.2571,-4.2571,-4.2474,-4.233,-4.2188,-4.1657,-4.108,-4.0796,-3.975,-3.8534,-3.73,-3.7074,0.0,0.0,0.0,0.0,0.0,0.0,-3.4959,0.0,0.0,0.0,0.0,0.0,0.0,0.0,0.0,-3.8474,0.0,-4.0218,-4.1067,0.0,-4.2822,-4.3656,-4.5291,-4.5291,-4.6142,-4.7717,-4.7717,-4.8496,-4.989,-5.0035,-5.0923,-5.2299,-5.2481,-5.2698,-5.2955,-5.3268,-5.3787,-5.4326,-5.3665,-5.383,-5.4289,0.0,0.0,0.0,0.0,0.0,0.0,0.0,-3.6799,-3.7467,-3.8941,-4.007,-4.1024,-4.1818,-4.2776,-4.3374,-4.3374,-4.3658,-4.3703,-4.3389,-4.306,-4.2731,-4.2572,-4.2303,-4.2259,-4.2485,-4.166,-4.0965,-4.0316,-3.9539,-3.8484,-3.7235,-3.6796,0.0,0.0,0.0,-3.7213,0.0,0.0,0.0,-4.0944,-4.201,-4.2919,-4.3687,-4.4457,-4.5351,-4.6099,-4.6221,-4.6079,-4.571,-4.4642,-4.4269,-4.414,-4.3411,-4.3184,-4.3184,-4.3184,-4.3184,-4.3346,-4.4075,-4.3735,-4.3281,-4.3622,-4.3168,-4.2634,-4.2634,-4.2634,-4.2571,-4.2508,-4.225,-4.1911,-4.1445,-4.034,-3.9291,-3.8666,0.0,0.0,0.0,0.0,0.0,0.0,0.0,0.0,0.0,0.0,0.0,0.0,0.0,0.0,0.0,0.0,-3.8438,0.0,0.0,0.0,-4.2688,0.0,-4.3953,-4.5247,-4.5644,-4.6499,-4.7717,-4.8134,-4.8967,-5.0108,-5.0524,-5.1393,-5.2498,-5.2627,-5.2806,-5.2999,-5.3164,-5.3445,-5.3739,-5.3353,-5.3463,-5.372,0.0,-3.2915,0.0,0.0,-3.5319,0.0,-3.797,-3.8716,-3.9205,-3.958,-4.1107,-4.2361,-4.2682,-4.3823,-4.4526,-4.4526,-4.4526,-4.4526,-4.4526,-4.4032,-4.3748,-4.3748,-4.3262,-4.298,-4.3057,-4.2591,-4.1824,-4.0619,-4.0539,-3.9631,-3.8085,-3.753,-3.7124,0.0,0.0,0.0,0.0,-4.0135,-4.0767,-4.1146,-4.2236,-4.3305,-4.4236,-4.4792,-4.5639,-4.6528,-4.6582,-4.6722,-4.6645,-4.5613,-4.5127,-4.4885,-4.4172,-4.3945,-4.3945,-4.3945,-4.3945,-4.4091,-4.482,-4.4366,-4.3751,-4.3897,-4.3281,-4.2634,-4.2634,-4.2634,-4.2634,-4.2634,-4.2696,-4.2469,-4.1833,-4.0912,-4.0123,-3.9813,-3.9024,0.0,0.0,0.0,0.0,0.0,0.0,0.0,-3.6239,0.0,0.0,0.0,0.0,0.0,-3.6093,0.0,0.0,0.0,0.0,-4.0915,-4.257,0.0,-4.4209,-4.516,-4.5941,-4.6777,-4.7693,-4.8507,-4.9347,-5.0126,-5.0941,-5.1783,-5.2572,-5.2735,-5.2912,-5.3042,-5.3164,-5.3206,-5.3206,-5.3206,-5.3206,-5.3206,0.0,0.0,0.0,0.0,0.0,0.0,-3.8173,-3.9697,-4.0909,-4.1119,-4.2178,-4.3129,-4.3753,-4.4698,-4.5214,-4.5214,-4.5214,-4.5214,-4.5214,-4.5155,-4.511,-4.511,-4.4481,-4.4203,-4.4429,-4.3193,-4.2425,0.0,-4.0858,-3.9918,-3.9308,-3.8859,-3.8776,-3.9031,0.0,-3.9724,-4.0419,-4.0546,-4.1336,-4.2505,-4.2631,-4.3469,-4.4693,-4.4897,-4.546,-4.6168,-4.6458,-4.6582,-4.6636,-4.6662,-4.6261,-4.5597,-4.4901,-4.469,-4.469,-4.469,-4.469,-4.4836,-4.5516,-4.4723,-4.3864,-4.4528,-4.3654,-4.2634,-4.2634,-4.2759,-4.2899,-4.2899,-4.2945,-4.2839,-4.2212,-4.1966,-4.1501,-4.0285,-3.9956,0.0,0.0,0.0,-3.7934,-3.7467,0.0,0.0,-3.6973,-3.6465,0.0,0.0,-3.6239,0.0,0.0,0.0,0.0,-3.986,-3.9914,-4.0778,-4.2486,-4.3256,-4.4068,-4.5018,-4.59,-4.6735,-4.7547,-4.8489,-4.9347,-5.0126,-5.0941,-5.1873,-5.2761,-5.2806,-5.2955,-5.3164,-5.3206,-5.3206,-5.3206,-5.3206,-5.3206,-5.3206,0.0,0.0,0.0,0.0,0.0,0.0,0.0,-4.077,-4.1705,-4.2247,-4.3019,-4.3678,-4.451,-4.5347,-4.5918,-4.5918,-4.5918,-4.5918,-4.5918,-4.5529,-4.5289,-4.5289,-4.5035,-4.4721,-4.4398,-4.4018,-4.3484,0.0,-4.1855,-4.0974,-4.0108,-3.9596,-3.9318,-3.9171,-3.9626,-4.0222,-4.0927,-4.1319,-4.204,-4.2965,-4.3528,-4.4016,-4.4622,-4.5207,-4.577,-4.6112,-4.6223,-4.6349,-4.6458,-4.6668,-4.6613,-4.6326,-4.5613,-4.5403,-4.5403,-4.5403,-4.5403,-4.5548,-4.6261,-4.5419,-4.4431,-4.4723,-4.3702,-4.2634,-4.2759,-4.2837,-4.2899,-4.3007,-4.3052,-4.3015,-4.2752,-4.2419,-4.2061,-4.1486,-4.0776,-4.0111,0.0,0.0,0.0,-3.8204,0.0,-3.773,0.0,-3.7192,0.0,0.0,0.0,0.0,0.0,0.0,0.0,-3.9878,0.0,-4.1163,-4.2387,-4.3578,-4.4449,-4.4917,-4.6241,-4.7101,-4.7547,-4.8978,-5.0325,-5.1556,-5.1864,-5.2264,-5.2698,-5.2761,-5.2912,-5.3103,-5.3164,-5.3206,-5.3206,-5.3206,-5.3206,-5.3206,-3.7251,0.0,-3.8427,0.0,-3.9126,-3.9953,-4.0656,-4.1486,-4.2305,-4.3195,-4.3782,-4.4413,-4.5124,-4.5932,-4.652,-4.6606,-4.6606,-4.6606,-4.6606,-4.6157,-4.5888,-4.5888,-4.5708,0.0,-4.4616,-4.4569,-4.3976,-4.2895,-4.265,-4.1989,-4.1039,-4.0785,-4.051,-4.0162,-4.0645,-4.1226,-4.1725,-4.2193,-4.2786,-4.3457,-4.4085,-4.4397,-4.4721,-4.5384,-4.5735,-4.5952,-4.5968,-4.6096,-4.6278,-4.6458,-4.6668,-4.6726,-4.6277,-4.6115,-4.6115,-4.6115,-4.6115,-4.6228,-4.6747,-4.5856,-4.4787,-4.4787,-4.3719,-4.2696,-4.2899,-4.2961,-4.3084,-4.3235,-4.3235,-4.3235,-4.3235,-4.296,-4.2624,-4.2393,-4.1617,-4.0862,-4.0448,-3.9918,0.0,-3.8956,-3.8723,-3.8588,-3.8512,-3.7934,0.0,0.0,0.0,0.0,0.0,-3.8415,-3.9295,-4.0117,-4.0726,-4.151,-4.2585,-4.3921,-4.4749,-4.5129,-4.6542,-4.732,-4.7504,-4.9303,-5.0977,-5.2498,-5.2498,-5.2554,-5.259,-5.2698,-5.2806,-5.2955,-5.306,-5.3103,-5.3164,-5.3164,-5.3164,-5.3206,-3.8436,-3.8683,-3.8929,-3.9187,-3.9697,-4.0288,-4.0728,-4.1861,-4.2983,-4.3892,-4.4763,-4.5317,-4.5563,-4.6327,-4.7004,-4.7279,-4.7294,-4.7294,-4.7294,-4.7279,-4.7279,0.0,0.0,-4.5992,-4.5289,-4.4646,-4.3753,-4.2558,-4.2895,-4.2772,-4.2264,-4.2582,-4.2782,-4.2782,-4.2996,-4.3083,-4.3083,-4.3098,-4.3488,-4.4128,-4.4128,-4.4564,-4.5204,-4.522,-4.5368,-4.5515,-4.5735,-4.5952,-4.6096,-4.6278,-4.6458,-4.6668,-4.6807,-4.6876,-4.6876,-4.6876,-4.6876,-4.6876,-4.6876,-4.5856,-4.4787,-4.4787,-4.3847,-4.2899,-4.2899,-4.3146,-4.3432,-4.3568,-4.3568,-4.3568,-4.3568,-4.3611,-4.338,-4.2634,-4.2502,-4.2005,-4.058,-4.0365,0.0,-3.9744,-3.9024,-3.874,-3.9151,-3.8564,0.0,0.0,0.0,0.0,0.0,-3.9093,-3.9969,-4.0748,-4.0784,-4.1611,-4.3259,-4.4102,-4.4929,-4.5802,-4.6758,-4.7267,-4.7374,-4.9242,-5.0977,-5.2498,-5.2498,-5.2554,-5.259,-5.259,-5.2698,-5.2806,-5.2806,-5.2912,-5.2999,-5.2999,-5.3103,-5.3206,-3.9515,-3.9857,-4.0126,-4.0196,-4.0365,-4.0718,-4.1497,-4.2438,-4.3458,-4.4267,-4.5184,-4.574,-4.5991,-4.6535,-4.6931,0.0,-4.7207,-4.7309,0.0,-4.7309,-4.7309,-4.7309,-4.7115,-4.6681,-4.6022,-4.5319,-4.4638,-4.3992,-4.3349,-4.2802,-4.2529,-4.2586,-4.2659,-4.2659,-4.2731,-4.3035,-4.3453,-4.3453,-4.3855,-4.4474,-4.4623,-4.4763,-4.5039,-4.5129,-4.522,-4.5294,-4.5515,-4.5662,-4.5735,-4.6096,-4.6223,-4.6294,-4.6598,-4.6807,-4.6876,-4.6876,-4.6876,-4.6876,-4.6876,-4.6196,-4.537,-4.4901,-4.4204,-4.3565,-4.3121,-4.3312,-4.3568,-4.3568,-4.3628,-4.3628,-4.3628,-4.3628,-4.3545,-4.3313,-4.285,-4.2187,-4.1226,-4.068,-4.0209,-3.9761,-3.9476,-3.9496,-3.9898,-3.9316,0.0,0.0,0.0,0.0,0.0,-3.968,-4.0292,-4.0641,-4.1768,-4.2607,-4.3146,-4.4547,-4.5374,-4.5668,-4.6713,-4.7824,-4.8956,-4.9658,-5.0868,-5.2358,-5.2452,-5.2526,-5.2554,-5.2563,-5.2654,-5.2654,-5.2761,-5.2806,-5.285,-5.285,-5.2955,-5.3042,-4.0341,-4.0886,-4.1317,-4.1404,-4.1404,-4.1618,-4.2261,-4.3122,-4.3841,-4.4525,-4.5399,-4.597,-4.6046,-4.6403,-4.6741,-4.6916,-4.7019,-4.7207,-4.7309,-4.7309,-4.7309,-4.7309,-4.7309,-4.6995,-4.6337,-4.5648,-4.5057,-4.4464,-4.3726,-4.3381,-4.334,-4.334,-4.334,-4.334,-4.334,-4.3571,-4.3956,-4.3956,-4.4187,-4.4572,-4.4723,-4.4799,-4.4799,-4.4905,-4.5055,-4.5129,-4.5204,-4.5352,-4.5515,-4.5807,-4.5968,-4.6168,-4.6404,-4.6598,-4.6807,-4.6876,-4.6876,-4.6876,-4.6876,-4.6358,-4.5646,-4.4965,-4.4447,-4.3905,-4.3415,-4.3432,-4.3628,-4.3628,-4.3628,-4.3628,-4.3628,-4.3628,-4.3628,-4.3628,-4.323,-4.2684,-4.1939,-4.121,-4.0608,-4.018,-3.9845,-3.9833,-4.0188,-3.9831,-3.9705,0.0,0.0,0.0,-4.0117,-4.048,-4.0902,-4.1262,-4.2343,-4.3208,-4.3852,-4.4961,-4.5673,-4.6049,-4.6856,-4.8048,-4.9647,-4.9739,-5.0713,-5.2246,-5.2358,-5.2405,-5.2452,-5.2508,-5.2763,-5.3035,-5.3099,-5.3126,-5.3172,-5.3172,-5.3061,-5.2937,-4.0887,-4.1626,-4.23,-4.2584,-4.2584,-4.2674,-4.2867,-4.3631,-4.4299,-4.4625,-4.5338,-4.588,-4.588,-4.6046,-4.6388,-4.6829,-4.6844,-4.7019,-4.7222,-4.7294,-4.7309,-4.7309,-4.7309,-4.7025,-4.6411,-4.5678,-4.4945,-4.4242,-4.4119,-4.422,-4.4572,-4.4572,-4.4572,-4.4572,-4.4572,-4.4572,-4.4572,-4.4572,-4.4572,-4.4572,-4.4572,-4.4572,-4.4572,-4.4572,-4.4739,-4.4874,-4.4874,-4.5114,-4.5442,-4.5515,-4.5735,-4.6112,-4.6207,-4.6388,-4.6598,-4.6823,-4.6876,-4.6876,-4.6876,-4.639,-4.571,-4.503,-4.4528,-4.4138,-4.3657,-4.3628,-4.3628,-4.3628,-4.3628,-4.3628,-4.3628,-4.3628,-4.3628,-4.3628,-4.3628,-4.3363,-4.2618,-4.1922,-4.1338,-4.0896,-4.0247,-3.9984,-4.024,-4.0341,-4.0458,-4.0458,0.0,0.0,-4.1847,-4.1531,-4.1667,-4.2462,-4.2672,-4.3483,-4.508,-4.5293,-4.5853,-4.6778,-4.7043,-4.7984,-4.9453,-4.9629,-5.0574,-5.2102,-5.2216,-5.2264,-5.2311,-5.2405,-5.2933,-5.3621,-5.3675,-5.3722,-5.3808,-5.3881,-5.3436,-5.2897,-4.1493,-4.1917,-4.23,-4.2584,-4.2584,-4.2739,-4.3293,-4.3644,-4.4172,-4.4838,-4.5312,-4.57,-4.588,-4.597,-4.6046,-4.6299,-4.658,-4.6683,-4.6771,-4.6931,-4.7019,-4.7019,-4.7207,-4.7234,-4.707,-4.5903,-4.4899,-4.4059,-4.4048,-4.422,-4.4572,-4.4572,-4.4572,-4.4572,-4.4572,-4.4572,-4.4572,-4.4572,-4.4572,-4.4572,-4.4572,-4.4572,-4.4572,-4.4572,-4.4648,-4.4723,-4.4874,-4.4949,-4.5114,-4.5442,-4.5589,-4.5735,-4.6024,-4.6278,-4.6474,-4.6823,-4.6876,-4.6876,-4.6876,-4.6763,-4.6523,-4.596,-4.5096,-4.4278,-4.3734,-4.3628,-4.3628,-4.3628,-4.3628,-4.3628,-4.3628,-4.3628,-4.3628,-4.3628,-4.3628,-4.3363,-4.2618,-4.2369,-4.2102,-4.1682,-4.1502,-4.1476,-4.1762,-4.1831,-4.1884,-4.1988,0.0,-4.2364,-4.2636,-4.2699,-4.2846,-4.3051,-4.3885,-4.4537,-4.4953,-4.5756,-4.6348,-4.6724,-4.6962,-4.7658,-4.8823,-4.9317,-5.0432,-5.1956,-5.2102,-5.215,-5.215,-5.2198,-5.2372,-5.2701,-5.3297,-5.3628,-5.3795,-5.4411,-5.415,-5.3581,-4.2048,-4.2454,-4.2939,-4.323,-4.3322,-4.3526,-4.3863,-4.4089,-4.4478,-4.4989,-4.5307,-4.5595,-4.588,-4.588,-4.597,-4.6046,-4.6314,-4.6491,-4.6594,-4.6668,-4.6844,-4.6931,-4.7019,-4.7207,-4.7309,-4.5978,-4.4824,-4.3832,-4.3988,-4.4127,-4.4419,-4.4587,-4.4572,-4.4572,-4.4572,-4.4572,-4.4572,-4.4572,-4.4572,-4.4572,-4.4572,-4.4572,-4.4572,-4.4572,-4.4572,-4.4572,-4.4723,-4.4799,-4.4949,-4.5114,-4.5352,-4.5515,-4.588,-4.6152,-4.6333,-4.6668,-4.6807,-4.6876,-4.6876,-4.6876,-4.6702,-4.5946,-4.5046,-4.4216,-4.3734,-4.3628,-4.3628,-4.3628,-4.3568,-4.3509,-4.3509,-4.3509,-4.3509,-4.3509,-4.3568,-4.3479,-4.3081,-4.2734,-4.2427,-4.2255,-4.205,-4.1959,-4.2196,-4.2233,-4.2339,-4.2409,-4.2602,-4.286,-4.3323,-4.3563,-4.3715,-4.3748,-4.4364,-4.4913,-4.5312,-4.6042,-4.6459,-4.6613,-4.6806,-4.7493,-4.8603,-4.9186,-5.0288,-5.1808,-5.1956,-5.2005,-5.2005,-5.2084,-5.2366,-5.2828,-5.3621,-5.4043,-5.4231,-5.5026,-5.4888,-5.4241,-4.2506,-4.308,-4.3709,-4.3926,-4.4223,-4.4411,-4.4411,-4.4597,-4.4783,-4.5046,-4.5321,-4.5504,-4.579,-4.588,-4.588,-4.588,-4.6046,-4.6225,-4.6506,-4.6506,-4.6594,-4.6741,-4.6829,-4.7019,-4.7207,-4.5978,-4.4788,-4.3826,-4.3955,-4.4127,-4.4281,-4.4511,-4.4572,-4.4572,-4.4572,-4.4572,-4.4572,-4.4572,-4.4572,-4.4572,-4.4572,-4.4572,-4.4572,-4.4511,-4.4511,-4.4511,-4.4572,-4.4648,-4.4799,-4.4874,-4.5129,-4.5515,-4.5662,-4.6008,-4.6349,-4.6528,-4.6668,-4.6876,-4.6876,-4.6945,-4.6689,-4.5555,-4.4785,-4.4207,-4.363,-4.3492,-4.3492,-4.3492,-4.3432,-4.3372,-4.3372,-4.3372,-4.3372,-4.3388,-4.3509,-4.3568,-4.3628,-4.3081,-4.2742,-4.2841,-4.2495,-4.2277,-4.2442,-4.2588,-4.2642,-4.2642,-4.2908,-4.3355,-4.4021,-4.4302,-4.4458,-4.4458,-4.4611,-4.5058,-4.5821,-4.6204,-4.6411,-4.6454,-4.6666,-4.7471,-4.8781,-4.9162,-5.0191,-5.169,-5.1808,-5.1858,-5.1858,-5.1987,-5.2449,-5.3199,-5.399,-5.4417,-5.4765,-5.5523,-5.5465,-5.4961,-4.3136,-4.3368,-4.3709,-4.3926,-4.4223,-4.4411,-4.4411,-4.4411,-4.4597,-4.4783,-4.5046,-4.5216,-4.5504,-4.579,-4.588,-4.588,-4.597,-4.597,-4.597,-4.6135,-4.6314,-4.6299,-4.6653,-4.6916,-4.6931,-4.5893,-4.4997,-4.4474,-4.4167,-4.4127,-4.4281,-4.4511,-4.4572,-4.4572,-4.4572,-4.4572,-4.4572,-4.4572,-4.4572,-4.4587,-4.4435,-4.4358,-4.4358,-4.4127,-4.4065,-4.4143,-4.4281,-4.4358,-4.4435,-4.4799,-4.5039,-4.5294,-4.5515,-4.5807,-4.6168,-4.6262,-4.6458,-4.6652,-4.6876,-4.703,-4.6825,-4.5375,-4.5065,-4.4767,-4.3485,-4.3174,-4.3174,-4.3174,-4.3174,-4.3174,-4.3174,-4.3174,-4.3174,-4.3372,-4.3432,-4.3492,-4.3552,-4.3529,-4.3522,-4.3714,-4.3714,-4.3803,-4.3956,-4.4159,-4.4215,-4.4215,-4.4473,-4.4687,-4.4807,-4.5075,-4.5251,-4.5251,-4.5338,-4.5597,-4.5972,-4.6253,-4.6346,-4.624,-4.6489,-4.7707,-4.9666,-4.935,-5.0129,-5.169,-5.169,-5.174,-5.174,-5.174,-5.1929,-5.2176,-5.2996,-5.3796,-5.4561,-5.5509,-5.5757,-5.5663,-4.3026,-4.3328,-4.36,-4.3709,-4.4115,-4.4411,-4.4411,-4.4411,-4.4504,-4.4797,-4.4876,-4.5046,-4.5413,-4.5595,-4.57,-4.588,-4.588,-4.588,-4.588,-4.597,-4.6046,-4.6225,-4.658,-4.6681,-4.6599,-4.5714,-4.5057,-4.4464,-4.4134,-4.4065,-4.4143,-4.4435,-4.4572,-4.4572,-4.4572,-4.4572,-4.4572,-4.4496,-4.4435,-4.4435,-4.4205,-4.4143,-4.4143,-4.4065,-4.3988,-4.4065,-4.4205,-4.4281,-4.4358,-4.4648,-4.4964,-4.522,-4.5294,-4.5662,-4.6112,-4.6278,-4.6545,-4.6807,-4.6876,-4.6961,-4.6689,-4.5375,-4.5082,-4.4771,-4.344,-4.3113,-4.3113,-4.3113,-4.3052,-4.3007,-4.3007,-4.3007,-4.3007,-4.3146,-4.3251,-4.3432,-4.3492,-4.3568,-4.3628,-4.3704,-4.3923,-4.4097,-4.4212,-4.4457,-4.4587,-4.4587,-4.4776,-4.4923,-4.4978,-4.5194,-4.5318,-4.5423,-4.5528,-4.5667,-4.5871,-4.6073,-4.62,-4.624,-4.6835,-4.8041,-4.9728,-4.9714,-5.0371,-5.1607,-5.1607,-5.164,-5.169,-5.169,-5.1758,-5.1879,-5.2666,-5.3286,-5.3835,-5.5125,-5.5746,-5.5848,-4.2588,-4.315,-4.36,-4.36,-4.4007,-4.4411,-4.4411,-4.4411,-4.4462,-4.4507,-4.4698,-4.4911,-4.5121,-4.5326,-4.5595,-4.579,-4.588,-4.588,-4.588,-4.588,-4.597,-4.6135,-4.6417,-4.6534,-4.6476,-4.5873,-4.52,-4.4541,-4.4282,-4.4124,-4.3988,-4.4358,-4.4587,-4.4572,-4.4572,-4.4572,-4.4511,-4.4358,-4.4281,-4.4205,-4.3988,-4.391,-4.391,-4.3817,-4.3832,-4.3895,-4.4127,-4.4205,-4.4281,-4.4511,-4.4814,-4.5129,-4.522,-4.5515,-4.6024,-4.6223,-4.6545,-4.6807,-4.6892,-4.6763,-4.6394,-4.5277,-4.4821,-4.4366,-4.3284,-4.299,-4.299,-4.299,-4.2883,-4.2837,-4.2837,-4.2837,-4.2837,-4.2899,-4.3146,-4.3312,-4.3372,-4.3509,-4.3568,-4.3628,-4.3864,-4.4056,-4.4097,-4.4327,-4.457,-4.4587,-4.472,-4.4831,-4.4923,-4.514,-4.5247,-4.5371,-4.5528,-4.5667,-4.577,-4.5922,-4.607,-4.6178,-4.7125,-4.8194,-4.9419,-4.9882,-5.0555,-5.1454,-5.1454,-5.1556,-5.164,-5.164,-5.169,-5.1762,-5.2368,-5.2809,-5.3232,-5.4629,-5.543,-5.5833,-4.2059,-4.2862,-4.36,-4.36,-4.4007,-4.4411,-4.4411,-4.4411,-4.4214,-4.3638,-4.4337,-4.4557,-4.3947,-4.4872,-4.5504,-4.5504,-4.579,-4.588,-4.588,-4.588,-4.588,-4.588,-4.6328,-4.6653,-4.6857,-4.6405,-4.5918,-4.5229,-4.48,-4.4406,-4.3988,-4.4205,-4.4435,-4.4572,-4.4572,-4.4511,-4.4358,-4.4281,-4.4205,-4.3988,-4.3832,-4.369,-4.3675,-4.3423,-4.3329,-4.3409,-4.3817,-4.3988,-4.405,-4.4511,-4.4723,-4.4964,-4.5129,-4.5368,-4.5589,-4.6024,-4.6349,-4.6668,-4.6876,-4.639,-4.571,-4.4965,-4.4285,-4.3573,-4.2796,-4.2634,-4.2634,-4.2634,-4.2634,-4.2634,-4.2634,-4.2634,-4.2696,-4.2899,-4.2899,-4.3023,-4.3388,-4.3388,-4.3432,-4.3568,-4.3763,-4.3939,-4.4097,-4.4253,-4.4384,-4.4587,-4.472,-4.4776,-4.4831,-4.5086,-4.5247,-4.5371,-4.5528,-4.5615,-4.5615,-4.5871,-4.6023,-4.6023,-4.6961,-4.792,-4.8882,-4.9572,-5.0434,-5.1281,-5.1281,-5.1402,-5.1505,-5.1505,-5.1607,-5.1708,-5.1762,-5.2225,-5.3026,-5.4005,-5.4912,-5.5767,-4.1937,-4.2821,-4.36,-4.36,-4.4007,-4.4411,-4.4411,-4.4411,-4.4326,-4.4102,-4.4363,-4.4513,-4.4443,-4.4826,-4.5138,-4.5504,-4.5595,-4.57,-4.588,-4.588,-4.597,-4.6046,-4.6417,-4.6668,-4.6931,-4.648,-4.6202,-4.5933,-4.5492,-4.4976,-4.4595,-4.483,-4.4834,-4.4572,-4.4511,-4.4358,-4.4281,-4.405,-4.391,-4.3754,-4.3518,-4.3423,-4.3423,-4.3329,-4.3329,-4.3329,-4.3817,-4.3988,-4.4065,-4.4419,-4.4723,-4.4874,-4.4964,-4.5204,-4.5589,-4.5968,-4.6223,-4.6404,-4.6545,-4.6152,-4.5646,-4.4965,-4.4253,-4.3524,-4.2796,-4.2634,-4.2634,-4.2634,-4.2634,-4.2634,-4.2634,-4.2634,-4.2634,-4.2696,-4.2837,-4.2945,-4.3174,-4.3312,-4.3449,-4.3552,-4.3763,-4.3898,-4.3939,-4.4155,-4.431,-4.444,-4.457,-4.4737,-4.4793,-4.5032,-4.523,-4.5247,-4.5423,-4.5546,-4.5667,-4.5736,-4.5855,-4.6145,-4.7367,-4.8188,-4.8676,-4.996,-5.0753,-5.1158,-5.1158,-5.1246,-5.1402,-5.1454,-5.1505,-5.1607,-5.164,-5.1886,-5.2243,-5.3098,-5.3987,-5.493,-4.1612,-4.2561,-4.3393,-4.3573,-4.4007,-4.4411,-4.4411,-4.4411,-4.434,-4.4144,-4.4284,-4.4434,-4.4422,-4.4684,-4.4968,-4.5321,-4.5413,-4.5595,-4.588,-4.588,-4.597,-4.6135,-4.6417,-4.6668,-4.6844,-4.6688,-4.6531,-4.6322,-4.601,-4.5604,-4.5198,-4.5358,-4.5151,-4.4741,-4.4587,-4.4403,-4.4065,-4.3832,-4.369,-4.3596,-4.3344,-4.3329,-4.3329,-4.3329,-4.3329,-4.3329,-4.3754,-4.391,-4.4065,-4.4358,-4.4648,-4.4799,-4.4874,-4.5114,-4.5442,-4.5807,-4.6008,-4.6136,-4.6207,-4.58,-4.522,-4.4835,-4.401,-4.3249,-4.2747,-4.2634,-4.2634,-4.2634,-4.2634,-4.2634,-4.2634,-4.2634,-4.2634,-4.2634,-4.2713,-4.2883,-4.3007,-4.3174,-4.3372,-4.3509,-4.3704,-4.3822,-4.3898,-4.4056,-4.4196,-4.4293,-4.444,-4.4609,-4.4776,-4.5032,-4.514,-4.5177,-4.53,-4.5493,-4.558,-4.5598,-4.577,-4.6062,-4.7509,-4.8312,-4.8417,-5.0046,-5.0873,-5.0927,-5.0998,-5.1105,-5.1246,-5.1368,-5.1402,-5.1454,-5.1589,-5.1658,-5.1747,-5.26,-5.3327,-5.4107,-4.1001,-4.2052,-4.2923,-4.3504,-4.4007,-4.4411,-4.4411,-4.4411,-4.42,-4.3582,-4.4031,-4.4172,-4.3568,-4.4231,-4.4876,-4.5124,-4.5307,-4.5595,-4.588,-4.588,-4.588,-4.588,-4.6328,-4.6594,-4.6594,-4.7033,-4.698,-4.6337,-4.6337,-4.6062,-4.5619,-4.5619,-4.5354,-4.4989,-4.4974,-4.4546,-4.3705,-4.369,-4.3518,-4.3329,-4.3329,-4.3329,-4.3329,-4.3329,-4.3329,-4.3329,-4.3596,-4.3847,-4.4065,-4.4205,-4.4435,-4.4648,-4.4799,-4.5039,-4.522,-4.5442,-4.5662,-4.5807,-4.604,-4.5186,-4.4221,-4.4439,-4.3557,-4.2634,-4.2634,-4.2634,-4.2634,-4.2634,-4.2634,-4.2634,-4.2634,-4.2634,-4.2634,-4.2634,-4.2634,-4.2696,-4.2899,-4.3007,-4.3174,-4.3372,-4.3509,-4.3704,-4.3898,-4.3898,-4.3998,-4.431,-4.431,-4.4423,-4.4776,-4.494,-4.5086,-4.5177,-4.5318,-4.5423,-4.5423,-4.5528,-4.5632,-4.565,-4.7317,-4.81,-4.8153,-4.9849,-5.0585,-5.0585,-5.0819,-5.0998,-5.1123,-5.1105,-5.1211,-5.1298,-5.1454,-5.1505,-5.1594,-5.2531,-5.297,-5.3337,-4.1001,-4.2052,-4.2923,-4.3504,-4.4007,-4.4411,-4.4411,-4.4411,-4.4355,-4.4172,-4.4298,-4.434,-4.4158,-4.4392,-4.469,-4.5032,-4.5124,-4.5413,-4.588,-4.588,-4.588,-4.588,-4.6328,-4.6594,-4.6594,-4.7033,-4.7204,-4.701,-4.701,-4.6751,-4.6328,-4.6328,-4.6063,-4.5561,-4.5011,-4.4599,-4.4308,-4.3698,-4.3344,-4.3329,-4.3329,-4.3329,-4.3329,-4.3329,-4.3329,-4.3329,-4.3596,-4.3769,-4.3832,-4.4205,-4.4358,-4.4435,-4.4799,-4.4949,-4.5039,-4.522,-4.5442,-4.5589,-4.5662,-4.4922,-4.4118,-4.4439,-4.3492,-4.2508,-4.2571,-4.2634,-4.2634,-4.2634,-4.2634,-4.2634,-4.2634,-4.2634,-4.2634,-4.2634,-4.2634,-4.2696,-4.2899,-4.3007,-4.3174,-4.3372,-4.3509,-4.3628,-4.3687,-4.3839,-4.3939,-4.4155,-4.4384,-4.457,-4.4626,-4.4793,-4.4886,-4.494,-4.514,-4.5247,-4.5247,-4.5406,-4.5874,-4.6742,-4.7557,-4.8288,-4.897,-5.0,-5.0453,-5.0453,-5.062,-5.0729,-5.0784,-5.0981,-5.1105,-5.1158,-5.1298,-5.135,-5.142,-5.1772,-5.2319,-5.2905,-4.1039,-4.1873,-4.274,-4.3571,-4.4115,-4.4411,-4.4411,-4.4411,-4.4411,-4.4411,-4.4411,-4.4411,-4.4504,-4.4597,-4.4783,-4.523,-4.5321,-4.5504,-4.588,-4.588,-4.588,-4.588,-4.6239,-4.6506,-4.6594,-4.6946,-4.7207,-4.7309,-4.7309,-4.7186,-4.6866,-4.6866,-4.659,-4.6026,-4.5522,-4.4959,-4.4434,-4.3883,-4.3569,-4.3329,-4.3329,-4.3329,-4.3329,-4.3329,-4.3329,-4.3329,-4.3503,-4.3596,-4.3769,-4.3988,-4.4143,-4.4358,-4.4648,-4.4799,-4.4799,-4.5039,-4.5204,-4.5278,-4.5368,-4.4771,-4.4193,-4.4181,-4.3313,-4.2445,-4.2508,-4.2571,-4.2634,-4.2634,-4.2634,-4.2634,-4.2634,-4.2634,-4.2634,-4.2634,-4.2634,-4.2634,-4.2759,-4.2945,-4.3174,-4.3251,-4.3492,-4.3628,-4.3628,-4.3704,-4.3881,-4.4097,-4.4327,-4.4514,-4.4587,-4.4737,-4.4776,-4.4776,-4.5032,-4.514,-4.514,-4.5194,-4.5818,-4.6965,-4.7571,-4.8245,-4.9136,-4.9955,-5.0302,-5.0359,-5.0436,-5.0492,-5.0547,-5.0801,-5.0909,-5.0909,-5.1141,-5.1193,-5.1246,-5.135,-5.1704,-5.2199,-4.1178,-4.1714,-4.2389,-4.3648,-4.4181,-4.4411,-4.4411,-4.4411,-4.4411,-4.4411,-4.4411,-4.4504,-4.4797,-4.4797,-4.4968,-4.5504,-4.579,-4.588,-4.588,-4.588,-4.588,-4.588,-4.6046,-4.6314,-4.6594,-4.6756,-4.7019,-4.7309,-4.7309,-4.7309,-4.7309,-4.7309,-4.698,-4.6411,-4.6352,-4.5603,-4.4407,-4.4347,-4.3928,-4.3329,-4.3329,-4.3329,-4.3329,-4.3329,-4.3329,-4.3329,-4.3329,-4.3423,-4.369,-4.369,-4.3988,-4.4281,-4.4511,-4.4587,-4.4587,-4.4799,-4.4874,-4.4964,-4.5129,-4.4763,-4.4259,-4.381,-4.303,-4.2382,-4.2397,-4.2508,-4.2634,-4.2634,-4.2634,-4.2634,-4.2634,-4.2634,-4.2634,-4.2634,-4.2634,-4.2634,-4.2634,-4.2867,-4.3113,-4.3113,-4.3372,-4.3628,-4.3628,-4.3628,-4.3747,-4.4097,-4.4196,-4.4367,-4.457,-4.4737,-4.4776,-4.4776,-4.494,-4.4978,-4.4978,-4.4978,-4.5534,-4.6559,-4.73,-4.804,-4.8798,-4.9729,-5.0132,-5.0189,-5.0302,-5.0359,-5.0397,-5.0547,-5.0585,-5.0602,-5.0927,-5.1052,-5.1052,-5.1193,-5.1228,-5.1334,-4.0644,-4.1501,-4.2419,-4.3185,-4.3901,-4.4411,-4.4411,-4.4411,-4.4411,-4.4411,-4.4597,-4.4705,-4.4797,-4.4954,-4.5138,-4.5504,-4.579,-4.588,-4.588,-4.588,-4.588,-4.588,-4.597,-4.606,-4.6314,-4.6653,-4.7019,-4.7309,-4.7309,-4.7309,-4.7309,-4.7309,-4.7234,-4.707,-4.6546,-4.5858,-4.505,-4.4526,-4.3928,-4.3329,-4.3329,-4.3329,-4.3329,-4.3329,-4.3329,-4.3329,-4.3329,-4.3329,-4.3423,-4.3596,-4.3832,-4.405,-4.4127,-4.4143,-4.4205,-4.4358,-4.4511,-4.4723,-4.4874,-4.46,-4.4044,-4.3568,-4.3042,-4.2534,-4.2446,-4.2508,-4.2634,-4.2634,-4.2634,-4.2634,-4.2634,-4.2634,-4.2634,-4.2634,-4.2634,-4.2634,-4.2634,-4.2867,-4.3113,-4.3113,-4.3372,-4.3628,-4.3628,-4.3763,-4.3881,-4.4097,-4.4196,-4.4367,-4.457,-4.4626,-4.4626,-4.4626,-4.4776,-4.4831,-4.4831,-4.4923,-4.5408,-4.6216,-4.6987,-4.774,-4.8528,-4.9323,-4.9708,-4.9825,-4.9942,-5.0114,-5.0246,-5.0397,-5.0453,-5.0453,-5.0526,-5.0526,-5.0582,-5.0712,-5.082,-5.0963,-4.0632,-4.1495,-4.2454,-4.3188,-4.391,-4.4411,-4.4411,-4.4411,-4.4411,-4.4597,-4.4705,-4.489,-4.5152,-4.523,-4.5413,-4.57,-4.579,-4.588,-4.588,-4.588,-4.588,-4.588,-4.588,-4.5956,-4.6225,-4.6476,-4.6668,-4.6946,-4.6946,-4.7033,-4.7121,-4.7121,-4.7207,-4.7279,-4.6621,-4.5933,-4.5244,-4.4586,-4.3928,-4.3329,-4.3329,-4.3329,-4.3329,-4.3329,-4.3329,-4.3329,-4.3329,-4.3329,-4.3329,-4.3596,-4.3769,-4.3832,-4.3988,-4.3988,-4.3988,-4.4143,-4.4205,-4.4358,-4.4572,-4.4461,-4.4157,-4.3434,-4.3198,-4.2936,-4.2414,-4.2381,-4.2508,-4.2571,-4.2634,-4.2634,-4.2634,-4.2634,-4.2634,-4.2634,-4.2634,-4.2634,-4.2634,-4.2867,-4.3113,-4.3113,-4.3372,-4.3628,-4.3628,-4.3704,-4.3822,-4.3998,-4.4155,-4.4253,-4.444,-4.457,-4.4587,-4.4587,-4.4682,-4.4682,-4.4682,-4.4776,-4.515,-4.5898,-4.68,-4.7626,-4.8411,-4.9146,-4.9547,-4.959,-4.9708,-4.9825,-4.9942,-5.0114,-5.0228,-5.0302,-5.0359,-5.0415,-5.0415,-5.0509,-5.0547,-5.0657,-4.0659,-4.1508,-4.239,-4.3231,-4.3849,-4.4284,-4.4397,-4.4411,-4.4504,-4.4797,-4.4783,-4.506,-4.5413,-4.5504,-4.5685,-4.588,-4.588,-4.588,-4.588,-4.588,-4.588,-4.588,-4.588,-4.597,-4.6135,-4.6135,-4.6314,-4.6594,-4.6594,-4.6683,-4.6844,-4.6844,-4.7033,-4.7178,-4.6535,-4.5863,-4.5244,-4.4586,-4.3928,-4.3329,-4.3329,-4.3329,-4.3329,-4.3329,-4.3329,-4.3329,-4.3329,-4.3329,-4.3329,-4.3596,-4.3596,-4.3675,-4.3832,-4.391,-4.391,-4.391,-4.391,-4.3988,-4.4205,-4.4435,-4.4324,-4.3242,-4.3271,-4.3342,-4.225,-4.2238,-4.2445,-4.2571,-4.2571,-4.2634,-4.2634,-4.2634,-4.2634,-4.2634,-4.2634,-4.2634,-4.2634,-4.2929,-4.3096,-4.3174,-4.3432,-4.3628,-4.3628,-4.3628,-4.3687,-4.3898,-4.3998,-4.4155,-4.4293,-4.4497,-4.4587,-4.4587,-4.4587,-4.4587,-4.4587,-4.4587,-4.4959,-4.572,-4.6646,-4.7568,-4.8353,-4.9086,-4.9428,-4.9428,-4.9428,-4.953,-4.9649,-4.9767,-4.9942,-5.0074,-5.0246,-5.0285,-5.0285,-5.0341,-5.0359,-5.0397,-4.0106,-4.0956,-4.1938,-4.2584,-4.3216,-4.3807,-4.4326,-4.4411,-4.4504,-4.4797,-4.4954,-4.5124,-4.5504,-4.57,-4.588,-4.588,-4.588,-4.588,-4.588,-4.588,-4.588,-4.588,-4.588,-4.588,-4.597,-4.597,-4.615,-4.6594,-4.6594,-4.6594,-4.6683,-4.6683,-4.6756,-4.6901,-4.6278,-4.5779,-4.5244,-4.4586,-4.3928,-4.3329,-4.3329,-4.3329,-4.3329,-4.3329,-4.3329,-4.3329,-4.3329,-4.3329,-4.3329,-4.3329,-4.3344,-4.3344,-4.3409,-4.3409,-4.3423,-4.3675,-4.3769,-4.3754,-4.3988,-4.4205,-4.4037,-4.2894,-4.29,-4.2895,-4.1904,-4.2045,-4.2381,-4.2445,-4.2508,-4.2634,-4.2634,-4.2634,-4.2634,-4.2634,-4.2634,-4.2634,-4.2837,-4.3007,-4.3174,-4.3312,-4.3492,-4.3628,-4.3628,-4.3628,-4.3687,-4.3898,-4.3998,-4.4155,-4.4293,-4.4497,-4.4587,-4.4587,-4.4587,-4.4587,-4.4587,-4.4587,-4.4959,-4.572,-4.6489,-4.7251,-4.7996,-4.8724,-4.9124,-4.9229,-4.9229,-4.935,-4.9547,-4.9547,-4.9547,-4.9607,-4.9767,-4.9825,-4.9825,-5.0132,-5.0246,-5.0246,-4.0198,-4.0946,-4.1699,-4.1994,-4.2851,-4.3582,-4.3863,-4.4293,-4.469,-4.4954,-4.5138,-4.5413,-4.57,-4.579,-4.588,-4.588,-4.588,-4.588,-4.588,-4.588,-4.588,-4.588,-4.588,-4.588,-4.588,-4.588,-4.597,-4.6239,-4.6239,-4.6239,-4.6403,-4.6403,-4.6491,-4.6711,-4.5791,-4.5352,-4.5078,-4.4131,-4.3599,-4.3329,-4.3329,-4.3329,-4.3329,-4.3329,-4.3329,-4.3329,-4.3329,-4.3329,-4.3329,-4.3329,-4.3329,-4.3329,-4.3329,-4.3329,-4.3329,-4.3423,-4.3503,-4.3503,-4.3754,-4.3988,-4.3884,-4.2748,-4.2685,-4.2685,-4.1637,-4.172,-4.2045,-4.2318,-4.2445,-4.2508,-4.2571,-4.2634,-4.2634,-4.2634,-4.2696,-4.2775,-4.2899,-4.3129,-4.3312,-4.3492,-4.3552,-4.3628,-4.3628,-4.3628,-4.3628,-4.3704,-4.3881,-4.4056,-4.4212,-4.4327,-4.4497,-4.4587,-4.4587,-4.4587,-4.4587,-4.4587,-4.5162,-4.6312,-4.6633,-4.7192,-4.7953,-4.8663,-4.9001,-4.9124,-4.9124,-4.9168,-4.935,-4.935,-4.9428,-4.9488,-4.9547,-4.959,-4.9607,-4.9767,-4.9842,-4.9842]}]]